[[{"header":{"parameterUnit":"m.s-1","parameterCategory":1,"la1":31.0,"la2":29.5877,"lo1":-88.7671,"lo2":-86.6584,"dx":0.0162,"dy":0.0185,"nx":115,"ny":88,"refTime":"2023-01-22T18:00:00:Z","depth":0,"parameterNumber":2,"parameterNumberName":"U-component_of_WINDS"},"data":[0.0,0.0,0.0,0.0,0.0,0.0,0.0,0.0,0.0,0.0,0.0,0.0,0.0,0.0,0.0,0.0,0.0,0.0,0.0,0.0,0.0,0.0,0.0,0.0,0.0,0.0,0.0,0.0,0.0,0.0,0.0,0.0,0.0,0.0,0.0,0.0,0.0,0.0,0.0,0.0,0.0,0.0,0.0,0.0,0.0,0.0,0.0,0.0,0.0,0.0,0.0,0.0,0.0,0.0,0.0,0.0,0.0,0.0,0.0,0.0,0.0,0.0,0.0,0.0,0.0,0.0,0.0,0.0,0.0,0.0,0.0,0.0,0.0,0.0,0.0,0.0,0.0,0.0,0.0,0.0,0.0,0.0,0.0,0.0,0.0,0.0,0.0,0.0,0.0,0.0,0.0,0.0,0.0,0.0,0.0,0.0,0.0,0.0,0.0,0.0,0.0,0.0,0.0,0.0,0.0,0.0,0.0,0.0,0.0,0.0,0.0,0.0,0.0,0.0,0.0,0.0,0.0,0.0,0.0,0.0,0.0,0.0,0.0,0.0,0.0,0.0,0.0,0.0,0.0,0.0,0.0,0.0,0.0,0.0,0.0,0.0,0.0,0.0,0.0,0.0,0.0,0.0,0.0,0.0,0.0,0.0,0.0,0.0,0.0,0.0,0.0,0.0,0.0,0.0,0.0,0.0,0.0,0.0,0.0,0.0,0.0,0.0,0.0,0.0,0.0,0.0,0.0,0.0,0.0,0.0,0.0,0.0,0.0,0.0,0.0,0.0,0.0,0.0,0.0,0.0,0.0,0.0,0.0,0.0,0.0,0.0,0.0,0.0,0.0,0.0,0.0,0.0,0.0,0.0,0.0,0.0,0.0,0.0,0.0,0.0,0.0,0.0,0.0,0.0,0.0,0.0,0.0,0.0,0.0,0.0,0.0,0.0,0.0,0.0,0.0,0.0,0.0,0.0,0.0,0.0,0.0,0.0,0.0,0.0,0.0,0.0,0.0,0.0,0.0,0.0,0.0,0.0,0.0,0.0,0.0,0.0,0.0,0.0,0.0,0.0,0.0,0.0,0.0,0.0,0.0,0.0,0.0,0.0,0.0,0.0,0.0,0.0,0.0,0.0,0.0,0.0,0.0,0.0,0.0,0.0,0.0,0.0,0.0,0.0,0.0,0.0,0.0,0.0,0.0,0.0,0.0,0.0,0.0,0.0,0.0,0.0,0.0,0.0,0.0,0.0,0.0,0.0,0.0,0.0,0.0,0.0,0.0,0.0,0.0,0.0,0.0,0.0,0.0,0.0,0.0,0.0,0.0,0.0,0.0,0.0,0.0,0.0,0.0,0.0,0.0,0.0,0.0,0.0,0.0,0.0,0.0,0.0,0.0,0.0,0.0,0.0,0.0,0.0,0.0,0.0,0.0,0.0,0.0,0.0,0.0,0.0,0.0,0.0,0.0,0.0,0.0,0.0,0.0,0.0,0.0,0.0,0.0,0.0,0.0,0.0,0.0,0.0,0.0,0.0,0.0,0.0,0.0,0.0,0.0,0.0,0.0,0.0,0.0,0.0,0.0,0.0,0.0,0.0,0.0,0.0,0.0,0.0,0.0,0.0,0.0,0.0,0.0,0.0,0.0,0.0,0.0,0.0,0.0,0.0,0.0,0.0,0.0,0.0,0.0,0.0,0.0,0.0,0.0,0.0,0.0,0.0,0.0,0.0,0.0,0.0,0.0,0.0,0.0,0.0,0.0,0.0,0.0,0.0,0.0,0.0,0.0,0.0,0.0,0.0,0.0,0.0,0.0,0.0,0.0,0.0,0.0,0.0,0.0,0.0,0.0,0.0,0.0,0.0,0.0,0.0,0.0,0.0,0.0,0.0,0.0,0.0,0.0,0.0,0.0,0.0,0.0,0.0,0.0,0.0,0.0,0.0,0.0,0.0,0.0,0.0,0.0,0.0,0.0,0.0,0.0,0.0,0.0,0.0,0.0,0.0,0.0,0.0,0.0,0.0,0.0,0.0,0.0,0.0,0.0,0.0,0.0,0.0,0.0,0.0,0.0,0.0,0.0,0.0,0.0,0.0,0.0,0.0,0.0,0.0,0.0,0.0,0.0,0.0,0.0,0.0,0.0,0.0,0.0,0.0,0.0,0.0,0.0,0.0,0.0,0.0,0.0,0.0,0.0,0.0,0.0,0.0,0.0,0.0,0.0,0.0,0.0,0.0,0.0,0.0,0.0,0.0,0.0,0.0,0.0,0.0,0.0,0.0,0.0,0.0,0.0,0.0,0.0,0.0,0.0,0.0,0.0,0.0,0.0,0.0,0.0,0.0,0.0,0.0,0.0,0.0,0.0,0.0,0.0,0.0,0.0,0.0,0.0,0.0,0.0,0.0,0.0,0.0,0.0,0.0,0.0,0.0,0.0,0.0,0.0,0.0,0.0,0.0,0.0,0.0,0.0,0.0,0.0,0.0,0.0,0.0,0.0,0.0,0.0,0.0,0.0,0.0,0.0,0.0,0.0,0.0,0.0,0.0,0.0,0.0,0.0,0.0,0.0,0.0,0.0,0.0,0.0,0.0,0.0,0.0,0.0,0.0,0.0,0.0,0.0,0.0,0.0,0.0,0.0,0.0,0.0,0.0,0.0,0.0,0.0,0.0,0.0,0.0,0.0,0.0,0.0,0.0,0.0,0.0,0.0,0.0,0.0,0.0,0.0,0.0,0.0,0.0,0.0,0.0,0.0,0.0,0.0,0.0,0.0,0.0,0.0,0.0,0.0,0.0,0.0,0.0,0.0,0.0,0.0,0.0,0.0,0.0,0.0,0.0,0.0,0.0,0.0,0.0,0.0,0.0,0.0,0.0,0.0,0.0,0.0,0.0,0.0,0.0,0.0,0.0,0.0,0.0,0.0,0.0,0.0,0.0,0.0,0.0,0.0,0.0,0.0,0.0,0.0,0.0,0.0,0.0,0.0,0.0,0.0,0.0,0.0,0.0,0.0,0.0,0.0,0.0,0.0,0.0,0.0,0.0,0.0,0.0,0.0,0.0,0.0,0.0,0.0,0.0,0.0,0.0,0.0,0.0,0.0,0.0,0.0,0.0,0.0,0.0,0.0,0.0,0.0,0.0,0.0,0.0,0.0,0.0,0.0,0.0,0.0,0.0,0.0,0.0,0.0,0.0,0.0,0.0,0.0,0.0,0.0,0.0,0.0,0.0,0.0,0.0,0.0,0.0,0.0,0.0,0.0,0.0,0.0,0.0,0.0,0.0,0.0,0.0,0.0,0.0,0.0,0.0,0.0,0.0,0.0,0.0,0.0,0.0,0.0,0.0,0.0,0.0,0.0,0.0,0.0,0.0,0.0,0.0,0.0,0.0,0.0,0.0,0.0,0.0,0.0,0.0,0.0,0.0,0.0,0.0,0.0,0.0,0.0,0.0,0.0,0.0,0.0,0.0,0.0,0.0,0.0,0.0,0.0,0.0,0.0,0.0,0.0,0.0,0.0,0.0,0.0,0.0,0.0,0.0,0.0,0.0,0.0,0.0,0.0,0.0,0.0,0.0,0.0,0.0,0.0,0.0,0.0,0.0,0.0,0.0,0.0,0.0,0.0,0.0,0.0,0.0,0.0,0.0,0.0,0.0,0.0,0.0,0.0,0.0,0.0,0.0,0.0,0.0,0.0,0.0,0.0,0.0,0.0,0.0,0.0,0.0,0.0,0.0,0.0,0.0,0.0,0.0,0.0,0.0,0.0,0.0,0.0,0.0,0.0,0.0,0.0,0.0,0.0,0.0,0.0,0.0,0.0,0.0,0.0,0.0,0.0,0.0,0.0,0.0,0.0,0.0,0.0,0.0,0.0,0.0,0.0,0.0,0.0,0.0,0.0,0.0,0.0,0.0,0.0,0.0,0.0,0.0,0.0,0.0,0.0,0.0,0.0,0.0,0.0,0.0,0.0,0.0,0.0,0.0,0.0,0.0,0.0,0.0,0.0,0.0,0.0,0.0,0.0,0.0,0.0,0.0,0.0,0.0,0.0,0.0,0.0,0.0,0.0,0.0,0.0,0.0,0.0,0.0,0.0,0.0,0.0,0.0,0.0,0.0,0.0,0.0,0.0,0.0,0.0,0.0,0.0,0.0,0.0,0.0,0.0,0.0,0.0,0.0,0.0,0.0,0.0,0.0,0.0,0.0,0.0,0.0,0.0,0.0,0.0,0.0,0.0,0.0,0.0,0.0,0.0,0.0,0.0,0.0,0.0,0.0,0.0,0.0,0.0,0.0,2.2302,0.0,0.0,0.0,0.0,0.0,0.0,0.0,0.0,0.0,0.0,0.0,0.0,0.0,0.0,0.0,0.0,0.0,0.0,0.0,0.0,0.0,0.0,0.0,0.0,0.0,0.0,0.0,0.0,0.0,0.0,0.0,0.0,0.0,0.0,0.0,0.0,0.0,0.0,0.0,0.0,0.0,0.0,0.0,0.0,0.0,0.0,0.0,0.0,0.0,0.0,0.0,0.0,0.0,0.0,0.0,0.0,0.0,0.0,0.0,0.0,0.0,0.0,0.0,0.0,0.0,0.0,0.0,0.0,0.0,0.0,0.0,0.0,0.0,0.0,0.0,0.0,0.0,0.0,0.0,0.0,0.0,0.0,0.0,0.0,0.0,0.0,0.0,0.0,0.0,0.0,0.0,0.0,0.0,0.0,0.0,0.0,0.0,0.0,0.0,0.0,0.0,0.0,0.0,0.0,0.0,0.0,0.0,0.0,0.0,0.0,2.1528,2.2984,2.0553,2.0303,2.2571,0.0,0.0,0.0,0.0,0.0,0.0,0.0,0.0,0.0,0.0,0.0,0.0,0.0,0.0,0.0,0.0,0.0,0.0,0.0,0.0,0.0,0.0,0.0,0.0,0.0,0.0,0.0,0.0,0.0,0.0,0.0,0.0,0.0,0.0,0.0,0.0,0.0,0.0,0.0,0.0,0.0,0.0,0.0,0.0,0.0,0.0,0.0,0.0,0.0,0.0,0.0,0.0,0.0,0.0,0.0,0.0,0.0,0.0,0.0,0.0,0.0,0.0,0.0,0.0,0.0,0.0,0.0,0.0,0.0,0.0,0.0,0.0,0.0,0.0,0.0,0.0,0.0,0.0,0.0,0.0,0.0,0.0,0.0,0.0,0.0,0.0,0.0,0.0,0.0,0.0,0.0,0.0,0.0,0.0,0.0,0.0,0.0,0.0,0.0,0.0,0.0,0.0,0.0,0.0,0.0,0.0,0.0,0.0,0.0,0.0,0.0,0.0,2.0813,2.0502,2.2692,0.0,0.0,0.0,0.0,0.0,0.0,0.0,0.0,0.0,0.0,0.0,0.0,0.0,0.0,0.0,0.0,0.0,0.0,0.0,0.0,0.0,0.0,0.0,0.0,0.0,0.0,0.0,0.0,0.0,0.0,0.0,0.0,0.0,0.0,0.0,0.0,0.0,0.0,0.0,0.0,0.0,0.0,0.0,0.0,0.0,0.0,0.0,0.0,0.0,0.0,0.0,0.0,0.0,0.0,0.0,0.0,0.0,0.0,0.0,0.0,0.0,0.0,0.0,0.0,0.0,0.0,0.0,0.0,0.0,0.0,0.0,0.0,0.0,0.0,0.0,0.0,0.0,0.0,0.0,0.0,0.0,0.0,0.0,0.0,0.0,0.0,0.0,0.0,0.0,0.0,0.0,0.0,0.0,0.0,0.0,0.0,0.0,0.0,0.0,0.0,0.0,0.0,0.0,0.0,0.0,0.0,0.0,0.0,0.0,0.0,2.3256,2.3957,2.3534,0.0,2.3204,0.0,0.0,0.0,0.0,0.0,0.0,0.0,0.0,0.0,0.0,0.0,0.0,0.0,0.0,0.0,0.0,0.0,0.0,0.0,0.0,0.0,0.0,0.0,0.0,0.0,0.0,0.0,0.0,0.0,0.0,0.0,0.0,0.0,0.0,0.0,0.0,0.0,0.0,0.0,0.0,0.0,0.0,0.0,0.0,0.0,0.0,0.0,0.0,0.0,0.0,0.0,0.0,0.0,0.0,0.0,0.0,0.0,0.0,0.0,0.0,0.0,0.0,0.0,0.0,0.0,0.0,0.0,0.0,0.0,0.0,0.0,0.0,0.0,0.0,0.0,0.0,0.0,0.0,0.0,0.0,0.0,0.0,0.0,0.0,0.0,0.0,0.0,0.0,0.0,0.0,0.0,0.0,0.0,0.0,0.0,0.0,0.0,0.0,0.0,0.0,0.0,0.0,0.0,0.0,0.0,0.0,0.0,0.0,0.0,0.0,2.333,2.3894,2.3728,2.3274,0.0,0.0,0.0,0.0,0.0,0.0,0.0,0.0,0.0,0.0,0.0,0.0,0.0,0.0,0.0,0.0,0.0,0.0,0.0,0.0,0.0,0.0,0.0,0.0,0.0,0.0,0.0,0.0,0.0,0.0,0.0,0.0,0.0,0.0,0.0,0.0,0.0,0.0,0.0,0.0,0.0,0.0,0.0,0.0,0.0,0.0,0.0,0.0,0.0,0.0,0.0,0.0,0.0,0.0,0.0,0.0,0.0,0.0,0.0,0.0,0.0,0.0,0.0,0.0,0.0,0.0,0.0,0.0,0.0,0.0,0.0,0.0,0.0,0.0,0.0,0.0,0.0,0.0,0.0,0.0,0.0,0.0,0.0,0.0,0.0,0.0,0.0,0.0,0.0,0.0,0.0,0.0,0.0,0.0,0.0,0.0,0.0,0.0,0.0,0.0,0.0,0.0,0.0,0.0,0.0,0.0,0.0,0.0,0.0,0.0,2.3441,2.3611,2.406,2.3455,2.2808,2.2193,0.0,0.0,0.0,0.0,0.0,0.0,0.0,0.0,0.0,0.0,0.0,0.0,0.0,0.0,0.0,0.0,0.0,0.0,0.0,0.0,0.0,0.0,0.0,0.0,0.0,0.0,0.0,0.0,0.0,0.0,0.0,0.0,0.0,0.0,0.0,0.0,0.0,0.0,0.0,0.0,0.0,0.0,0.0,0.0,0.0,0.0,0.0,0.0,0.0,0.0,0.0,0.0,0.0,0.0,0.0,0.0,0.0,0.0,0.0,0.0,0.0,0.0,0.0,0.0,0.0,0.0,0.0,0.0,0.0,0.0,0.0,0.0,0.0,0.0,0.0,0.0,0.0,0.0,0.0,0.0,0.0,0.0,0.0,0.0,0.0,0.0,0.0,0.0,0.0,0.0,0.0,0.0,0.0,0.0,0.0,0.0,0.0,0.0,0.0,0.0,0.0,0.0,0.0,0.0,0.0,0.0,0.0,0.0,0.0,2.4576,2.4444,2.4833,2.3081,2.2308,0.0,0.0,0.0,0.0,0.0,0.0,0.0,0.0,0.0,0.0,0.0,0.0,0.0,0.0,0.0,0.0,0.0,0.0,0.0,0.0,0.0,0.0,0.0,0.0,0.0,0.0,0.0,0.0,0.0,0.0,0.0,0.0,0.0,0.0,0.0,0.0,0.0,0.0,0.0,0.0,0.0,0.0,0.0,0.0,0.0,0.0,0.0,0.0,0.0,0.0,0.0,0.0,0.0,0.0,0.0,0.0,0.0,0.0,0.0,0.0,0.0,0.0,0.0,0.0,0.0,0.0,0.0,0.0,0.0,0.0,0.0,0.0,0.0,0.0,0.0,0.0,0.0,0.0,0.0,0.0,0.0,0.0,0.0,0.0,0.0,0.0,0.0,0.0,0.0,0.0,0.0,0.0,0.0,0.0,0.0,0.0,0.0,0.0,0.0,0.0,0.0,0.0,0.0,0.0,0.0,0.0,0.0,0.0,0.0,2.3761,2.3845,2.3674,2.3335,2.2905,2.2515,0.0,0.0,0.0,0.0,0.0,0.0,0.0,0.0,0.0,0.0,0.0,0.0,0.0,0.0,0.0,0.0,0.0,0.0,0.0,0.0,0.0,0.0,0.0,0.0,0.0,0.0,0.0,0.0,0.0,0.0,0.0,0.0,0.0,0.0,0.0,0.0,0.0,0.0,0.0,0.0,0.0,0.0,0.0,0.0,0.0,0.0,0.0,0.0,0.0,0.0,0.0,0.0,0.0,0.0,0.0,0.0,0.0,0.0,0.0,0.0,0.0,0.0,0.0,0.0,0.0,0.0,0.0,0.0,0.0,0.0,0.0,0.0,0.0,0.0,0.0,0.0,0.0,0.0,0.0,0.0,0.0,0.0,0.0,0.0,0.0,0.0,0.0,0.0,0.0,0.0,0.0,0.0,0.0,0.0,0.0,0.0,0.0,0.0,0.0,0.0,0.0,0.0,0.0,0.0,0.0,0.0,0.0,0.0,0.0,2.3648,0.0,2.3962,2.3144,2.3022,2.2575,0.0,0.0,0.0,0.0,0.0,0.0,0.0,0.0,0.0,0.0,0.0,0.0,0.0,0.0,0.0,0.0,0.0,0.0,0.0,0.0,0.0,0.0,0.0,0.0,0.0,0.0,0.0,0.0,0.0,0.0,0.0,0.0,0.0,0.0,0.0,0.0,0.0,0.0,0.0,0.0,0.0,0.0,0.0,0.0,0.0,0.0,0.0,0.0,0.0,0.0,0.0,0.0,0.0,0.0,0.0,0.0,0.0,0.0,0.0,0.0,0.0,0.0,0.0,0.0,0.0,0.0,0.0,0.0,0.0,0.0,0.0,0.0,0.0,0.0,0.0,0.0,0.0,0.0,0.0,0.0,0.0,0.0,0.0,0.0,0.0,0.0,0.0,0.0,0.0,0.0,0.0,0.0,0.0,0.0,0.0,0.0,0.0,0.0,0.0,0.0,0.0,0.0,0.0,0.0,0.0,0.0,0.0,0.0,2.3648,2.5066,2.5577,2.5358,2.4508,2.341,2.2371,0.0,0.0,0.0,0.0,0.0,0.0,0.0,0.0,0.0,0.0,0.0,0.0,0.0,0.0,0.0,0.0,0.0,0.0,0.0,0.0,0.0,0.0,0.0,0.0,0.0,0.0,0.0,0.0,0.0,0.0,0.0,0.0,0.0,0.0,0.0,0.0,0.0,0.0,0.0,0.0,0.0,0.0,0.0,0.0,0.0,0.0,0.0,0.0,0.0,0.0,0.0,0.0,0.0,0.0,0.0,0.0,0.0,0.0,0.0,0.0,0.0,0.0,0.0,0.0,0.0,0.0,0.0,0.0,0.0,0.0,0.0,0.0,0.0,0.0,0.0,0.0,0.0,0.0,0.0,0.0,0.0,0.0,0.0,0.0,0.0,0.0,0.0,0.0,0.0,0.0,0.0,0.0,0.0,0.0,0.0,0.0,0.0,0.0,0.0,0.0,0.0,0.0,0.0,0.0,0.0,0.0,0.0,0.0,0.0,2.3628,2.3994,2.426,2.4293,2.283,2.223,0.0,0.0,0.0,0.0,0.0,0.0,0.0,0.0,0.0,0.0,0.0,0.0,0.0,0.0,0.0,0.0,0.0,0.0,0.0,0.0,0.0,0.0,0.0,0.0,0.0,0.0,0.0,0.0,0.0,0.0,0.0,0.0,0.0,0.0,0.0,0.0,0.0,0.0,0.0,0.0,0.0,0.0,0.0,0.0,0.0,0.0,0.0,0.0,0.0,0.0,0.0,0.0,0.0,0.0,0.0,0.0,0.0,0.0,0.0,0.0,0.0,0.0,0.0,0.0,0.0,0.0,0.0,0.0,0.0,0.0,0.0,0.0,0.0,0.0,0.0,0.0,0.0,0.0,0.0,0.0,0.0,0.0,0.0,0.0,0.0,0.0,0.0,0.0,0.0,0.0,0.0,0.0,0.0,0.0,0.0,0.0,0.0,0.0,0.0,0.0,0.0,0.0,0.0,0.0,0.0,0.0,0.0,0.0,0.0,2.4456,2.4407,2.4411,2.4431,2.3087,2.2362,2.2362,0.0,0.0,0.0,0.0,0.0,0.0,0.0,0.0,0.0,0.0,0.0,0.0,0.0,0.0,0.0,0.0,0.0,0.0,0.0,0.0,0.0,0.0,0.0,0.0,0.0,0.0,0.0,0.0,0.0,0.0,0.0,0.0,0.0,0.0,0.0,0.0,0.0,0.0,0.0,0.0,0.0,0.0,0.0,0.0,0.0,0.0,0.0,0.0,0.0,0.0,0.0,0.0,0.0,0.0,0.0,0.0,0.0,0.0,0.0,0.0,0.0,0.0,0.0,0.0,0.0,0.0,0.0,0.0,0.0,0.0,0.0,0.0,0.0,0.0,0.0,0.0,0.0,0.0,0.0,0.0,0.0,0.0,0.0,0.0,0.0,0.0,0.0,0.0,0.0,0.0,0.0,0.0,0.0,0.0,0.0,0.0,0.0,0.0,0.0,0.0,0.0,0.0,0.0,0.0,0.0,0.0,0.0,0.0,2.7089,2.6554,2.5835,2.4904,2.4087,2.2853,0.0,0.0,0.0,0.0,0.0,0.0,0.0,0.0,0.0,0.0,0.0,0.0,0.0,0.0,0.0,0.0,0.0,0.0,0.0,0.0,0.0,0.0,0.0,0.0,0.0,0.0,0.0,0.0,0.0,0.0,0.0,0.0,0.0,0.0,0.0,0.0,0.0,0.0,0.0,0.0,0.0,0.0,0.0,0.0,0.0,0.0,0.0,0.0,0.0,0.0,0.0,0.0,0.0,0.0,0.0,0.0,0.0,0.0,0.0,0.0,0.0,0.0,0.0,0.0,0.0,0.0,0.0,0.0,0.0,0.0,0.0,0.0,0.0,0.0,0.0,0.0,0.0,0.0,0.0,0.0,0.0,0.0,0.0,0.0,0.0,0.0,0.0,0.0,0.0,0.0,0.0,0.0,0.0,0.0,0.0,0.0,0.0,0.0,0.0,0.0,0.0,0.0,0.0,0.0,0.0,0.0,0.0,0.0,0.0,2.8038,2.8351,2.7943,2.6849,2.5461,2.4039,0.0,0.0,0.0,0.0,0.0,0.0,0.0,0.0,0.0,0.0,0.0,0.0,0.0,0.0,0.0,0.0,0.0,0.0,0.0,0.0,0.0,0.0,0.0,0.0,0.0,0.0,0.0,0.0,0.0,0.0,0.0,0.0,0.0,0.0,0.0,0.0,0.0,0.0,0.0,0.0,0.0,0.0,0.0,0.0,0.0,0.0,0.0,0.0,0.0,0.0,0.0,0.0,0.0,0.0,0.0,0.0,0.0,0.0,0.0,0.0,0.0,0.0,0.0,0.0,0.0,0.0,0.0,0.0,0.0,0.0,0.0,0.0,0.0,0.0,0.0,0.0,0.0,0.0,0.0,0.0,0.0,0.0,0.0,0.0,0.0,0.0,0.0,0.0,0.0,0.0,0.0,0.0,0.0,0.0,0.0,0.0,0.0,0.0,0.0,0.0,0.0,0.0,0.0,0.0,0.0,0.0,0.0,0.0,2.7657,3.0058,3.1256,3.0994,2.9149,2.7073,2.503,0.0,0.0,0.0,0.0,0.0,0.0,0.0,0.0,0.0,0.0,0.0,0.0,0.0,0.0,0.0,0.0,0.0,0.0,0.0,0.0,0.0,0.0,0.0,0.0,0.0,0.0,0.0,0.0,0.0,0.0,0.0,0.0,0.0,0.0,0.0,0.0,0.0,0.0,0.0,0.0,0.0,0.0,0.0,0.0,0.0,0.0,0.0,0.0,0.0,0.0,0.0,0.0,0.0,0.0,0.0,0.0,0.0,0.0,0.0,0.0,0.0,0.0,0.0,0.0,0.0,0.0,0.0,0.0,0.0,0.0,0.0,0.0,0.0,0.0,0.0,0.0,0.0,0.0,0.0,0.0,0.0,0.0,0.0,0.0,0.0,0.0,0.0,0.0,0.0,0.0,0.0,0.0,0.0,0.0,0.0,0.0,0.0,0.0,0.0,0.0,0.0,0.0,0.0,0.0,0.0,0.0,0.0,0.0,2.9501,3.2265,3.4175,3.3927,3.1351,2.874,2.6026,0.0,0.0,0.0,0.0,0.0,0.0,0.0,0.0,0.0,0.0,0.0,0.0,0.0,0.0,0.0,0.0,0.0,0.0,0.0,0.0,0.0,0.0,0.0,0.0,0.0,0.0,0.0,0.0,0.0,0.0,0.0,0.0,0.0,0.0,0.0,0.0,0.0,0.0,0.0,0.0,0.0,0.0,0.0,0.0,0.0,0.0,0.0,0.0,0.0,0.0,0.0,0.0,0.0,0.0,0.0,0.0,0.0,0.0,0.0,0.0,0.0,0.0,0.0,0.0,0.0,0.0,0.0,0.0,0.0,0.0,0.0,0.0,0.0,0.0,0.0,0.0,0.0,0.0,0.0,0.0,0.0,0.0,0.0,0.0,0.0,0.0,0.0,0.0,0.0,0.0,0.0,0.0,0.0,0.0,0.0,0.0,0.0,0.0,0.0,0.0,0.0,0.0,0.0,0.0,0.0,0.0,0.0,0.0,2.9757,3.23,3.3222,3.3121,3.1914,2.9804,2.7125,0.0,0.0,0.0,0.0,0.0,0.0,0.0,0.0,0.0,0.0,0.0,0.0,0.0,0.0,0.0,0.0,0.0,0.0,0.0,0.0,0.0,0.0,0.0,0.0,0.0,0.0,0.0,0.0,0.0,0.0,0.0,0.0,0.0,0.0,0.0,0.0,0.0,0.0,0.0,0.0,0.0,0.0,0.0,0.0,0.0,0.0,0.0,0.0,2.3685,0.0,0.0,0.0,0.0,0.0,0.0,0.0,0.0,0.0,0.0,0.0,0.0,0.0,0.0,0.0,0.0,0.0,0.0,0.0,0.0,0.0,0.0,0.0,0.0,0.0,0.0,0.0,0.0,0.0,0.0,0.0,0.0,0.0,0.0,0.0,0.0,0.0,0.0,0.0,0.0,0.0,0.0,0.0,0.0,0.0,0.0,0.0,0.0,0.0,0.0,0.0,0.0,0.0,0.0,0.0,0.0,0.0,0.0,0.0,3.0771,3.3104,3.4146,3.3783,3.2051,3.0061,2.7794,0.0,0.0,0.0,0.0,0.0,0.0,0.0,0.0,0.0,0.0,0.0,0.0,0.0,0.0,0.0,0.0,0.0,0.0,0.0,0.0,0.0,0.0,0.0,0.0,0.0,0.0,0.0,0.0,0.0,0.0,0.0,0.0,0.0,0.0,0.0,0.0,0.0,0.0,0.0,0.0,0.0,0.0,0.0,0.0,0.0,0.0,0.0,0.0,0.0,0.0,0.0,0.0,0.0,0.0,0.0,0.0,0.0,0.0,0.0,0.0,0.0,0.0,0.0,0.0,0.0,0.0,0.0,0.0,0.0,0.0,0.0,0.0,0.0,0.0,0.0,0.0,0.0,0.0,0.0,0.0,0.0,0.0,0.0,0.0,0.0,0.0,0.0,0.0,0.0,0.0,0.0,0.0,0.0,0.0,0.0,0.0,0.0,0.0,0.0,0.0,0.0,0.0,0.0,0.0,0.0,0.0,0.0,2.9738,3.1828,3.4045,3.5261,3.4653,3.2099,2.982,2.7995,2.6562,0.0,0.0,0.0,0.0,0.0,0.0,0.0,0.0,0.0,0.0,0.0,0.0,0.0,0.0,0.0,0.0,0.0,0.0,0.0,0.0,0.0,0.0,0.0,0.0,0.0,0.0,0.0,0.0,0.0,0.0,0.0,0.0,0.0,0.0,0.0,0.0,0.0,0.0,2.4132,2.4039,0.0,0.0,0.0,0.0,0.0,0.0,0.0,0.0,2.3475,0.0,0.0,0.0,0.0,0.0,0.0,0.0,0.0,0.0,0.0,0.0,0.0,0.0,0.0,0.0,0.0,0.0,0.0,0.0,0.0,0.0,0.0,0.0,0.0,0.0,0.0,0.0,0.0,0.0,0.0,0.0,0.0,0.0,0.0,0.0,0.0,0.0,0.0,0.0,0.0,0.0,0.0,0.0,0.0,0.0,0.0,0.0,0.0,0.0,0.0,0.0,0.0,0.0,0.0,0.0,0.0,2.8642,3.0137,3.1931,3.4109,3.431,3.381,3.2589,2.9298,2.7374,2.7041,0.0,0.0,0.0,0.0,0.0,0.0,0.0,0.0,0.0,0.0,0.0,0.0,0.0,0.0,0.0,0.0,0.0,0.0,0.0,0.0,0.0,0.0,0.0,0.0,0.0,0.0,0.0,0.0,0.0,0.0,0.0,0.0,0.0,0.0,0.0,0.0,0.0,0.0,0.0,2.5476,2.6126,0.0,0.0,0.0,0.0,0.0,0.0,0.0,0.0,2.4244,0.0,0.0,0.0,0.0,0.0,0.0,0.0,0.0,0.0,0.0,0.0,0.0,0.0,0.0,0.0,0.0,0.0,0.0,0.0,0.0,0.0,0.0,0.0,0.0,0.0,0.0,0.0,0.0,0.0,0.0,0.0,0.0,0.0,0.0,0.0,0.0,0.0,0.0,0.0,0.0,0.0,0.0,0.0,0.0,0.0,0.0,0.0,0.0,0.0,0.0,0.0,0.0,0.0,0.0,0.0,2.9186,3.0594,3.2303,3.4345,3.4411,3.3634,3.2131,2.9139,2.7483,0.0,0.0,0.0,0.0,0.0,0.0,0.0,0.0,0.0,0.0,0.0,0.0,0.0,0.0,0.0,0.0,0.0,0.0,0.0,0.0,0.0,0.0,0.0,0.0,0.0,0.0,0.0,0.0,0.0,0.0,0.0,0.0,0.0,0.0,0.0,0.0,0.0,0.0,0.0,0.0,2.5974,2.643,2.5953,0.0,0.0,0.0,0.0,0.0,0.0,2.5295,2.501,0.0,0.0,0.0,0.0,0.0,0.0,0.0,0.0,0.0,0.0,0.0,0.0,0.0,0.0,0.0,0.0,0.0,0.0,0.0,0.0,0.0,0.0,0.0,0.0,0.0,0.0,0.0,0.0,0.0,0.0,0.0,0.0,0.0,0.0,0.0,0.0,0.0,0.0,0.0,0.0,0.0,0.0,0.0,0.0,0.0,0.0,0.0,0.0,0.0,0.0,0.0,0.0,0.0,0.0,0.0,2.9681,3.1045,3.2689,3.4614,3.4698,3.368,3.1539,2.9274,2.782,0.0,0.0,0.0,0.0,0.0,0.0,0.0,0.0,0.0,0.0,0.0,0.0,0.0,0.0,0.0,0.0,0.0,0.0,0.0,0.0,0.0,0.0,0.0,0.0,0.0,0.0,0.0,0.0,0.0,0.0,0.0,0.0,0.0,0.0,0.0,0.0,0.0,0.0,0.0,0.0,0.0,2.7067,2.6063,2.7251,0.0,0.0,0.0,0.0,2.6991,2.6586,0.0,0.0,0.0,0.0,0.0,0.0,0.0,0.0,0.0,0.0,0.0,0.0,0.0,0.0,0.0,0.0,0.0,0.0,0.0,0.0,0.0,0.0,0.0,0.0,0.0,0.0,0.0,0.0,0.0,0.0,0.0,0.0,0.0,0.0,0.0,0.0,0.0,0.0,0.0,0.0,0.0,0.0,0.0,0.0,0.0,0.0,0.0,0.0,0.0,0.0,0.0,0.0,0.0,0.0,0.0,0.0,3.0175,3.15,3.2978,3.4597,3.4698,3.368,3.1539,2.9682,2.8121,0.0,0.0,0.0,0.0,0.0,0.0,0.0,0.0,0.0,0.0,0.0,0.0,0.0,0.0,0.0,0.0,0.0,0.0,0.0,0.0,0.0,0.0,0.0,0.0,0.0,0.0,0.0,0.0,0.0,0.0,0.0,0.0,0.0,0.0,0.0,0.0,0.0,0.0,0.0,0.0,0.0,2.9796,2.842,2.8982,2.9041,0.0,0.0,2.8541,2.8238,2.9235,0.0,0.0,0.0,0.0,0.0,0.0,0.0,0.0,0.0,0.0,0.0,0.0,0.0,0.0,0.0,0.0,0.0,0.0,0.0,0.0,0.0,0.0,0.0,0.0,0.0,0.0,0.0,0.0,0.0,0.0,0.0,0.0,0.0,0.0,0.0,0.0,0.0,0.0,0.0,0.0,0.0,0.0,0.0,0.0,0.0,0.0,0.0,0.0,0.0,0.0,0.0,0.0,0.0,0.0,0.0,2.8112,3.0097,3.1308,3.2785,3.443,3.4214,3.3203,3.1539,2.9041,2.7598,0.0,0.0,0.0,0.0,0.0,0.0,0.0,0.0,0.0,0.0,0.0,0.0,0.0,0.0,0.0,0.0,0.0,0.0,0.0,0.0,0.0,0.0,0.0,0.0,0.0,0.0,0.0,0.0,0.0,0.0,0.0,0.0,0.0,0.0,0.0,0.0,0.0,0.0,0.0,0.0,0.0,0.0,2.8785,2.997,0.0,0.0,0.0,3.0836,3.0991,0.0,0.0,0.0,0.0,0.0,0.0,0.0,0.0,0.0,0.0,0.0,0.0,0.0,0.0,0.0,0.0,0.0,0.0,0.0,0.0,0.0,0.0,0.0,0.0,0.0,0.0,0.0,0.0,0.0,0.0,0.0,0.0,0.0,0.0,0.0,0.0,0.0,0.0,0.0,0.0,0.0,0.0,0.0,0.0,0.0,0.0,0.0,0.0,0.0,0.0,0.0,0.0,0.0,0.0,0.0,0.0,0.0,3.0219,3.1524,3.2931,3.4324,3.3981,3.2935,3.1278,2.8735,0.0,0.0,0.0,0.0,0.0,0.0,0.0,0.0,0.0,0.0,0.0,0.0,0.0,0.0,0.0,0.0,0.0,0.0,0.0,0.0,0.0,0.0,0.0,0.0,0.0,0.0,0.0,2.5173,0.0,0.0,0.0,0.0,0.0,0.0,0.0,0.0,0.0,0.0,0.0,0.0,0.0,0.0,3.1797,2.9696,3.1308,3.2258,0.0,0.0,3.2891,3.309,3.2264,3.1424,0.0,0.0,0.0,0.0,0.0,0.0,0.0,0.0,0.0,0.0,0.0,0.0,0.0,0.0,0.0,0.0,0.0,0.0,0.0,0.0,0.0,0.0,0.0,0.0,0.0,0.0,0.0,0.0,0.0,0.0,0.0,0.0,0.0,0.0,0.0,0.0,0.0,0.0,0.0,0.0,0.0,0.0,0.0,0.0,0.0,0.0,0.0,0.0,0.0,0.0,0.0,0.0,0.0,0.0,0.0,3.0925,3.2683,3.3809,3.437,3.4353,3.3151,3.0743,2.9376,2.8201,0.0,0.0,0.0,0.0,0.0,0.0,0.0,0.0,0.0,0.0,0.0,0.0,0.0,0.0,0.0,0.0,0.0,0.0,0.0,0.0,0.0,0.0,0.0,0.0,0.0,0.0,0.0,0.0,0.0,0.0,0.0,0.0,0.0,0.0,0.0,0.0,0.0,0.0,0.0,0.0,0.0,3.3332,3.2359,3.3509,3.4108,0.0,0.0,3.4255,3.3483,3.4183,3.4264,3.2798,0.0,0.0,0.0,0.0,0.0,0.0,0.0,0.0,0.0,0.0,0.0,0.0,0.0,0.0,0.0,0.0,0.0,0.0,0.0,0.0,0.0,0.0,0.0,0.0,0.0,0.0,0.0,0.0,0.0,0.0,0.0,0.0,0.0,0.0,0.0,0.0,0.0,0.0,0.0,0.0,0.0,0.0,0.0,0.0,0.0,0.0,0.0,0.0,0.0,0.0,0.0,0.0,0.0,2.9719,3.0999,3.269,3.3844,3.437,3.4068,3.2993,3.1206,2.9174,2.776,0.0,0.0,0.0,0.0,0.0,0.0,0.0,0.0,0.0,0.0,0.0,0.0,0.0,0.0,0.0,0.0,0.0,0.0,0.0,0.0,0.0,0.0,0.0,0.0,0.0,0.0,0.0,0.0,2.5966,2.6294,2.7328,0.0,0.0,0.0,0.0,0.0,0.0,0.0,0.0,0.0,0.0,3.4155,3.3734,3.4451,0.0,0.0,3.5678,3.582,3.5861,3.5216,3.4297,3.2974,3.1161,0.0,0.0,0.0,0.0,0.0,0.0,0.0,0.0,0.0,0.0,0.0,0.0,0.0,0.0,0.0,0.0,0.0,0.0,0.0,0.0,0.0,0.0,0.0,0.0,0.0,0.0,0.0,0.0,0.0,0.0,0.0,0.0,0.0,0.0,0.0,0.0,0.0,0.0,0.0,0.0,0.0,0.0,0.0,0.0,0.0,0.0,0.0,0.0,0.0,0.0,0.0,0.0,3.0023,3.094,3.2815,3.3964,3.4382,3.3993,3.3035,3.151,2.9378,2.7866,0.0,0.0,0.0,0.0,0.0,0.0,0.0,0.0,0.0,0.0,0.0,0.0,0.0,0.0,0.0,0.0,0.0,0.0,0.0,0.0,0.0,0.0,0.0,0.0,0.0,0.0,0.0,0.0,2.7155,2.7523,2.8933,0.0,0.0,0.0,0.0,0.0,0.0,0.0,0.0,0.0,0.0,3.4879,3.4959,3.5639,3.6418,3.7134,3.7093,3.7149,3.7511,3.5946,3.4329,3.3228,0.0,0.0,0.0,0.0,0.0,0.0,0.0,0.0,0.0,0.0,0.0,0.0,0.0,0.0,0.0,0.0,0.0,0.0,0.0,0.0,0.0,0.0,0.0,0.0,0.0,0.0,0.0,0.0,0.0,0.0,2.5219,0.0,0.0,0.0,0.0,0.0,0.0,0.0,0.0,0.0,0.0,0.0,0.0,0.0,0.0,0.0,0.0,0.0,0.0,0.0,0.0,0.0,0.0,3.0279,3.085,3.3174,3.4382,3.4382,3.4382,3.3454,3.1597,3.0262,2.8836,2.7211,0.0,0.0,0.0,0.0,0.0,0.0,0.0,0.0,0.0,0.0,0.0,0.0,0.0,0.0,0.0,0.0,0.0,0.0,0.0,0.0,0.0,0.0,0.0,0.0,0.0,0.0,2.9584,2.8962,2.8781,0.0,0.0,0.0,0.0,0.0,0.0,0.0,0.0,0.0,0.0,3.4728,3.5607,3.6138,3.7319,3.8017,3.8096,3.8129,3.811,3.7953,3.643,3.4821,0.0,0.0,0.0,0.0,0.0,0.0,0.0,0.0,0.0,0.0,0.0,0.0,0.0,0.0,0.0,0.0,0.0,0.0,0.0,0.0,0.0,0.0,0.0,0.0,0.0,0.0,0.0,2.4612,2.4562,0.0,0.0,0.0,0.0,0.0,0.0,0.0,0.0,0.0,0.0,0.0,2.8436,2.8613,0.0,0.0,0.0,0.0,0.0,0.0,0.0,0.0,0.0,0.0,0.0,0.0,3.1426,3.1689,3.344,3.4382,3.4382,3.4382,3.3906,3.2848,3.1163,2.9099,2.6609,0.0,0.0,0.0,0.0,0.0,0.0,0.0,0.0,0.0,0.0,0.0,0.0,0.0,0.0,0.0,0.0,0.0,0.0,0.0,0.0,0.0,0.0,0.0,0.0,0.0,2.9515,0.0,0.0,0.0,0.0,0.0,0.0,0.0,0.0,0.0,0.0,0.0,3.2588,3.3348,3.4241,3.5051,3.5741,3.6371,3.699,0.0,0.0,0.0,0.0,0.0,0.0,0.0,0.0,0.0,0.0,0.0,0.0,0.0,0.0,3.3564,3.152,3.0707,3.049,3.0947,0.0,0.0,0.0,0.0,0.0,0.0,0.0,0.0,0.0,0.0,0.0,0.0,0.0,0.0,2.5484,0.0,2.5959,0.0,0.0,0.0,0.0,0.0,0.0,0.0,0.0,2.9543,2.9859,2.9943,3.008,3.0338,0.0,3.1259,3.0497,0.0,0.0,0.0,0.0,0.0,0.0,0.0,0.0,3.2057,3.2242,3.386,3.4765,3.4765,3.4748,3.4358,3.3503,3.135,2.9101,2.6795,2.6275,2.6271,0.0,0.0,0.0,0.0,0.0,0.0,0.0,0.0,0.0,0.0,0.0,0.0,0.0,0.0,0.0,0.0,0.0,0.0,0.0,0.0,0.0,0.0,0.0,3.0794,0.0,0.0,0.0,0.0,0.0,0.0,0.0,0.0,0.0,3.3685,3.3136,3.3155,3.4466,3.4952,3.5437,3.622,0.0,0.0,0.0,0.0,0.0,0.0,0.0,3.7039,3.5831,3.5316,3.5187,3.5357,3.5263,3.5268,3.5652,0.0,0.0,3.3321,3.2716,3.2559,3.2875,3.2662,3.2713,3.3836,3.3687,3.3736,0.0,0.0,0.0,0.0,0.0,0.0,0.0,0.0,2.6332,2.71,0.0,2.7824,0.0,0.0,0.0,0.0,0.0,3.0101,0.0,0.0,3.0235,3.0001,2.8901,2.9419,2.9871,3.0518,3.2332,3.2871,3.2143,2.9674,0.0,0.0,0.0,0.0,0.0,0.0,3.2228,3.2613,3.4474,3.5421,3.5404,3.5375,3.4782,3.3487,3.091,2.8973,2.7798,2.719,2.6678,2.6326,2.7342,0.0,0.0,0.0,0.0,0.0,0.0,0.0,0.0,0.0,0.0,0.0,0.0,0.0,0.0,0.0,0.0,0.0,0.0,0.0,0.0,3.2243,0.0,0.0,0.0,0.0,0.0,0.0,0.0,0.0,0.0,0.0,3.5056,3.3984,3.4085,3.684,0.0,0.0,0.0,0.0,3.8168,3.7698,3.8786,3.9296,3.8426,3.8343,3.7787,3.6126,0.0,0.0,3.5623,3.5103,3.4964,3.5725,3.4856,3.4025,3.5176,3.5318,3.5318,3.5056,3.4339,3.4028,3.4264,3.3963,3.3473,3.0208,0.0,0.0,0.0,0.0,2.8019,2.7965,2.7703,2.8173,2.8426,2.8471,2.8153,0.0,0.0,0.0,0.0,0.0,0.0,3.1695,3.225,3.2984,3.3322,3.3388,3.4159,3.4105,3.3392,3.3704,3.3046,3.1554,3.0428,3.0343,3.123,0.0,0.0,0.0,0.0,3.342,3.3672,3.5195,3.5901,3.5633,3.5467,3.4714,3.3306,3.1751,3.0289,2.8958,2.7699,2.7221,2.7591,2.739,0.0,0.0,0.0,0.0,0.0,0.0,0.0,0.0,0.0,0.0,0.0,0.0,0.0,0.0,0.0,0.0,0.0,0.0,0.0,3.2399,3.2766,3.3089,0.0,0.0,0.0,0.0,0.0,0.0,0.0,0.0,0.0,3.6221,3.5242,3.4928,0.0,0.0,3.6491,3.7196,3.7404,3.7339,3.6988,3.7887,0.0,3.7135,3.7569,3.7698,3.673,3.7081,3.7455,3.739,3.7329,3.7359,3.7595,3.745,3.7301,3.7174,3.5585,3.4582,3.4823,3.5177,3.5668,3.6336,3.6577,3.7086,3.3004,3.1586,3.0364,2.9729,2.9602,2.9746,2.9678,2.9455,2.9656,2.975,2.9767,2.9404,2.9531,2.9924,2.9387,0.0,0.0,0.0,3.331,3.4196,3.4847,3.5218,3.5399,3.5999,3.5891,3.516,3.5036,3.4427,3.3359,3.3131,3.3107,3.3349,0.0,0.0,3.2905,3.3771,3.4311,3.4473,3.5596,3.6166,3.6082,3.5645,3.4847,3.3698,3.2703,3.1575,3.0258,2.9043,2.8437,2.8535,2.8218,2.8137,0.0,0.0,0.0,0.0,0.0,0.0,0.0,0.0,0.0,0.0,0.0,3.024,0.0,0.0,0.0,0.0,3.1802,3.2756,3.3829,3.3839,0.0,0.0,0.0,0.0,0.0,0.0,0.0,3.5596,3.5273,3.5609,3.7156,3.6516,3.6213,3.7126,3.7094,3.7243,3.7957,0.0,3.7416,3.7719,3.806,3.8022,3.7132,3.7697,3.7976,3.7305,3.7701,3.8048,3.7903,3.7961,3.8019,3.8048,3.8177,3.8205,3.7932,3.6408,3.5453,3.5987,3.6463,3.715,3.8156,3.8533,3.9166,3.5216,3.493,3.3096,3.2097,3.1742,3.1761,3.1649,3.1454,3.1093,3.1274,3.1813,3.1349,3.1171,3.1205,3.1601,0.0,3.2225,3.3884,3.4889,3.532,3.6086,3.6205,3.5823,3.6045,3.6116,3.614,3.6368,3.6543,3.6646,3.674,3.6183,3.4982,3.3287,3.2725,3.3291,3.4322,3.4965,3.5265,3.5863,3.6363,3.6653,3.5888,3.5108,3.4419,3.3578,3.2609,3.1564,3.0704,2.9914,2.9189,2.9344,2.9325,2.9009,0.0,0.0,0.0,0.0,0.0,0.0,0.0,0.0,0.0,0.0,0.0,0.0,0.0,0.0,0.0,3.2454,0.0,3.5025,3.5149,0.0,0.0,0.0,3.5792,3.6602,3.5794,3.5664,3.7023,0.0,0.0,3.7741,3.7625,3.7704,3.8465,3.8379,3.8524,3.935,3.8453,3.813,3.8979,3.8771,3.8264,3.7763,3.8145,3.8306,3.7846,3.7733,3.7719,3.7649,3.7525,3.751,3.751,3.7495,3.7525,3.7495,3.7516,3.7795,3.7828,3.7935,3.8362,3.9508,3.9574,3.9834,3.7134,3.6188,3.6527,3.5632,3.3938,3.3938,3.3918,3.3877,3.3759,3.388,3.4089,3.2888,3.1875,3.1157,3.3071,3.3513,3.2882,3.5085,3.6351,3.6798,3.7443,3.8022,3.8557,3.8605,3.8211,3.7483,3.7659,3.7433,3.6854,3.6873,3.6521,3.5872,3.6068,3.5704,3.4769,3.5467,3.6136,3.6698,3.7202,3.7201,3.671,3.6147,3.5481,3.4708,3.3226,3.2261,3.1804,3.0501,2.9697,2.9507,2.9502,2.9235,2.8685,3.0565,0.0,0.0,0.0,0.0,0.0,0.0,0.0,0.0,0.0,3.2308,3.3069,0.0,3.4049,0.0,3.3213,3.3596,3.4567,3.4816,0.0,0.0,3.6474,3.6866,3.6795,3.707,3.7143,3.6779,3.714,3.7413,3.731,3.7792,3.8213,3.8418,3.8408,3.852,3.9008,3.8558,3.8025,3.7983,3.7837,3.7578,3.7303,3.75,3.7841,3.8221,3.7977,3.7802,3.8191,3.7828,3.7465,3.7315,3.7389,3.7436,3.7346,3.7799,3.8284,3.8344,3.8571,3.9001,3.9926,4.0221,4.0611,3.8243,3.758,3.7944,3.73,3.6107,3.6114,3.6144,3.6118,3.5963,3.5652,3.5211,3.4238,3.3511,3.3228,3.4726,3.5233,3.5034,3.6551,3.7514,3.7989,3.8307,3.8694,3.9057,3.9147,3.8835,3.8173,3.8376,3.8098,3.7481,3.7534,3.7191,3.6449,3.7236,3.7207,3.6371,3.6718,3.7176,3.7749,3.766,3.7237,3.641,3.5951,3.5647,3.5435,3.365,3.2626,3.261,3.1228,3.0496,3.066,3.0492,3.0294,3.003,3.1233,3.1486,0.0,0.0,0.0,0.0,0.0,0.0,0.0,0.0,0.0,0.0,0.0,3.4376,3.4711,3.4331,3.451,3.5618,3.6039,3.6366,3.6763,3.7319,3.7547,3.7282,3.7699,3.7824,3.7262,3.78,3.8082,3.7723,3.8106,3.8379,3.8323,3.8308,3.8606,3.9282,3.8754,3.8142,3.839,3.7753,3.7134,3.6908,3.7059,3.738,3.777,3.7671,3.7607,3.7864,3.7643,3.7329,3.7255,3.7551,3.7864,3.7818,3.8415,3.9013,3.936,3.958,3.9923,4.0458,4.0632,4.0933,3.8756,3.8653,3.827,3.814,3.8133,3.8197,3.8092,3.7897,3.7656,3.6933,3.5853,3.5483,3.5503,3.5777,3.6294,3.6781,3.727,3.7944,3.845,3.8768,3.8872,3.8817,3.872,3.8859,3.8866,3.8679,3.8845,3.8651,3.8205,3.8435,3.8042,3.6987,3.7632,3.7973,3.7923,3.7973,3.8127,3.8396,3.7875,3.7178,3.6329,3.5864,3.5825,3.6183,3.4225,3.3145,3.3231,3.2061,3.1548,3.1808,3.1633,3.1595,3.1824,3.1821,3.1759,0.0,3.2,0.0,0.0,0.0,0.0,0.0,0.0,0.0,0.0,3.3273,3.4364,3.6071,3.559,3.5714,3.6991,3.7568,3.7831,3.7713,3.791,3.799,3.7821,3.8036,3.8091,3.7879,3.8223,3.8403,3.8159,3.8205,3.8148,3.8062,3.8048,3.8515,3.9606,3.875,3.8221,3.9468,3.8199,3.7048,3.6862,3.6892,3.7061,3.7305,3.7272,3.7226,3.7383,3.7242,3.718,3.7196,3.776,3.8245,3.8305,3.8982,3.9787,4.0198,4.0467,4.0769,4.1039,4.1024,4.1199,3.8516,3.8164,3.902,3.9322,3.9313,3.9822,3.9189,3.7926,3.8312,3.8077,3.7468,3.7263,3.6755,3.6138,3.724,3.7461,3.6994,3.8434,3.8956,3.8721,3.9271,3.9605,3.9729,3.9751,3.9643,3.9475,3.9496,3.9169,3.8523,3.8944,3.8608,3.764,3.8541,3.9064,3.915,0.0,0.0,0.0,3.8969,3.8824,3.8043,3.7148,3.6603,3.6332,3.3785,0.0,3.2176,3.1284,3.0787,3.0877,3.1263,0.0,0.0,0.0,0.0,0.0,0.0,0.0,0.0,0.0,0.0,0.0,3.4926,3.4414,3.4271,3.4775,3.5754,3.7196,3.662,3.6228,3.6535,3.6934,3.7186,3.7195,3.7794,3.8148,3.7917,3.8335,3.8427,3.7812,3.7825,3.7699,3.7296,3.7177,3.7281,3.752,3.755,3.7899,3.8708,3.8091,3.791,3.8684,3.8026,3.7281,3.7001,3.6847,3.7063,3.7731,3.7465,3.7279,3.7654,3.7326,3.6984,3.6892,3.7607,3.809,3.7496,3.8937,4.0261,3.9803,4.0609,4.1432,4.1513,4.1676,4.1885,3.861,0.0,3.9017,3.9247,0.0,3.9511,3.9282,3.8789,3.9456,3.9312,3.8586,3.8058,3.761,3.7368,3.8197,3.8323,3.7899,3.9056,3.9496,3.9469,3.9796,3.9999,4.0105,4.0105,3.988,3.9523,3.9496,3.9319,3.8984,3.9207,3.8913,3.8236,3.8935,3.9343,3.9524,3.9663,3.9292,3.8401,3.8849,3.8684,3.7923,3.7097,3.658,3.6344,3.419,0.0,0.0,0.0,0.0,0.0,0.0,0.0,0.0,3.4241,0.0,3.3535,3.4234,3.4667,3.4607,3.4537,3.4806,3.5471,3.5194,3.4963,3.4895,3.5303,3.5846,3.6501,3.6593,3.6666,3.6693,3.7438,3.7972,3.7906,3.8342,3.8573,3.8392,3.827,3.8119,3.779,3.7447,3.7193,3.6936,3.6906,3.6936,3.7043,3.7133,3.7369,3.7841,3.768,3.7569,3.7763,3.776,3.7419,3.6894,3.677,3.6847,3.7327,3.7141,3.7033,3.7281,3.7095,3.6831,3.6924,3.7873,3.8451,3.8089,3.9582,4.0893,4.0324,4.0862,4.1557,4.1605,4.1736,4.1834,3.8755,3.8661,3.8761,3.8867,3.8969,3.9018,3.9294,3.9756,0.0,0.0,0.0,3.832,3.8129,3.8493,3.8787,3.8918,3.8895,3.9462,3.9868,4.0119,4.0227,4.025,4.0142,4.0164,3.9911,3.9319,3.9319,3.9274,3.918,3.9274,3.9074,3.8692,3.9047,3.9384,3.9501,3.9951,3.9644,3.8613,3.8673,3.8376,3.7703,3.7018,3.6621,3.6627,3.4911,3.4037,3.4014,3.3165,3.289,3.33,3.3897,3.423,3.4261,3.4988,3.5153,3.4566,3.4715,3.4835,3.4879,3.5053,3.5231,3.5341,3.5399,3.5394,3.534,3.5567,3.5714,3.5756,3.6565,3.7068,3.7068,3.8126,3.8849,3.872,3.8733,3.8692,3.8553,3.8004,3.7537,3.7419,3.7028,3.6738,3.6615,3.66,3.6646,3.6569,3.6677,3.6909,3.728,3.753,3.7465,3.6987,3.7312,3.7435,3.6832,3.6647,3.6708,3.6754,3.6724,3.6662,3.6662,3.6677,3.6739,3.6892,3.8044,3.8513,3.8495,3.985,4.1083,4.0546,4.1051,4.1588,4.1588,4.1588,4.1605,3.8514,3.8133,3.8586,3.9107,3.9623,4.0058,4.0276,4.0202,3.9387,3.8938,3.8751,3.8158,3.7923,3.8015,3.8227,3.8429,3.8674,3.9184,3.9589,3.9872,4.0406,4.0353,3.9895,4.0096,3.9888,3.9346,3.9319,3.9096,3.8782,3.9118,3.9074,3.8715,3.9074,3.9301,3.9365,3.992,3.9857,3.9183,3.9552,3.9628,3.9355,3.8419,3.7757,3.7378,3.5803,3.4565,3.3871,3.352,3.3138,3.2687,3.2995,3.334,3.3649,3.4575,3.4881,3.4568,3.5074,3.5442,3.5531,3.5487,3.5674,3.6245,3.6582,3.6588,3.6256,3.6149,3.6416,3.7116,3.7506,3.7761,3.779,3.8183,3.8474,3.8436,3.8091,3.7874,3.786,3.7372,3.6906,3.6523,3.6352,3.6147,3.583,3.578,3.5814,3.5863,3.6148,3.6445,3.6971,3.7697,3.7822,3.708,3.725,3.7437,3.6987,3.677,3.6723,3.6708,3.66,3.6569,3.6538,3.66,3.6693,3.6754,3.767,3.7997,3.768,3.9188,4.0214,3.9961,4.0704,4.1557,4.1572,4.1555,4.1572,3.8809,3.889,3.9147,3.9595,4.016,4.072,4.0372,3.9496,3.9285,3.9024,3.8658,3.8135,3.79,3.7952,3.8644,3.8935,3.8902,3.9917,4.0345,4.0337,4.1066,4.092,4.0109,4.0471,4.0187,3.9346,3.9319,3.9158,3.9029,3.918,3.9207,3.9007,3.9528,3.964,3.9373,3.9911,3.9888,3.9319,3.9491,3.942,3.9005,3.8782,3.8281,3.7459,3.6664,3.6006,3.5396,3.5032,3.4633,3.408,3.4383,3.4567,3.4546,3.5163,3.5568,3.5568,3.5876,3.606,3.6153,3.6076,3.6168,3.6492,3.6986,3.7204,3.7123,3.684,3.6836,3.7283,3.7523,3.7685,3.7804,3.8076,3.8237,3.8051,3.7833,3.7582,3.7268,3.6814,3.6445,3.6211,3.5973,3.5748,3.5552,3.5489,3.5457,3.5492,3.572,3.6207,3.6954,3.7326,3.7357,3.6863,3.725,3.7374,3.6955,3.677,3.6677,3.66,3.6523,3.6523,3.6553,3.6801,3.7219,3.7421,3.8107,3.8419,3.8007,3.9345,3.9992,3.9724,4.0592,4.1413,4.1405,4.1321,4.1321,3.9442,3.9627,4.007,4.0491,4.09,4.1331,4.0514,3.9024,3.9392,3.9207,3.8527,3.8083,3.79,3.8004,3.8841,3.9168,3.9269,4.0309,4.0736,4.0696,4.1447,4.1213,4.0254,4.0657,4.035,3.94,3.9319,3.9247,3.9163,3.9249,3.9411,3.9546,4.0092,4.0078,3.9536,4.0106,4.0024,3.9373,3.9319,3.9102,3.864,3.8867,3.8579,3.7799,3.7677,3.7469,3.712,3.6667,3.6234,3.5868,3.5926,3.5963,3.5875,3.614,3.6448,3.6706,3.6722,3.663,3.6523,3.6552,3.6644,3.6722,3.7242,3.7675,3.7884,3.7592,3.7405,3.7573,3.7518,3.7588,3.8039,3.8095,3.8054,3.7875,3.7618,3.727,3.6815,3.6321,3.6053,3.6005,3.5732,3.5506,3.5473,3.547,3.5424,3.5394,3.5589,3.6186,3.7013,3.6925,3.677,3.7018,3.7313,3.7328,3.6847,3.6723,3.6647,3.6538,3.6661,3.6753,3.6877,3.7342,3.7763,3.7966,3.8498,3.8748,3.8667,3.9613,4.0166,3.9849,4.0652,4.1392,4.1201,4.1052,4.1018,4.0458,3.9933,4.1194,4.1982,4.1979,4.2056,4.1089,3.9601,3.9599,3.8974,3.8034,3.7926,3.79,3.79,3.8034,3.846,3.909,3.9556,3.9986,4.0387,4.0994,4.0766,3.9895,4.0155,3.9943,3.9351,3.9301,3.9137,3.8848,3.923,3.9687,4.0214,4.0746,4.0703,4.0241,4.0703,4.0435,3.9346,3.9319,3.9292,3.9183,3.8913,3.8794,3.8946,3.8747,3.8557,3.8337,3.7949,3.7543,3.7139,3.6583,3.6558,3.7122,3.7259,3.7308,3.7397,3.74,3.7153,3.6614,3.6743,3.703,3.7367,3.7689,3.8119,3.8626,3.8499,3.8502,3.8621,3.7963,3.7972,3.906,3.8463,3.7966,3.8127,3.7387,3.6677,3.6351,3.5846,3.557,3.5554,3.5658,3.5519,3.5623,3.5495,3.5451,3.5954,3.5995,3.6312,3.6906,3.7002,3.7157,3.756,3.7497,3.7187,3.7063,3.6831,3.6832,3.6692,3.703,3.7338,3.7493,3.7635,3.7809,3.8403,3.8404,3.8685,3.8967,3.9582,4.0434,4.0224,4.0662,4.1256,4.1134,4.095,4.0865,4.0013,3.9679,4.0426,4.1081,4.1613,4.1664,4.1063,4.0071,3.9732,3.9128,3.8324,3.773,3.7575,3.7926,3.824,3.8548,3.8903,3.9551,3.9794,3.9857,4.0532,4.0417,3.9604,4.0041,3.9945,3.9394,3.9408,3.9475,3.9668,4.0164,4.038,4.0322,4.0804,4.0951,4.0757,4.0951,4.0652,3.9861,3.9834,3.9644,3.9341,3.9273,3.9426,3.9581,3.9326,3.9324,3.9524,3.9113,3.8697,3.8426,3.7796,3.7572,3.7963,3.7627,3.7607,3.801,3.7849,3.7513,3.7072,3.7148,3.7335,3.7701,3.821,3.8706,3.9157,3.9157,3.9297,3.9584,3.8463,3.7779,3.7981,3.7599,3.7319,3.728,3.6755,3.6411,3.6404,3.619,3.6207,3.6537,3.6327,3.6237,3.646,3.6201,3.65,3.7304,3.7239,3.6955,3.795,3.8179,3.8152,3.8371,3.8278,3.8216,3.8091,3.7933,3.7742,3.7724,3.7876,3.8108,3.8171,3.8753,3.9165,3.9198,3.936,3.9535,3.9835,3.9929,4.0383,4.0329,4.0422,4.0817,4.0916,4.078,4.0783,3.9956,3.9851,3.9889,4.0542,4.1515,4.1384,4.1043,4.0594,4.0045,3.9416,3.8663,3.787,3.7658,3.7909,3.8179,3.8343,3.8572,3.9297,3.9585,3.9538,4.0241,4.0113,3.9371,3.9977,3.9956,3.9453,3.9599,4.001,4.0496,4.0717,4.0819,4.0788,4.1148,4.133,4.133,4.1358,4.1055,4.0513,4.0431,4.0241,3.9884,3.9801,3.9963,4.0167,3.9794,3.9992,4.0848,4.0167,3.9739,3.9721,3.9188,3.8903,3.8901,3.857,3.8443,3.8519,3.8085,3.7707,3.7537,3.7614,3.7889,3.8314,3.8892,3.9373,3.9682,3.9784,3.9907,3.9985,3.8806,3.7869,3.7932,3.753,3.725,3.7117,3.6818,3.6651,3.674,3.6763,3.6896,3.7285,3.6985,3.6806,3.7015,3.69,3.7191,3.777,3.7734,3.76,3.8704,3.8829,3.8898,3.9051,3.9163,3.8978,3.873,3.8273,3.8263,3.8292,3.8245,3.8522,3.8723,3.956,4.0024,3.9649,4.0208,4.0432,4.0259,4.0288,4.0455,4.0316,4.0391,4.0591,4.0712,4.0591,4.0741,4.0878,4.0367,4.0413,4.0994,4.2081,4.1517,4.1285,4.1092,4.0594,3.9732,3.8794,3.859,3.8327,3.786,3.7498,3.7514,3.8069,3.8598,3.91,3.9564,4.0047,3.9878,3.918,3.9905,3.9883,3.9256,3.9893,4.0513,4.1056,4.0748,4.0965,4.1948,4.1953,4.1951,4.1951,4.1978,4.1679,4.1113,4.1059,4.1005,4.0897,4.0454,4.0409,4.0785,4.0272,4.0619,4.1817,4.1024,4.0572,4.0998,4.0754,4.0531,4.0281,4.0547,4.0175,3.9018,3.8043,3.7627,3.7922,3.8244,3.8684,3.93,3.9651,4.0078,4.0299,4.0351,4.0166,3.963,3.9031,3.8906,3.9487,3.856,3.8138,3.8249,3.7828,3.7438,3.7362,3.7357,3.7375,3.7494,3.7507,3.7315,3.6746,3.7181,3.7215,3.7192,3.762,3.8383,3.8184,3.8531,3.9111,3.9548,3.9655,3.931,3.8117,3.8283,3.8031,3.8108,3.8738,3.8799,3.9235,3.9658,3.9825,4.0005,4.0198,4.0376,4.041,4.0532,4.0724,4.0693,4.0492,4.0574,4.0824,4.0618,4.0891,3.9889,3.938,3.9394,3.989,4.0589,4.0721,4.0798,4.0794,4.0522,3.9797,3.881,3.842,3.7969,3.7435,3.7599,3.7939,3.8428,3.864,3.8929,3.928,3.9451,3.9282,3.8947,3.9353,3.9486,3.934,4.0019,4.0715,4.1239,4.1683,4.201,4.2091,4.2397,4.2575,4.2575,4.2575,4.2276,4.1761,4.1679,4.1517,4.1141,4.0892,4.1108,4.1732,4.0647,4.0709,4.226,4.1853,4.1835,4.2275,4.2142,4.1863,4.1596,4.1199,4.0643,3.989,3.9511,3.9265,3.9187,3.9475,3.9685,3.9782,3.9929,4.0169,4.0418,4.0474,4.0382,4.0153,3.9937,3.9885,3.9347,3.827,3.7429,3.7597,3.7463,3.7476,3.7786,3.7993,3.8182,3.8554,3.8585,3.8369,3.8095,3.8241,3.8482,3.8825,3.9071,3.9168,3.9448,3.9812,4.0001,3.9965,4.016,3.9998,3.8686,3.9146,3.9445,3.9353,3.9537,3.9599,3.991,3.9812,3.9949,4.0372,4.0501,4.0551,4.0666,4.0613,4.0848,4.0694,4.0539,4.0693,4.1107,4.0984,4.1494,3.9032,3.8599,3.8552,3.9096,3.9924,4.0159,4.0568,4.0951,4.0609,3.9916,3.9084,3.8489,3.8139,3.8009,3.8185,3.8778,3.9399,3.9016,3.8929,3.9224,3.9177,3.8985,3.8817,3.9146,3.9323,3.955,4.0719,4.1576,4.2101,4.3025,4.3253,4.293,4.3118,4.3196,4.3169,4.3033,4.2656,4.2358,4.2276,4.2086,4.1683,4.1466,4.1688,4.2082,4.1095,4.1029,4.2306,4.2266,4.236,4.2735,4.2802,4.2713,4.2428,4.1644,4.09,4.0498,4.0479,4.0509,4.0378,4.0696,4.0873,4.0822,4.0632,4.0646,4.0795,4.0628,4.0505,4.0474,4.0259,3.9921,3.9299,3.8124,3.7357,3.7511,3.7606,3.7825,3.8329,3.8543,3.8788,3.8984,3.8909,3.8871,3.8917,3.8913,3.9152,3.9835,3.9753,4.0013,4.0139,4.0365,4.0426,4.013,4.0257,4.0077,3.948,3.9739,3.9797,3.9736,3.9661,3.9907,4.017,4.0059,4.0144,4.0628,4.0848,4.0913,4.0896,4.0797,4.0677,4.0539,4.0522,4.0614,4.1014,4.1401,4.1832,3.8527,3.8123,3.8024,3.9002,4.0145,4.005,4.0696,4.1722,4.0977,4.0208,3.9596,3.907,3.9019,3.9317,3.901,3.9713,4.068,3.9637,3.9212,3.9571,3.9472,3.9221,3.8998,3.9568,3.9954,4.0082,4.1949,4.3197,4.3667,4.423,4.4501,4.4474,4.4011,4.3794,4.3794,4.3359,4.3006,4.2925,4.2925,4.287,4.2843,4.2276,4.21,4.2285,4.173,4.1768,4.2497,4.2273,4.2353,4.2573,4.2937,4.301,4.2776,4.1979,4.1213,4.0868,4.0811,4.1022,4.1365,4.1749,4.2157,4.218,4.1937,4.1533,4.1507,4.0984,4.0597,4.0584,4.0057,3.9555,3.9366,3.8769,3.8341,3.8465,3.8433,3.8645,3.8909,3.9042,3.9017,3.887,3.8723,3.8586,3.8799,3.9143,3.9337,3.9259,3.9753,4.0211,3.9866,3.9969,4.0017,3.9939,4.0034,3.9969,4.0078,4.0186,3.9948,3.9736,3.963,3.9722,4.0153,4.0238,4.0228,4.0571,4.066,4.0694,4.0694,4.0626,4.0763,4.0676,4.0614,4.0768,4.1261,4.1709,4.1832,3.9056,3.8623,3.896,3.9148,3.9473,4.0367,4.1149,4.1544,4.1158,4.0747,4.0235,3.9677,3.95,3.9724,3.985,4.0692,4.1745,4.0543,3.9978,4.0156,4.0465,4.0329,4.0172,4.0937,4.1801,4.2525,4.3248,4.3889,4.4372,4.4637,4.4719,4.4637,4.4529,4.442,4.442,4.4203,4.3959,4.3549,4.3522,4.3332,4.2952,4.2711,4.265,4.2695,4.2699,4.2732,4.2667,4.3195,4.3523,4.3616,4.4368,4.4228,4.3087,4.2393,4.1869,4.1479,4.1714,4.1908,4.2062,4.2659,4.2935,4.2676,4.2399,4.2294,4.2214,4.1661,4.1278,4.1217,4.0597,4.0013,3.9505,3.9218,3.8893,3.8341,3.8464,3.8631,3.8705,3.8815,3.8852,3.8833,3.887,3.9055,3.9331,3.9654,3.9768,3.9801,4.0228,4.0299,3.9978,3.9868,3.9702,3.9331,3.9583,3.9849,3.9856,4.0047,4.0173,3.9996,3.9876,3.9814,4.0214,4.0337,4.0358,4.0406,4.0478,4.0522,4.0505,4.0628,4.083,4.0922,4.0953,4.1291,4.1814,4.214,4.2325,3.9417,3.9176,3.9712,3.9731,3.955,4.0779,4.1307,4.1286,4.1081,4.0722,4.0236,3.9877,3.9827,4.0033,4.0338,4.1132,4.2009,4.1153,4.0701,4.063,4.0561,4.0575,4.0686,4.1893,4.2866,4.3723,4.4296,4.4711,4.5044,4.5261,4.537,4.537,4.5153,4.5017,4.499,4.48,4.4474,4.4122,4.3902,4.3712,4.3497,4.3118,4.3006,4.3193,4.3179,4.3095,4.2972,4.3853,4.4378,4.4475,4.5033,4.469,4.3492,4.288,4.2317,4.2059,4.2377,4.2731,4.274,4.3453,4.3821,4.3402,4.3094,4.2989,4.2848,4.2355,4.1986,4.1894,4.1568,4.0868,4.0046,4.0026,3.9676,3.8674,3.8516,3.8512,3.8501,3.8594,3.8631,3.8649,3.8778,3.9144,3.9487,3.9857,4.0104,4.0418,4.0505,4.0383,4.0099,3.9857,3.9403,3.9055,3.9175,3.9373,3.9488,3.9825,4.0301,4.0251,4.0184,4.0214,4.0399,4.0337,4.0293,4.0416,4.0522,4.0522,4.0505,4.0891,4.1137,4.1199,4.1414,4.1845,4.2386,4.2756,4.302,3.9681,3.974,4.0318,4.0539,4.0523,4.1254,4.1647,4.1435,4.0951,4.0593,4.0233,3.9876,4.0026,4.0433,4.0542,4.1054,4.1795,4.1509,4.1227,4.0985,4.0525,4.0327,4.1336,4.2757,4.365,4.4092,4.5088,4.5562,4.5668,4.6101,4.6481,4.6318,4.5884,4.5667,4.5585,4.5098,4.4881,4.4691,4.4255,4.4255,4.4503,4.3503,4.3175,4.3636,4.3199,4.2994,4.3321,4.421,4.4729,4.4747,4.4978,4.4841,4.4217,4.3316,4.2634,4.2327,4.2949,4.321,4.3457,4.401,4.4468,4.4344,4.3913,4.3655,4.3544,4.3063,4.2663,4.2663,4.2491,4.1894,4.0877,4.0883,4.0577,3.9498,3.8974,3.8748,3.8581,3.8581,3.862,3.8554,3.8671,3.9076,3.9619,3.999,4.0296,4.0401,4.0505,4.0331,3.9993,3.9691,3.9331,3.9185,3.9221,3.948,3.9787,4.0079,4.0497,4.0391,4.0368,4.043,4.0491,4.0399,4.0522,4.0614,4.0659,4.0597,4.0843,4.1384,4.1771,4.2017,4.2263,4.254,4.2848,4.3205,4.339,4.0547,4.0319,4.1272,4.1434,4.1306,4.2582,4.3171,4.3049,4.2111,4.2007,4.2187,4.0564,4.0257,4.1,4.0638,4.0836,4.1336,4.1312,4.1508,4.171,4.1144,4.1951,4.3441,4.4652,4.5339,4.5681,4.6052,4.6264,4.6291,4.6481,4.6536,4.6509,4.6346,4.6237,4.6184,4.6047,4.5775,4.5424,4.5234,4.4908,4.4612,4.3787,4.3361,4.3415,4.2957,4.2879,4.3355,4.4578,4.5377,4.5529,4.5269,4.4973,4.4552,4.3812,4.3293,4.3246,4.3258,4.3498,4.3851,4.4285,4.4572,4.4591,4.4406,4.4363,4.4332,4.3728,4.339,4.3267,4.294,4.2242,4.143,4.1294,4.0865,4.011,3.977,3.9518,3.914,3.9004,3.908,3.9354,3.9728,4.0098,4.0492,4.0852,4.0997,4.0699,4.0497,4.0336,4.0004,3.9853,3.9687,3.9587,3.9641,3.9936,4.0254,4.0523,4.0634,4.0493,4.0505,4.0553,4.0584,4.0491,4.083,4.1168,4.1137,4.1107,4.1691,4.2276,4.2571,4.2743,4.2817,4.2971,4.3236,4.3562,4.3575,4.0923,4.0909,4.1749,4.1846,4.162,4.2936,4.3533,4.3361,4.2632,4.2526,4.2655,4.1258,4.0717,4.1226,4.0907,4.0914,4.1221,4.1213,4.1401,4.1692,4.1964,4.2884,4.431,4.5527,4.6463,4.6889,4.7106,4.7215,4.7161,4.6997,4.6889,4.6834,4.6617,4.6509,4.6481,4.6481,4.6346,4.5993,4.575,4.5478,4.5397,4.4305,4.4015,4.383,4.327,4.2903,4.3362,4.4205,4.5115,4.5764,4.5529,4.5145,4.5234,4.4406,4.3914,4.3918,4.3948,4.4086,4.4037,4.4393,4.4572,4.4591,4.4591,4.4591,4.4529,4.4221,4.4024,4.3944,4.3618,4.2919,4.1986,4.1504,4.1204,4.1002,4.0931,4.0554,3.9712,3.9567,3.978,4.0163,4.058,4.0972,4.1389,4.1783,4.1641,4.1232,4.0886,4.0565,4.0173,4.0144,4.0127,4.0013,3.9993,4.0274,4.0575,4.0883,4.1213,4.1069,4.1168,4.1137,4.1014,4.0935,4.1142,4.1479,4.1563,4.1814,4.2345,4.2836,4.3094,4.3236,4.3279,4.3494,4.3821,4.387,4.3882,4.108,4.1501,4.198,4.2005,4.19,4.2725,4.3326,4.3127,4.2736,4.2502,4.234,4.1668,4.122,4.1274,4.1054,4.1084,4.1086,4.1149,4.1262,4.1724,4.2463,4.351,4.4341,4.5809,4.6812,4.7433,4.8002,4.8083,4.7921,4.7622,4.7432,4.7242,4.6834,4.6563,4.6536,4.6509,4.6509,4.6373,4.602,4.5941,4.5917,4.493,4.4401,4.4457,4.3711,4.321,4.3366,4.3752,4.4518,4.6151,4.5396,4.5464,4.5951,4.4991,4.463,4.4644,4.4851,4.4719,4.45,4.4818,4.4899,4.496,4.496,4.4806,4.4929,4.4837,4.4714,4.4714,4.4622,4.3793,4.2698,4.1794,4.1598,4.1785,4.1947,4.1453,4.0641,4.0234,4.0402,4.0899,4.1303,4.1663,4.2056,4.2334,4.2414,4.1425,4.1158,4.0815,4.0583,4.0571,4.0499,4.037,4.0437,4.0547,4.09,4.1247,4.1599,4.1791,4.2045,4.2078,4.1894,4.1779,4.1648,4.1765,4.2126,4.2432,4.2744,4.3137,4.3475,4.379,4.3913,4.4221,4.4498,4.4344,4.4314,4.1394,4.1206,4.2229,4.2519,4.2501,4.3504,4.4135,4.4277,4.3729,4.3436,4.3182,4.1959,4.1347,4.1274,4.0884,4.0587,4.0801,4.114,4.1379,4.1919,4.2539,4.3844,4.4999,4.624,4.7181,4.7893,4.8137,4.8219,4.8219,4.8165,4.7839,4.7486,4.7323,4.697,4.659,4.6536,4.6509,4.6481,4.6346,4.6215,4.6005,4.5232,4.457,4.4493,4.3907,4.3649,4.3687,4.4065,4.4303,4.4406,4.4949,4.5521,4.5881,4.5376,4.5317,4.5872,4.5584,4.5475,4.5896,4.5971,4.6142,4.6018,4.5988,4.6192,4.6111,4.5638,4.5422,4.5299,4.491,4.4289,4.3319,4.2692,4.2374,4.2262,4.2237,4.2063,4.1657,4.1192,4.1222,4.1764,4.2055,4.2305,4.2618,4.2694,4.2436,4.1674,4.1287,4.1075,4.1024,4.0989,4.0948,4.083,4.1094,4.1255,4.136,4.1754,4.2215,4.2568,4.2842,4.3033,4.2848,4.2597,4.2493,4.259,4.2835,4.3053,4.3005,4.3415,4.3758,4.4129,4.438,4.4453,4.4477,4.4515,4.4745,4.1158,4.1238,4.2238,4.2643,4.2907,4.398,4.4728,4.4901,4.4225,4.3904,4.3565,4.2305,4.1679,4.1643,4.1076,4.0912,4.1249,4.1706,4.2091,4.2463,4.2982,4.4105,4.5494,4.6475,4.7354,4.8458,4.8812,4.903,4.9221,4.8813,4.8515,4.849,4.7866,4.7295,4.6889,4.6644,4.6671,4.6807,4.6644,4.6432,4.6276,4.5581,4.4705,4.423,4.394,4.3777,4.3601,4.3924,4.3947,4.3952,4.453,4.5395,4.6061,4.5984,4.6334,4.6881,4.67,4.6295,4.6556,4.6524,4.6453,4.6634,4.6603,4.6603,4.6573,4.6234,4.6111,4.5988,4.5714,4.5194,4.4308,4.3248,4.2886,4.3018,4.2984,4.2847,4.2519,4.1968,4.1784,4.2366,4.2476,4.2742,4.2927,4.2973,4.2779,4.2148,4.1644,4.141,4.1449,4.1434,4.1452,4.1482,4.1802,4.1962,4.2003,4.2347,4.2906,4.3289,4.3657,4.3826,4.3852,4.3572,4.3285,4.3282,4.3179,4.302,4.3065,4.3524,4.3734,4.3821,4.3966,4.4189,4.4438,4.4625,4.4913,4.1012,4.1443,4.2286,4.2778,4.3173,4.4212,4.5109,4.5529,4.4405,4.3895,4.3659,4.2622,4.1954,4.1789,4.1406,4.1514,4.1971,4.2452,4.2693,4.2934,4.3253,4.456,4.5961,4.6823,4.7831,4.9182,4.9344,4.9803,5.0108,4.97,4.935,4.9601,4.8626,4.7785,4.7377,4.6969,4.6807,4.6997,4.6862,4.6677,4.6733,4.6142,4.5421,4.4543,4.4332,4.4019,4.3781,4.3853,4.392,4.3733,4.4272,4.5047,4.5728,4.6381,4.7005,4.7435,4.7218,4.7139,4.7027,4.6884,4.6833,4.6891,4.6942,4.6973,4.7004,4.688,4.6757,4.6625,4.6403,4.593,4.5306,4.4175,4.3661,4.3768,4.395,4.3718,4.3195,4.2636,4.2485,4.2548,4.2662,4.2782,4.2962,4.3031,4.2891,4.267,4.2118,4.1762,4.1811,4.1822,4.1785,4.1785,4.1997,4.2269,4.2338,4.2392,4.3021,4.3413,4.3918,4.4044,4.4201,4.383,4.3359,4.3391,4.3276,4.307,4.2932,4.317,4.3319,4.3389,4.3778,4.4235,4.4496,4.4698,4.5117,4.1804,4.1661,4.2834,4.3419,4.3579,4.4361,4.5339,4.5967,4.4596,4.3887,4.363,4.2634,4.1821,4.1455,4.1311,4.1514,4.214,4.2717,4.3102,4.3361,4.3686,4.4822,4.6637,4.7283,4.8446,4.9761,4.9823,4.9807,5.0443,5.0311,5.0128,5.0006,4.963,4.887,4.7839,4.7242,4.7024,4.7052,4.7079,4.7028,4.6812,4.6754,4.6373,4.5326,4.5166,4.4723,4.415,4.4256,4.4251,4.3746,4.4627,4.5035,4.5246,4.5585,4.6299,4.704,4.7352,4.7443,4.773,4.7884,4.8029,4.8204,4.8142,4.8153,4.8081,4.7773,4.7496,4.7159,4.658,4.5869,4.5366,4.463,4.4227,4.4137,4.4081,4.3972,4.3682,4.3226,4.2731,4.2702,4.2711,4.2627,4.2648,4.2668,4.2526,4.2392,4.2126,4.193,4.1962,4.1976,4.1976,4.2005,4.2063,4.2331,4.2557,4.2609,4.2911,4.316,4.3476,4.3565,4.3634,4.3497,4.3339,4.3259,4.314,4.2921,4.29,4.2929,4.3197,4.3465,4.3936,4.4398,4.4739,4.5081,4.5485,4.142,4.1314,4.2583,4.337,4.384,4.4716,4.5649,4.6152,4.4692,4.3723,4.3209,4.2492,4.1745,4.1388,4.1538,4.2014,4.2735,4.3306,4.3721,4.3931,4.4312,4.5066,4.6909,4.7417,4.8493,4.9447,4.9561,5.0061,5.0981,5.08,5.0842,5.0943,5.0465,4.9549,4.8681,4.7812,4.754,4.7351,4.7405,4.7352,4.7106,4.7259,4.6709,4.6247,4.5766,4.5323,4.5013,4.481,4.4705,4.4384,4.4844,4.505,4.5145,4.5402,4.6026,4.6829,4.7279,4.7666,4.8154,4.8239,4.8219,4.8511,4.8583,4.8583,4.8522,4.8276,4.8112,4.7794,4.6902,4.6214,4.6322,4.5376,4.4771,4.4613,4.4509,4.4247,4.3811,4.3402,4.3084,4.2701,4.2498,4.2328,4.2022,4.2042,4.2084,4.2022,4.1989,4.2009,4.203,4.2092,4.2092,4.2092,4.2092,4.2274,4.2541,4.2693,4.2901,4.3136,4.3288,4.3349,4.3309,4.3338,4.3189,4.307,4.291,4.2944,4.2682,4.2696,4.3143,4.364,4.4101,4.4564,4.5069,4.5495,4.5934,4.1153,4.1307,4.2505,4.3443,4.4279,4.5016,4.5979,4.6302,4.4577,4.3612,4.3234,4.2351,4.1728,4.1625,4.2067,4.2735,4.3553,4.4003,4.4244,4.4285,4.4604,4.5317,4.6419,4.7371,4.8469,4.9595,5.0132,5.0725,5.1262,5.117,5.1456,5.1537,5.0781,5.0113,4.9599,4.8653,4.83,4.7948,4.7812,4.7677,4.7698,4.7436,4.6989,4.6684,4.6184,4.5898,4.559,4.5467,4.5289,4.5102,4.5203,4.5298,4.5287,4.5578,4.6076,4.6629,4.7143,4.7666,4.7986,4.8112,4.8175,4.8459,4.8563,4.8583,4.8583,4.8522,4.848,4.8263,4.7413,4.6608,4.667,4.5793,4.512,4.4966,4.4904,4.4663,4.398,4.3499,4.3206,4.2817,4.2396,4.2059,4.1845,4.1438,4.1459,4.1585,4.1522,4.176,4.1822,4.2051,4.2092,4.2092,4.2121,4.2237,4.2461,4.2722,4.3019,4.3365,4.3511,4.3614,4.3466,4.3328,4.3239,4.3278,4.3254,4.3253,4.2856,4.2789,4.3473,4.403,4.432,4.4865,4.5556,4.6071,4.6454,4.2313,4.2637,4.3364,4.4383,4.534,4.5199,4.6245,4.7398,4.4546,4.373,4.4113,4.2327,4.1552,4.2019,4.2856,4.3337,4.3643,4.4027,4.4316,4.4333,4.4508,4.5389,4.677,4.7602,4.8913,5.003,5.0919,5.1285,5.1439,5.1345,5.1414,5.169,5.1722,5.1226,4.9988,4.9598,4.9195,4.8408,4.8164,4.8161,4.817,4.8026,4.7712,4.7336,4.7022,4.6715,4.6202,4.6051,4.5899,4.5874,4.5873,4.5787,4.5715,4.6238,4.6105,4.6161,4.6486,4.7193,4.7654,4.797,4.8122,4.8395,4.848,4.8563,4.85,4.8438,4.8343,4.807,4.7366,4.6891,4.6499,4.566,4.5212,4.4874,4.4625,4.4439,4.4032,4.3421,4.3162,4.2952,4.2514,4.2103,4.1777,4.128,4.0865,4.0993,4.1142,4.1453,4.182,4.2236,4.2469,4.2586,4.2644,4.2731,4.2839,4.3044,4.3261,4.3619,4.3733,4.3817,4.37,4.3612,4.3749,4.3765,4.3743,4.3677,4.3462,4.3573,4.4088,4.4443,4.4778,4.5464,4.6292,4.6652,4.6759,4.1713,4.2185,4.3058,4.4049,4.5036,4.5334,4.6312,4.6881,4.4738,4.3718,4.374,4.211,4.1658,4.2501,4.3216,4.3673,4.3931,4.4196,4.4285,4.4436,4.4659,4.5566,4.6893,4.8001,4.9267,5.0415,5.122,5.1497,5.1504,5.1663,5.1843,5.1918,5.2051,5.1776,5.0612,5.0538,5.0109,4.9539,4.9186,4.8909,4.8725,4.8536,4.8242,4.7806,4.749,4.7219,4.7024,4.6852,4.6673,4.6625,4.6651,4.6567,4.6234,4.6338,4.6305,4.628,4.6765,4.7211,4.7459,4.8123,4.8371,4.8351,4.8427,4.848,4.8322,4.8007,4.7816,4.7624,4.6858,4.6373,4.6046,4.5247,4.4671,4.4298,4.4134,4.3879,4.3662,4.3432,4.3015,4.2838,4.266,4.2284,4.2001,4.1865,4.1445,4.1234,4.1538,4.1953,4.2474,4.3052,4.3253,4.3311,4.3369,4.3398,4.3485,4.3637,4.3687,4.392,4.392,4.4013,4.3949,4.3964,4.4182,4.4298,4.4276,4.4189,4.4059,4.4269,4.464,4.493,4.522,4.5858,4.6395,4.624,4.6337,4.1399,4.1836,4.2621,4.3723,4.4967,4.5527,4.624,4.6749,4.4754,4.3704,4.3283,4.2248,4.2164,4.2934,4.3505,4.3955,4.4292,4.4316,4.4316,4.4484,4.4963,4.5792,4.6992,4.8201,4.9394,5.062,5.1283,5.157,5.1664,5.1788,5.1886,5.2001,5.2093,5.1873,5.1556,5.1207,5.0768,5.0057,4.9649,4.9211,4.8767,4.8587,4.83,4.7998,4.7788,4.7725,4.7827,4.7706,4.7425,4.7352,4.7109,4.6946,4.6751,4.652,4.6401,4.6472,4.6991,4.7242,4.7548,4.8082,4.8615,4.858,4.8198,4.8028,4.7572,4.7184,4.6792,4.6638,4.6151,4.5679,4.5316,4.4648,4.4181,4.3804,4.3566,4.3259,4.3018,4.3009,4.2978,4.289,4.2722,4.2522,4.2403,4.2505,4.219,4.1658,4.1862,4.2387,4.2919,4.3488,4.356,4.3567,4.3783,4.387,4.4153,4.4233,4.4291,4.4349,4.4378,4.4465,4.4589,4.4669,4.4814,4.4872,4.4843,4.4959,4.4959,4.5075,4.5162,4.5395,4.5614,4.5982,4.6269,4.612,4.6243,4.2093,4.2279,4.2514,4.3946,4.6005,4.5618,4.583,4.6373,4.4583,4.3447,4.295,4.2807,4.291,4.3433,4.3883,4.422,4.4316,4.4316,4.4316,4.4484,4.4931,4.5942,4.7143,4.8384,4.9457,5.0529,5.1153,5.146,5.157,5.1528,5.1611,5.1664,5.1993,5.1703,5.1557,5.1512,5.1082,5.0428,4.9937,4.9155,4.8558,4.8224,4.81,4.7788,4.8121,4.8462,4.8216,4.8136,4.804,4.7919,4.7487,4.7083,4.6973,4.6699,4.6517,4.6477,4.7203,4.7327,4.7324,4.8158,4.8849,4.8655,4.8059,4.74,4.6845,4.6218,4.5785,4.5475,4.515,4.4897,4.4509,4.4017,4.3638,4.3471,4.3283,4.3115,4.2973,4.2946,4.2919,4.2898,4.2792,4.2656,4.2626,4.2735,4.2527,4.1952,4.2149,4.2636,4.2921,4.3393,4.3497,4.3629,4.395,4.4255,4.4734,4.4901,4.4959,4.5104,4.522,4.5366,4.5569,4.5569,4.5337,4.5453,4.5482,4.5685,4.5772,4.5627,4.5569,4.5772,4.5985,4.62,4.64,4.642,4.6751,4.1192,4.2855,4.234,4.3499,4.5627,4.5077,4.5422,4.5948,4.418,4.2901,4.2418,4.2927,4.3313,4.3619,4.4051,4.4316,4.4316,4.4316,4.434,4.467,4.5313,4.6444,4.7645,4.88,4.9896,5.0602,5.1033,5.11,5.1073,5.1204,5.1387,5.1585,5.1934,5.1798,5.1707,5.1729,5.1463,5.1129,5.0608,5.0013,4.9106,4.8688,4.846,4.7992,4.8047,4.8469,4.8488,4.8493,4.8377,4.8174,4.7828,4.7456,4.7055,4.6813,4.6537,4.6348,4.7244,4.7349,4.7218,4.8143,4.8862,4.845,4.7718,4.6853,4.6247,4.5745,4.5239,4.4818,4.4397,4.4195,4.3922,4.3522,4.3163,4.3115,4.3097,4.3058,4.3006,4.3033,4.2925,4.29,4.29,4.2843,4.287,4.2867,4.2593,4.2308,4.2593,4.2831,4.3097,4.3432,4.3647,4.3901,4.426,4.4613,4.5085,4.5348,4.5553,4.5653,4.5776,4.5708,4.564,4.5866,4.5721,4.5888,4.5895,4.5917,4.5917,4.5917,4.5917,4.5917,4.6005,4.6137,4.6366,4.6683,4.7167,4.1114,4.2848,4.2301,4.3142,4.4755,4.4732,4.4838,4.4928,4.3796,4.2896,4.2501,4.3216,4.3595,4.3811,4.41,4.4316,4.4388,4.4484,4.4556,4.5095,4.6026,4.7189,4.8322,4.9379,5.0378,5.0866,5.1021,5.11,5.1152,5.1047,5.1282,5.158,5.1783,5.1752,5.1721,5.1788,5.1852,5.1654,5.1223,5.0706,4.9673,4.9419,4.8881,4.844,4.8501,4.8621,4.869,4.8645,4.8627,4.8454,4.8163,4.7765,4.7344,4.692,4.6705,4.6776,4.6943,4.7357,4.7531,4.7989,4.8519,4.8046,4.7281,4.6502,4.589,4.5268,4.4566,4.4319,4.387,4.3674,4.3674,4.3606,4.3677,4.384,4.3813,4.3715,4.3413,4.3332,4.3115,4.2979,4.2952,4.2925,4.2925,4.2925,4.2807,4.2569,4.2684,4.2912,4.3057,4.3473,4.3985,4.4268,4.4624,4.5012,4.5361,4.5212,4.5041,4.5024,4.5138,4.523,4.5276,4.5584,4.572,4.5601,4.5675,4.5943,4.6156,4.633,4.6179,4.5976,4.615,4.6359,4.6637,4.6991,4.7497,4.235,4.2342,4.2514,4.3133,4.4008,4.468,4.4082,4.3261,4.3424,4.3519,4.3319,4.3523,4.3811,4.4148,4.4292,4.4316,4.4436,4.4772,4.5013,4.537,4.6802,4.794,4.8932,4.99,5.0835,5.1393,5.1387,5.1282,5.1413,5.1309,5.1439,5.157,5.1659,5.1659,5.1596,5.1596,5.1627,5.1523,5.1109,5.0586,5.0088,4.9901,4.9352,4.8858,4.8901,4.9021,4.884,4.8658,4.8642,4.8625,4.8195,4.7991,4.8037,4.7127,4.6998,4.7459,4.6705,4.6732,4.7296,4.7863,4.7906,4.7606,4.6948,4.627,4.5467,4.4678,4.4152,4.4242,4.3966,4.3892,4.4006,4.4201,4.4364,4.4393,4.4339,4.4257,4.3904,4.3766,4.3579,4.3305,4.306,4.2952,4.2925,4.2925,4.2925,4.2867,4.287,4.2967,4.3078,4.3436,4.3965,4.4228,4.4509,4.4723,4.4885,4.4658,4.4513,4.4467,4.4612,4.4831,4.498,4.5233,4.5321,4.5304,4.5821,4.638,4.6657,4.6882,4.6737,4.6644,4.654,4.6743,4.6975,4.7375,4.7956,4.1901,4.2618,4.2607,4.2673,4.2708,4.2436,4.263,4.3247,4.3479,4.3542,4.3608,4.3835,4.4069,4.4261,4.4316,4.434,4.4405,4.4845,4.5109,4.5435,4.7393,4.8319,4.9223,5.0287,5.119,5.109,5.1073,5.1152,5.1021,5.1178,5.1361,5.1492,5.1596,5.1596,5.1596,5.1596,5.1596,5.157,5.1361,5.1104,5.0551,5.0446,5.0106,4.9322,4.9366,4.919,4.8901,4.8668,4.8489,4.8577,4.8061,4.8074,4.8039,4.7214,4.7302,4.75,4.6972,4.7623,4.792,4.8105,4.7743,4.7319,4.6852,4.6247,4.5573,4.5253,4.4825,4.4501,4.4393,4.4393,4.4501,4.4529,4.4637,4.461,4.4583,4.4583,4.442,4.4366,4.423,4.3821,4.3522,4.3278,4.3145,4.328,4.328,4.3223,4.3251,4.3006,4.2991,4.3324,4.3729,4.3899,4.4139,4.4326,4.4378,4.4167,4.4227,4.433,4.4499,4.4715,4.4847,4.503,4.5378,4.559,4.6253,4.6918,4.7216,4.7462,4.7462,4.7399,4.7195,4.7219,4.7521,4.7985,4.8571,4.1438,4.2086,4.2132,4.2023,4.1861,4.1848,4.2598,4.3503,4.3542,4.3601,4.3811,4.4172,4.4316,4.4316,4.4316,4.4484,4.4604,4.5133,4.5614,4.5933,4.8008,4.8885,4.966,5.061,5.1257,5.1126,5.1073,5.1126,5.1178,5.11,5.1282,5.1544,5.1596,5.1596,5.1596,5.1596,5.1596,5.1596,5.1492,5.1413,5.1126,5.0969,5.076,5.0185,4.977,4.9326,4.9012,4.859,4.8172,4.8198,4.8149,4.8073,4.7875,4.7615,4.7655,4.7698,4.7812,4.8185,4.8109,4.8161,4.7893,4.7695,4.7102,4.6671,4.6156,4.5803,4.5423,4.5098,4.5044,4.5017,4.5017,4.5044,4.5261,4.5288,4.5343,4.5343,4.5071,4.5044,4.48,4.4391,4.4038,4.3742,4.3552,4.3633,4.3769,4.366,4.3579,4.3332,4.306,4.3324,4.3588,4.3712,4.3728,4.38,4.382,4.3717,4.3851,4.4161,4.4343,4.4554,4.4844,4.508,4.5504,4.5972,4.6704,4.7357,4.7817,4.8037,4.7901,4.7785,4.7638,4.7767,4.8048,4.8542,4.9074,4.1152,4.0908,4.1183,4.1359,4.1558,4.2611,4.3312,4.3535,4.3529,4.3835,4.4261,4.4292,4.4316,4.4316,4.4316,4.4532,4.4989,4.5517,4.5974,4.6859,4.8318,4.901,4.981,5.0695,5.1174,5.1419,5.1486,5.1413,5.1544,5.1465,5.1518,5.1596,5.1596,5.1596,5.1596,5.1596,5.1596,5.1596,5.1596,5.1544,5.1413,5.1465,5.1204,5.0734,5.0263,4.9714,4.9274,4.8721,4.8355,4.8224,4.8172,4.8376,4.8276,4.782,4.8092,4.8282,4.8274,4.8209,4.8151,4.8281,4.8426,4.8355,4.7839,4.754,4.716,4.6564,4.6211,4.5966,4.5857,4.5748,4.5667,4.6047,4.64,4.6454,4.6482,4.6265,4.5884,4.564,4.5343,4.5017,4.4664,4.442,4.4366,4.4393,4.4339,4.4203,4.4094,4.3877,4.3633,4.3443,4.3636,4.3585,4.3527,4.3294,4.3315,4.37,4.3861,4.4337,4.4269,4.4406,4.4743,4.5198,4.5593,4.6187,4.7077,4.7718,4.8085,4.821,4.8187,4.8086,4.8128,4.8086,4.8316,4.8837,4.9304,4.1692,4.1414,4.1754,4.1754,4.1623,4.2233,4.2888,4.3492,4.3883,4.4165,4.4316,4.4316,4.4316,4.4316,4.4316,4.4405,4.4845,4.5373,4.583,4.6827,4.8068,4.8599,4.9339,5.0206,5.0747,5.1094,5.1314,5.1596,5.1596,5.1596,5.1596,5.1596,5.1596,5.1596,5.1596,5.1596,5.1596,5.1596,5.1596,5.1596,5.1596,5.1596,5.1439,5.1204,5.0734,5.0185,4.9662,4.9139,4.8721,4.8303,4.8224,4.8315,4.8233,4.8073,4.8181,4.8292,4.8408,4.8568,4.8727,4.9008,4.9181,4.9192,4.8897,4.8409,4.8029,4.7595,4.7161,4.6862,4.6726,4.6644,4.6537,4.6807,4.7079,4.716,4.7215,4.7106,4.6753,4.6481,4.6156,4.556,4.5207,4.5126,4.5044,4.5017,4.4963,4.48,4.4664,4.4529,4.4257,4.4067,4.3877,4.385,4.3877,4.3796,4.4013,4.4353,4.4387,4.447,4.4447,4.4635,4.5198,4.5602,4.5791,4.6368,4.7278,4.7822,4.8186,4.829,4.8391,4.8684,4.8763,4.8628,4.8643,4.9137,4.9597,4.0876,4.077,4.1138,4.1353,4.1507,4.1692,4.2308,4.315,4.3805,4.4161,4.4316,4.4316,4.4316,4.4364,4.4532,4.4669,4.4741,4.5758,4.6286,4.6697,4.7702,4.8314,4.899,4.9822,5.0493,5.0842,5.1189,5.1596,5.1596,5.1596,5.1596,5.1596,5.1596,5.1596,5.1596,5.1596,5.1596,5.1596,5.1596,5.1596,5.1596,5.1596,5.1596,5.1492,5.1073,5.0603,5.0211,4.9688,4.9139,4.8643,4.8538,4.8437,4.8332,4.8172,4.8172,4.8286,4.8518,4.8779,4.9019,4.936,4.9698,4.9816,4.9656,4.9358,4.8843,4.8409,4.8002,4.7676,4.7649,4.7595,4.7513,4.7459,4.7595,4.7731,4.7812,4.7893,4.7649,4.7377,4.6834,4.613,4.5858,4.5775,4.5694,4.5668,4.5641,4.5641,4.5614,4.5585,4.518,4.4746,4.4501,4.4366,4.4447,4.4501,4.4746,4.4908,4.4908,4.4936,4.5044,4.5314,4.5775,4.6099,4.6392,4.6873,4.7515,4.796,4.8371,4.8525,4.8675,4.896,4.9188,4.9067,4.9061,4.9334,4.9788,3.9423,3.9561,3.9889,4.0576,4.1135,4.1212,4.1698,4.2597,4.3331,4.3903,4.4199,4.4285,4.4316,4.4412,4.4717,4.4989,4.5229,4.5926,4.6431,4.6704,4.7507,4.8093,4.8665,4.9701,5.0206,5.0683,5.1157,5.1596,5.1596,5.1596,5.1596,5.1596,5.1596,5.1596,5.1596,5.1596,5.1596,5.1596,5.1596,5.1596,5.1596,5.1596,5.1596,5.1518,5.1204,5.0812,5.0629,5.0237,4.9714,4.9348,4.8982,4.8777,4.841,4.8172,4.8172,4.8344,4.8577,4.8837,4.9154,4.9497,4.9727,4.9925,4.9983,4.9819,4.9439,4.9087,4.8735,4.8354,4.83,4.8083,4.7948,4.8083,4.8246,4.8409,4.8517,4.8436,4.8192,4.7866,4.7432,4.6944,4.6916,4.6808,4.6754,4.6754,4.6618,4.6564,4.6481,4.6454,4.6156,4.5585,4.537,4.5126,4.5207,4.5288,4.5234,4.537,4.537,4.5451,4.5667,4.5993,4.6454,4.675,4.7019,4.745,4.7883,4.8199,4.8568,4.8594,4.8731,4.9139,4.9312,4.9375,4.9529,4.9719,4.998,4.0142,4.038,4.0211,4.0225,4.0377,4.0377,4.1121,4.2241,4.2691,4.3315,4.3848,4.4168,4.4316,4.4412,4.4885,4.5157,4.5301,4.603,4.631,4.6599,4.7206,4.7652,4.8019,4.9242,4.9815,5.0264,5.081,5.1565,5.1408,5.1471,5.1596,5.1565,5.1596,5.1596,5.1596,5.1596,5.1596,5.1596,5.1596,5.1596,5.1596,5.1596,5.1596,5.157,5.1361,5.1126,5.0943,5.0681,5.0211,4.9793,4.9296,4.8799,4.8224,4.8198,4.8198,4.826,4.8719,4.9006,4.9211,4.9554,4.9868,4.9953,5.001,5.001,4.9846,4.9656,4.9412,4.906,4.8815,4.8598,4.8517,4.8734,4.8897,4.906,4.9168,4.8924,4.868,4.8273,4.7921,4.7893,4.7921,4.7866,4.7812,4.7731,4.7622,4.7432,4.7242,4.7106,4.6889,4.6509,4.6456,4.6266,4.6157,4.6183,4.6047,4.5966,4.6047,4.6264,4.6481,4.6807,4.7133,4.7486,4.7811,4.7919,4.8189,4.8512,4.8567,4.838,4.8597,4.914,4.9388,4.9446,4.983,5.0125,5.031,3.9882,4.0089,3.9836,3.9751,3.9751,3.99,4.0657,4.1683,4.2252,4.2952,4.3786,4.4106,4.4316,4.4484,4.5085,4.5229,4.5349,4.6214,4.6583,4.6752,4.6872,4.729,4.7994,4.8828,4.9429,4.9944,5.0905,5.144,5.1031,5.1377,5.1534,5.1314,5.1346,5.1596,5.1596,5.1596,5.1596,5.1596,5.1596,5.1596,5.1596,5.1596,5.1596,5.1596,5.1544,5.1361,5.1309,5.11,5.0786,5.0289,4.9766,4.8982,4.8616,4.8747,4.8672,4.8609,4.8877,4.9391,4.9404,4.9611,4.9982,5.001,5.001,5.001,5.001,4.9792,4.9792,4.9493,4.9493,4.9331,4.9304,4.9439,4.9466,4.9575,4.9575,4.9439,4.8951,4.8436,4.8192,4.8083,4.8192,4.8354,4.8327,4.8409,4.8246,4.7921,4.7758,4.7731,4.7513,4.7405,4.7378,4.7405,4.7269,4.724,4.7211,4.7022,4.6807,4.7078,4.7242,4.7486,4.7731,4.8219,4.8599,4.8627,4.8627,4.8681,4.8681,4.8599,4.8681,4.9146,4.9337,4.9443,4.9911,5.0297,5.0354,3.9331,3.9308,3.9331,3.9308,3.9367,3.9655,4.0383,4.1341,4.2033,4.2875,4.3762,4.4161,4.4285,4.4676,4.5253,4.5253,4.5493,4.6046,4.6511,4.6704,4.6824,4.6848,4.7474,4.8525,4.9182,4.9893,5.0683,5.0556,5.0168,5.0778,5.1126,5.081,5.1126,5.1596,5.1596,5.1596,5.1596,5.1596,5.1596,5.1596,5.1596,5.1596,5.1596,5.1596,5.1596,5.1596,5.1596,5.1492,5.1256,5.089,5.0315,4.9557,4.9139,4.9244,4.9202,4.9167,4.939,4.9629,4.9591,4.9779,4.9924,5.001,5.001,5.001,5.001,5.001,5.001,5.001,5.001,4.9983,4.9956,4.9928,4.9956,4.9956,4.9901,4.9846,4.9276,4.8788,4.8653,4.849,4.8653,4.887,4.8924,4.9032,4.8815,4.849,4.83,4.8246,4.8219,4.8192,4.8165,4.83,4.8355,4.8355,4.8164,4.7892,4.7486,4.7622,4.7785,4.8002,4.8327,4.887,4.9195,4.9195,4.9223,4.9196,4.9223,4.9223,4.9305,4.9333,4.9468,4.9658,4.9823,5.0126,5.015,3.9308,3.9308,3.9308,3.9308,3.9367,3.9684,4.036,4.1317,4.2009,4.2851,4.3698,4.413,4.4316,4.4333,4.4941,4.5133,4.5253,4.5782,4.5926,4.6046,4.6046,4.6046,4.665,4.8027,4.9021,4.9741,5.0174,5.0072,4.9719,5.0302,5.0747,5.0588,5.122,5.1565,5.1596,5.1596,5.1596,5.1596,5.1596,5.1596,5.1596,5.1596,5.1596,5.1596,5.1596,5.1596,5.1596,5.1596,5.1544,5.1309,5.089,5.0211,4.9875,4.9827,4.9895,4.9867,5.012,5.0148,5.017,5.0108,5.0199,5.001,5.001,5.001,5.0037,5.0118,5.0091,5.0118,5.0118,5.0064,5.0037,4.9983,4.9983,4.9983,4.9956,4.9956,4.9656,4.9548,4.9493,4.9439,4.9493,4.9575,4.9602,4.9575,4.9412,4.9141,4.8951,4.887,4.8598,4.8735,4.8898,4.9061,4.9224,4.8841,4.8406,4.8328,4.8083,4.8219,4.8409,4.8761,4.9141,4.9575,4.9792,4.9792,4.9738,4.9739,4.9738,4.9629,4.9711,4.9711,4.982,4.9956,5.001,5.02,5.0444]},{"header":{"parameterUnit":"m.s-1","parameterCategory":1,"la1":31.0,"la2":29.5877,"lo1":-88.7671,"lo2":-86.6584,"dx":0.0162,"dy":0.0185,"nx":115,"ny":88,"refTime":"2023-01-22T18:00:00:Z","depth":0,"parameterNumber":3,"parameterNumberName":"V-component_of_WINDS"},"data":[0.0,0.0,0.0,0.0,0.0,0.0,0.0,0.0,0.0,0.0,0.0,0.0,0.0,0.0,0.0,0.0,0.0,0.0,0.0,0.0,0.0,0.0,0.0,0.0,0.0,0.0,0.0,0.0,0.0,0.0,0.0,0.0,0.0,0.0,0.0,0.0,0.0,0.0,0.0,0.0,0.0,0.0,0.0,0.0,0.0,0.0,0.0,0.0,0.0,0.0,0.0,0.0,0.0,0.0,0.0,0.0,0.0,0.0,0.0,0.0,0.0,0.0,0.0,0.0,0.0,0.0,0.0,0.0,0.0,0.0,0.0,0.0,0.0,0.0,0.0,0.0,0.0,0.0,0.0,0.0,0.0,0.0,0.0,0.0,0.0,0.0,0.0,0.0,0.0,0.0,0.0,0.0,0.0,0.0,0.0,0.0,0.0,0.0,0.0,0.0,0.0,0.0,0.0,0.0,0.0,0.0,0.0,0.0,0.0,0.0,0.0,0.0,0.0,0.0,0.0,0.0,0.0,0.0,0.0,0.0,0.0,0.0,0.0,0.0,0.0,0.0,0.0,0.0,0.0,0.0,0.0,0.0,0.0,0.0,0.0,0.0,0.0,0.0,0.0,0.0,0.0,0.0,0.0,0.0,0.0,0.0,0.0,0.0,0.0,0.0,0.0,0.0,0.0,0.0,0.0,0.0,0.0,0.0,0.0,0.0,0.0,0.0,0.0,0.0,0.0,0.0,0.0,0.0,0.0,0.0,0.0,0.0,0.0,0.0,0.0,0.0,0.0,0.0,0.0,0.0,0.0,0.0,0.0,0.0,0.0,0.0,0.0,0.0,0.0,0.0,0.0,0.0,0.0,0.0,0.0,0.0,0.0,0.0,0.0,0.0,0.0,0.0,0.0,0.0,0.0,0.0,0.0,0.0,0.0,0.0,0.0,0.0,0.0,0.0,0.0,0.0,0.0,0.0,0.0,0.0,0.0,0.0,0.0,0.0,0.0,0.0,0.0,0.0,0.0,0.0,0.0,0.0,0.0,0.0,0.0,0.0,0.0,0.0,0.0,0.0,0.0,0.0,0.0,0.0,0.0,0.0,0.0,0.0,0.0,0.0,0.0,0.0,0.0,0.0,0.0,0.0,0.0,0.0,0.0,0.0,0.0,0.0,0.0,0.0,0.0,0.0,0.0,0.0,0.0,0.0,0.0,0.0,0.0,0.0,0.0,0.0,0.0,0.0,0.0,0.0,0.0,0.0,0.0,0.0,0.0,0.0,0.0,0.0,0.0,0.0,0.0,0.0,0.0,0.0,0.0,0.0,0.0,0.0,0.0,0.0,0.0,0.0,0.0,0.0,0.0,0.0,0.0,0.0,0.0,0.0,0.0,0.0,0.0,0.0,0.0,0.0,0.0,0.0,0.0,0.0,0.0,0.0,0.0,0.0,0.0,0.0,0.0,0.0,0.0,0.0,0.0,0.0,0.0,0.0,0.0,0.0,0.0,0.0,0.0,0.0,0.0,0.0,0.0,0.0,0.0,0.0,0.0,0.0,0.0,0.0,0.0,0.0,0.0,0.0,0.0,0.0,0.0,0.0,0.0,0.0,0.0,0.0,0.0,0.0,0.0,0.0,0.0,0.0,0.0,0.0,0.0,0.0,0.0,0.0,0.0,0.0,0.0,0.0,0.0,0.0,0.0,0.0,0.0,0.0,0.0,0.0,0.0,0.0,0.0,0.0,0.0,0.0,0.0,0.0,0.0,0.0,0.0,0.0,0.0,0.0,0.0,0.0,0.0,0.0,0.0,0.0,0.0,0.0,0.0,0.0,0.0,0.0,0.0,0.0,0.0,0.0,0.0,0.0,0.0,0.0,0.0,0.0,0.0,0.0,0.0,0.0,0.0,0.0,0.0,0.0,0.0,0.0,0.0,0.0,0.0,0.0,0.0,0.0,0.0,0.0,0.0,0.0,0.0,0.0,0.0,0.0,0.0,0.0,0.0,0.0,0.0,0.0,0.0,0.0,0.0,0.0,0.0,0.0,0.0,0.0,0.0,0.0,0.0,0.0,0.0,0.0,0.0,0.0,0.0,0.0,0.0,0.0,0.0,0.0,0.0,0.0,0.0,0.0,0.0,0.0,0.0,0.0,0.0,0.0,0.0,0.0,0.0,0.0,0.0,0.0,0.0,0.0,0.0,0.0,0.0,0.0,0.0,0.0,0.0,0.0,0.0,0.0,0.0,0.0,0.0,0.0,0.0,0.0,0.0,0.0,0.0,0.0,0.0,0.0,0.0,0.0,0.0,0.0,0.0,0.0,0.0,0.0,0.0,0.0,0.0,0.0,0.0,0.0,0.0,0.0,0.0,0.0,0.0,0.0,0.0,0.0,0.0,0.0,0.0,0.0,0.0,0.0,0.0,0.0,0.0,0.0,0.0,0.0,0.0,0.0,0.0,0.0,0.0,0.0,0.0,0.0,0.0,0.0,0.0,0.0,0.0,0.0,0.0,0.0,0.0,0.0,0.0,0.0,0.0,0.0,0.0,0.0,0.0,0.0,0.0,0.0,0.0,0.0,0.0,0.0,0.0,0.0,0.0,0.0,0.0,0.0,0.0,0.0,0.0,0.0,0.0,0.0,0.0,0.0,0.0,0.0,0.0,0.0,0.0,0.0,0.0,0.0,0.0,0.0,0.0,0.0,0.0,0.0,0.0,0.0,0.0,0.0,0.0,0.0,0.0,0.0,0.0,0.0,0.0,0.0,0.0,0.0,0.0,0.0,0.0,0.0,0.0,0.0,0.0,0.0,0.0,0.0,0.0,0.0,0.0,0.0,0.0,0.0,0.0,0.0,0.0,0.0,0.0,0.0,0.0,0.0,0.0,0.0,0.0,0.0,0.0,0.0,0.0,0.0,0.0,0.0,0.0,0.0,0.0,0.0,0.0,0.0,0.0,0.0,0.0,0.0,0.0,0.0,0.0,0.0,0.0,0.0,0.0,0.0,0.0,0.0,0.0,0.0,0.0,0.0,0.0,0.0,0.0,0.0,0.0,0.0,0.0,0.0,0.0,0.0,0.0,0.0,0.0,0.0,0.0,0.0,0.0,0.0,0.0,0.0,0.0,0.0,0.0,0.0,0.0,0.0,0.0,0.0,0.0,0.0,0.0,0.0,0.0,0.0,0.0,0.0,0.0,0.0,0.0,0.0,0.0,0.0,0.0,0.0,0.0,0.0,0.0,0.0,0.0,0.0,0.0,0.0,0.0,0.0,0.0,0.0,0.0,0.0,0.0,0.0,0.0,0.0,0.0,0.0,0.0,0.0,0.0,0.0,0.0,0.0,0.0,0.0,0.0,0.0,0.0,0.0,0.0,0.0,0.0,0.0,0.0,0.0,0.0,0.0,0.0,0.0,0.0,0.0,0.0,0.0,0.0,0.0,0.0,0.0,0.0,0.0,0.0,0.0,0.0,0.0,0.0,0.0,0.0,0.0,0.0,0.0,0.0,0.0,0.0,0.0,0.0,0.0,0.0,0.0,0.0,0.0,0.0,0.0,0.0,0.0,0.0,0.0,0.0,0.0,0.0,0.0,0.0,0.0,0.0,0.0,0.0,0.0,0.0,0.0,0.0,0.0,0.0,0.0,0.0,0.0,0.0,0.0,0.0,0.0,0.0,0.0,0.0,0.0,0.0,0.0,0.0,0.0,0.0,0.0,0.0,0.0,0.0,0.0,0.0,0.0,0.0,0.0,0.0,0.0,0.0,0.0,0.0,0.0,0.0,0.0,0.0,0.0,0.0,0.0,0.0,0.0,0.0,0.0,0.0,0.0,0.0,0.0,0.0,0.0,0.0,0.0,0.0,0.0,0.0,0.0,0.0,0.0,0.0,0.0,0.0,0.0,0.0,0.0,0.0,0.0,0.0,0.0,0.0,0.0,0.0,0.0,0.0,0.0,0.0,0.0,0.0,0.0,0.0,0.0,0.0,0.0,0.0,0.0,0.0,0.0,0.0,0.0,0.0,0.0,0.0,0.0,0.0,0.0,0.0,0.0,0.0,0.0,0.0,0.0,0.0,0.0,0.0,0.0,0.0,0.0,0.0,0.0,0.0,0.0,0.0,0.0,0.0,0.0,0.0,0.0,0.0,0.0,0.0,0.0,0.0,0.0,0.0,0.0,0.0,0.0,0.0,0.0,0.0,0.0,0.0,0.0,0.0,0.0,0.0,0.0,0.0,0.0,0.0,0.0,0.0,0.0,0.0,0.0,0.0,0.0,0.0,0.0,0.0,0.0,0.0,0.0,1.1889,0.0,0.0,0.0,0.0,0.0,0.0,0.0,0.0,0.0,0.0,0.0,0.0,0.0,0.0,0.0,0.0,0.0,0.0,0.0,0.0,0.0,0.0,0.0,0.0,0.0,0.0,0.0,0.0,0.0,0.0,0.0,0.0,0.0,0.0,0.0,0.0,0.0,0.0,0.0,0.0,0.0,0.0,0.0,0.0,0.0,0.0,0.0,0.0,0.0,0.0,0.0,0.0,0.0,0.0,0.0,0.0,0.0,0.0,0.0,0.0,0.0,0.0,0.0,0.0,0.0,0.0,0.0,0.0,0.0,0.0,0.0,0.0,0.0,0.0,0.0,0.0,0.0,0.0,0.0,0.0,0.0,0.0,0.0,0.0,0.0,0.0,0.0,0.0,0.0,0.0,0.0,0.0,0.0,0.0,0.0,0.0,0.0,0.0,0.0,0.0,0.0,0.0,0.0,0.0,0.0,0.0,0.0,0.0,0.0,0.0,1.0485,1.1241,1.06,1.0824,1.2049,0.0,0.0,0.0,0.0,0.0,0.0,0.0,0.0,0.0,0.0,0.0,0.0,0.0,0.0,0.0,0.0,0.0,0.0,0.0,0.0,0.0,0.0,0.0,0.0,0.0,0.0,0.0,0.0,0.0,0.0,0.0,0.0,0.0,0.0,0.0,0.0,0.0,0.0,0.0,0.0,0.0,0.0,0.0,0.0,0.0,0.0,0.0,0.0,0.0,0.0,0.0,0.0,0.0,0.0,0.0,0.0,0.0,0.0,0.0,0.0,0.0,0.0,0.0,0.0,0.0,0.0,0.0,0.0,0.0,0.0,0.0,0.0,0.0,0.0,0.0,0.0,0.0,0.0,0.0,0.0,0.0,0.0,0.0,0.0,0.0,0.0,0.0,0.0,0.0,0.0,0.0,0.0,0.0,0.0,0.0,0.0,0.0,0.0,0.0,0.0,0.0,0.0,0.0,0.0,0.0,0.0,0.0,0.0,0.0,0.0,0.0,0.0,1.0777,1.1031,1.2401,0.0,0.0,0.0,0.0,0.0,0.0,0.0,0.0,0.0,0.0,0.0,0.0,0.0,0.0,0.0,0.0,0.0,0.0,0.0,0.0,0.0,0.0,0.0,0.0,0.0,0.0,0.0,0.0,0.0,0.0,0.0,0.0,0.0,0.0,0.0,0.0,0.0,0.0,0.0,0.0,0.0,0.0,0.0,0.0,0.0,0.0,0.0,0.0,0.0,0.0,0.0,0.0,0.0,0.0,0.0,0.0,0.0,0.0,0.0,0.0,0.0,0.0,0.0,0.0,0.0,0.0,0.0,0.0,0.0,0.0,0.0,0.0,0.0,0.0,0.0,0.0,0.0,0.0,0.0,0.0,0.0,0.0,0.0,0.0,0.0,0.0,0.0,0.0,0.0,0.0,0.0,0.0,0.0,0.0,0.0,0.0,0.0,0.0,0.0,0.0,0.0,0.0,0.0,0.0,0.0,0.0,0.0,0.0,0.0,0.0,1.1485,1.2092,1.2317,0.0,1.3481,0.0,0.0,0.0,0.0,0.0,0.0,0.0,0.0,0.0,0.0,0.0,0.0,0.0,0.0,0.0,0.0,0.0,0.0,0.0,0.0,0.0,0.0,0.0,0.0,0.0,0.0,0.0,0.0,0.0,0.0,0.0,0.0,0.0,0.0,0.0,0.0,0.0,0.0,0.0,0.0,0.0,0.0,0.0,0.0,0.0,0.0,0.0,0.0,0.0,0.0,0.0,0.0,0.0,0.0,0.0,0.0,0.0,0.0,0.0,0.0,0.0,0.0,0.0,0.0,0.0,0.0,0.0,0.0,0.0,0.0,0.0,0.0,0.0,0.0,0.0,0.0,0.0,0.0,0.0,0.0,0.0,0.0,0.0,0.0,0.0,0.0,0.0,0.0,0.0,0.0,0.0,0.0,0.0,0.0,0.0,0.0,0.0,0.0,0.0,0.0,0.0,0.0,0.0,0.0,0.0,0.0,0.0,0.0,0.0,0.0,1.1775,1.2472,1.2867,1.3202,0.0,0.0,0.0,0.0,0.0,0.0,0.0,0.0,0.0,0.0,0.0,0.0,0.0,0.0,0.0,0.0,0.0,0.0,0.0,0.0,0.0,0.0,0.0,0.0,0.0,0.0,0.0,0.0,0.0,0.0,0.0,0.0,0.0,0.0,0.0,0.0,0.0,0.0,0.0,0.0,0.0,0.0,0.0,0.0,0.0,0.0,0.0,0.0,0.0,0.0,0.0,0.0,0.0,0.0,0.0,0.0,0.0,0.0,0.0,0.0,0.0,0.0,0.0,0.0,0.0,0.0,0.0,0.0,0.0,0.0,0.0,0.0,0.0,0.0,0.0,0.0,0.0,0.0,0.0,0.0,0.0,0.0,0.0,0.0,0.0,0.0,0.0,0.0,0.0,0.0,0.0,0.0,0.0,0.0,0.0,0.0,0.0,0.0,0.0,0.0,0.0,0.0,0.0,0.0,0.0,0.0,0.0,0.0,0.0,0.0,1.1639,1.1998,1.2827,1.3119,1.3385,1.365,0.0,0.0,0.0,0.0,0.0,0.0,0.0,0.0,0.0,0.0,0.0,0.0,0.0,0.0,0.0,0.0,0.0,0.0,0.0,0.0,0.0,0.0,0.0,0.0,0.0,0.0,0.0,0.0,0.0,0.0,0.0,0.0,0.0,0.0,0.0,0.0,0.0,0.0,0.0,0.0,0.0,0.0,0.0,0.0,0.0,0.0,0.0,0.0,0.0,0.0,0.0,0.0,0.0,0.0,0.0,0.0,0.0,0.0,0.0,0.0,0.0,0.0,0.0,0.0,0.0,0.0,0.0,0.0,0.0,0.0,0.0,0.0,0.0,0.0,0.0,0.0,0.0,0.0,0.0,0.0,0.0,0.0,0.0,0.0,0.0,0.0,0.0,0.0,0.0,0.0,0.0,0.0,0.0,0.0,0.0,0.0,0.0,0.0,0.0,0.0,0.0,0.0,0.0,0.0,0.0,0.0,0.0,0.0,0.0,1.1987,1.2254,1.3204,1.3225,1.3537,0.0,0.0,0.0,0.0,0.0,0.0,0.0,0.0,0.0,0.0,0.0,0.0,0.0,0.0,0.0,0.0,0.0,0.0,0.0,0.0,0.0,0.0,0.0,0.0,0.0,0.0,0.0,0.0,0.0,0.0,0.0,0.0,0.0,0.0,0.0,0.0,0.0,0.0,0.0,0.0,0.0,0.0,0.0,0.0,0.0,0.0,0.0,0.0,0.0,0.0,0.0,0.0,0.0,0.0,0.0,0.0,0.0,0.0,0.0,0.0,0.0,0.0,0.0,0.0,0.0,0.0,0.0,0.0,0.0,0.0,0.0,0.0,0.0,0.0,0.0,0.0,0.0,0.0,0.0,0.0,0.0,0.0,0.0,0.0,0.0,0.0,0.0,0.0,0.0,0.0,0.0,0.0,0.0,0.0,0.0,0.0,0.0,0.0,0.0,0.0,0.0,0.0,0.0,0.0,0.0,0.0,0.0,0.0,0.0,1.196,1.2396,1.272,1.2935,1.3374,1.3797,0.0,0.0,0.0,0.0,0.0,0.0,0.0,0.0,0.0,0.0,0.0,0.0,0.0,0.0,0.0,0.0,0.0,0.0,0.0,0.0,0.0,0.0,0.0,0.0,0.0,0.0,0.0,0.0,0.0,0.0,0.0,0.0,0.0,0.0,0.0,0.0,0.0,0.0,0.0,0.0,0.0,0.0,0.0,0.0,0.0,0.0,0.0,0.0,0.0,0.0,0.0,0.0,0.0,0.0,0.0,0.0,0.0,0.0,0.0,0.0,0.0,0.0,0.0,0.0,0.0,0.0,0.0,0.0,0.0,0.0,0.0,0.0,0.0,0.0,0.0,0.0,0.0,0.0,0.0,0.0,0.0,0.0,0.0,0.0,0.0,0.0,0.0,0.0,0.0,0.0,0.0,0.0,0.0,0.0,0.0,0.0,0.0,0.0,0.0,0.0,0.0,0.0,0.0,0.0,0.0,0.0,0.0,0.0,0.0,1.2098,0.0,1.3334,1.3194,1.3714,1.4072,0.0,0.0,0.0,0.0,0.0,0.0,0.0,0.0,0.0,0.0,0.0,0.0,0.0,0.0,0.0,0.0,0.0,0.0,0.0,0.0,0.0,0.0,0.0,0.0,0.0,0.0,0.0,0.0,0.0,0.0,0.0,0.0,0.0,0.0,0.0,0.0,0.0,0.0,0.0,0.0,0.0,0.0,0.0,0.0,0.0,0.0,0.0,0.0,0.0,0.0,0.0,0.0,0.0,0.0,0.0,0.0,0.0,0.0,0.0,0.0,0.0,0.0,0.0,0.0,0.0,0.0,0.0,0.0,0.0,0.0,0.0,0.0,0.0,0.0,0.0,0.0,0.0,0.0,0.0,0.0,0.0,0.0,0.0,0.0,0.0,0.0,0.0,0.0,0.0,0.0,0.0,0.0,0.0,0.0,0.0,0.0,0.0,0.0,0.0,0.0,0.0,0.0,0.0,0.0,0.0,0.0,0.0,0.0,1.2098,1.2841,1.3635,1.4038,1.4114,1.4205,1.4321,0.0,0.0,0.0,0.0,0.0,0.0,0.0,0.0,0.0,0.0,0.0,0.0,0.0,0.0,0.0,0.0,0.0,0.0,0.0,0.0,0.0,0.0,0.0,0.0,0.0,0.0,0.0,0.0,0.0,0.0,0.0,0.0,0.0,0.0,0.0,0.0,0.0,0.0,0.0,0.0,0.0,0.0,0.0,0.0,0.0,0.0,0.0,0.0,0.0,0.0,0.0,0.0,0.0,0.0,0.0,0.0,0.0,0.0,0.0,0.0,0.0,0.0,0.0,0.0,0.0,0.0,0.0,0.0,0.0,0.0,0.0,0.0,0.0,0.0,0.0,0.0,0.0,0.0,0.0,0.0,0.0,0.0,0.0,0.0,0.0,0.0,0.0,0.0,0.0,0.0,0.0,0.0,0.0,0.0,0.0,0.0,0.0,0.0,0.0,0.0,0.0,0.0,0.0,0.0,0.0,0.0,0.0,0.0,0.0,1.2136,1.3113,1.3918,1.4327,1.4179,1.454,0.0,0.0,0.0,0.0,0.0,0.0,0.0,0.0,0.0,0.0,0.0,0.0,0.0,0.0,0.0,0.0,0.0,0.0,0.0,0.0,0.0,0.0,0.0,0.0,0.0,0.0,0.0,0.0,0.0,0.0,0.0,0.0,0.0,0.0,0.0,0.0,0.0,0.0,0.0,0.0,0.0,0.0,0.0,0.0,0.0,0.0,0.0,0.0,0.0,0.0,0.0,0.0,0.0,0.0,0.0,0.0,0.0,0.0,0.0,0.0,0.0,0.0,0.0,0.0,0.0,0.0,0.0,0.0,0.0,0.0,0.0,0.0,0.0,0.0,0.0,0.0,0.0,0.0,0.0,0.0,0.0,0.0,0.0,0.0,0.0,0.0,0.0,0.0,0.0,0.0,0.0,0.0,0.0,0.0,0.0,0.0,0.0,0.0,0.0,0.0,0.0,0.0,0.0,0.0,0.0,0.0,0.0,0.0,0.0,1.3889,1.4287,1.474,1.5155,1.4797,1.4907,1.5531,0.0,0.0,0.0,0.0,0.0,0.0,0.0,0.0,0.0,0.0,0.0,0.0,0.0,0.0,0.0,0.0,0.0,0.0,0.0,0.0,0.0,0.0,0.0,0.0,0.0,0.0,0.0,0.0,0.0,0.0,0.0,0.0,0.0,0.0,0.0,0.0,0.0,0.0,0.0,0.0,0.0,0.0,0.0,0.0,0.0,0.0,0.0,0.0,0.0,0.0,0.0,0.0,0.0,0.0,0.0,0.0,0.0,0.0,0.0,0.0,0.0,0.0,0.0,0.0,0.0,0.0,0.0,0.0,0.0,0.0,0.0,0.0,0.0,0.0,0.0,0.0,0.0,0.0,0.0,0.0,0.0,0.0,0.0,0.0,0.0,0.0,0.0,0.0,0.0,0.0,0.0,0.0,0.0,0.0,0.0,0.0,0.0,0.0,0.0,0.0,0.0,0.0,0.0,0.0,0.0,0.0,0.0,0.0,1.7529,1.6917,1.6518,1.6445,1.5981,1.5506,0.0,0.0,0.0,0.0,0.0,0.0,0.0,0.0,0.0,0.0,0.0,0.0,0.0,0.0,0.0,0.0,0.0,0.0,0.0,0.0,0.0,0.0,0.0,0.0,0.0,0.0,0.0,0.0,0.0,0.0,0.0,0.0,0.0,0.0,0.0,0.0,0.0,0.0,0.0,0.0,0.0,0.0,0.0,0.0,0.0,0.0,0.0,0.0,0.0,0.0,0.0,0.0,0.0,0.0,0.0,0.0,0.0,0.0,0.0,0.0,0.0,0.0,0.0,0.0,0.0,0.0,0.0,0.0,0.0,0.0,0.0,0.0,0.0,0.0,0.0,0.0,0.0,0.0,0.0,0.0,0.0,0.0,0.0,0.0,0.0,0.0,0.0,0.0,0.0,0.0,0.0,0.0,0.0,0.0,0.0,0.0,0.0,0.0,0.0,0.0,0.0,0.0,0.0,0.0,0.0,0.0,0.0,0.0,0.0,1.9135,1.9508,1.9205,1.8174,1.7643,1.695,0.0,0.0,0.0,0.0,0.0,0.0,0.0,0.0,0.0,0.0,0.0,0.0,0.0,0.0,0.0,0.0,0.0,0.0,0.0,0.0,0.0,0.0,0.0,0.0,0.0,0.0,0.0,0.0,0.0,0.0,0.0,0.0,0.0,0.0,0.0,0.0,0.0,0.0,0.0,0.0,0.0,0.0,0.0,0.0,0.0,0.0,0.0,0.0,0.0,0.0,0.0,0.0,0.0,0.0,0.0,0.0,0.0,0.0,0.0,0.0,0.0,0.0,0.0,0.0,0.0,0.0,0.0,0.0,0.0,0.0,0.0,0.0,0.0,0.0,0.0,0.0,0.0,0.0,0.0,0.0,0.0,0.0,0.0,0.0,0.0,0.0,0.0,0.0,0.0,0.0,0.0,0.0,0.0,0.0,0.0,0.0,0.0,0.0,0.0,0.0,0.0,0.0,0.0,0.0,0.0,0.0,0.0,0.0,1.9614,2.1292,2.2372,2.2133,2.0481,1.9222,1.7916,0.0,0.0,0.0,0.0,0.0,0.0,0.0,0.0,0.0,0.0,0.0,0.0,0.0,0.0,0.0,0.0,0.0,0.0,0.0,0.0,0.0,0.0,0.0,0.0,0.0,0.0,0.0,0.0,0.0,0.0,0.0,0.0,0.0,0.0,0.0,0.0,0.0,0.0,0.0,0.0,0.0,0.0,0.0,0.0,0.0,0.0,0.0,0.0,0.0,0.0,0.0,0.0,0.0,0.0,0.0,0.0,0.0,0.0,0.0,0.0,0.0,0.0,0.0,0.0,0.0,0.0,0.0,0.0,0.0,0.0,0.0,0.0,0.0,0.0,0.0,0.0,0.0,0.0,0.0,0.0,0.0,0.0,0.0,0.0,0.0,0.0,0.0,0.0,0.0,0.0,0.0,0.0,0.0,0.0,0.0,0.0,0.0,0.0,0.0,0.0,0.0,0.0,0.0,0.0,0.0,0.0,0.0,0.0,2.1532,2.3576,2.5001,2.4877,2.304,2.0785,1.8672,0.0,0.0,0.0,0.0,0.0,0.0,0.0,0.0,0.0,0.0,0.0,0.0,0.0,0.0,0.0,0.0,0.0,0.0,0.0,0.0,0.0,0.0,0.0,0.0,0.0,0.0,0.0,0.0,0.0,0.0,0.0,0.0,0.0,0.0,0.0,0.0,0.0,0.0,0.0,0.0,0.0,0.0,0.0,0.0,0.0,0.0,0.0,0.0,0.0,0.0,0.0,0.0,0.0,0.0,0.0,0.0,0.0,0.0,0.0,0.0,0.0,0.0,0.0,0.0,0.0,0.0,0.0,0.0,0.0,0.0,0.0,0.0,0.0,0.0,0.0,0.0,0.0,0.0,0.0,0.0,0.0,0.0,0.0,0.0,0.0,0.0,0.0,0.0,0.0,0.0,0.0,0.0,0.0,0.0,0.0,0.0,0.0,0.0,0.0,0.0,0.0,0.0,0.0,0.0,0.0,0.0,0.0,0.0,2.2628,2.4897,2.5811,2.5877,2.5074,2.2306,1.9685,0.0,0.0,0.0,0.0,0.0,0.0,0.0,0.0,0.0,0.0,0.0,0.0,0.0,0.0,0.0,0.0,0.0,0.0,0.0,0.0,0.0,0.0,0.0,0.0,0.0,0.0,0.0,0.0,0.0,0.0,0.0,0.0,0.0,0.0,0.0,0.0,0.0,0.0,0.0,0.0,0.0,0.0,0.0,0.0,0.0,0.0,0.0,0.0,0.978,0.0,0.0,0.0,0.0,0.0,0.0,0.0,0.0,0.0,0.0,0.0,0.0,0.0,0.0,0.0,0.0,0.0,0.0,0.0,0.0,0.0,0.0,0.0,0.0,0.0,0.0,0.0,0.0,0.0,0.0,0.0,0.0,0.0,0.0,0.0,0.0,0.0,0.0,0.0,0.0,0.0,0.0,0.0,0.0,0.0,0.0,0.0,0.0,0.0,0.0,0.0,0.0,0.0,0.0,0.0,0.0,0.0,0.0,0.0,2.3745,2.6214,2.71,2.6993,2.5781,2.3512,2.1207,0.0,0.0,0.0,0.0,0.0,0.0,0.0,0.0,0.0,0.0,0.0,0.0,0.0,0.0,0.0,0.0,0.0,0.0,0.0,0.0,0.0,0.0,0.0,0.0,0.0,0.0,0.0,0.0,0.0,0.0,0.0,0.0,0.0,0.0,0.0,0.0,0.0,0.0,0.0,0.0,0.0,0.0,0.0,0.0,0.0,0.0,0.0,0.0,0.0,0.0,0.0,0.0,0.0,0.0,0.0,0.0,0.0,0.0,0.0,0.0,0.0,0.0,0.0,0.0,0.0,0.0,0.0,0.0,0.0,0.0,0.0,0.0,0.0,0.0,0.0,0.0,0.0,0.0,0.0,0.0,0.0,0.0,0.0,0.0,0.0,0.0,0.0,0.0,0.0,0.0,0.0,0.0,0.0,0.0,0.0,0.0,0.0,0.0,0.0,0.0,0.0,0.0,0.0,0.0,0.0,0.0,0.0,2.2845,2.4867,2.7477,2.8458,2.8092,2.6402,2.45,2.272,2.101,0.0,0.0,0.0,0.0,0.0,0.0,0.0,0.0,0.0,0.0,0.0,0.0,0.0,0.0,0.0,0.0,0.0,0.0,0.0,0.0,0.0,0.0,0.0,0.0,0.0,0.0,0.0,0.0,0.0,0.0,0.0,0.0,0.0,0.0,0.0,0.0,0.0,0.0,0.94,1.025,0.0,0.0,0.0,0.0,0.0,0.0,0.0,0.0,1.1213,0.0,0.0,0.0,0.0,0.0,0.0,0.0,0.0,0.0,0.0,0.0,0.0,0.0,0.0,0.0,0.0,0.0,0.0,0.0,0.0,0.0,0.0,0.0,0.0,0.0,0.0,0.0,0.0,0.0,0.0,0.0,0.0,0.0,0.0,0.0,0.0,0.0,0.0,0.0,0.0,0.0,0.0,0.0,0.0,0.0,0.0,0.0,0.0,0.0,0.0,0.0,0.0,0.0,0.0,0.0,0.0,2.3039,2.4296,2.6176,2.8811,2.9238,2.9101,2.8423,2.5301,2.3405,2.2892,0.0,0.0,0.0,0.0,0.0,0.0,0.0,0.0,0.0,0.0,0.0,0.0,0.0,0.0,0.0,0.0,0.0,0.0,0.0,0.0,0.0,0.0,0.0,0.0,0.0,0.0,0.0,0.0,0.0,0.0,0.0,0.0,0.0,0.0,0.0,0.0,0.0,0.0,0.0,1.1543,1.2461,0.0,0.0,0.0,0.0,0.0,0.0,0.0,0.0,1.1956,0.0,0.0,0.0,0.0,0.0,0.0,0.0,0.0,0.0,0.0,0.0,0.0,0.0,0.0,0.0,0.0,0.0,0.0,0.0,0.0,0.0,0.0,0.0,0.0,0.0,0.0,0.0,0.0,0.0,0.0,0.0,0.0,0.0,0.0,0.0,0.0,0.0,0.0,0.0,0.0,0.0,0.0,0.0,0.0,0.0,0.0,0.0,0.0,0.0,0.0,0.0,0.0,0.0,0.0,0.0,2.3979,2.5219,2.7135,2.9856,3.0078,2.9659,2.8647,2.578,2.3996,0.0,0.0,0.0,0.0,0.0,0.0,0.0,0.0,0.0,0.0,0.0,0.0,0.0,0.0,0.0,0.0,0.0,0.0,0.0,0.0,0.0,0.0,0.0,0.0,0.0,0.0,0.0,0.0,0.0,0.0,0.0,0.0,0.0,0.0,0.0,0.0,0.0,0.0,0.0,0.0,1.2233,1.2819,1.2904,0.0,0.0,0.0,0.0,0.0,0.0,1.256,1.2521,0.0,0.0,0.0,0.0,0.0,0.0,0.0,0.0,0.0,0.0,0.0,0.0,0.0,0.0,0.0,0.0,0.0,0.0,0.0,0.0,0.0,0.0,0.0,0.0,0.0,0.0,0.0,0.0,0.0,0.0,0.0,0.0,0.0,0.0,0.0,0.0,0.0,0.0,0.0,0.0,0.0,0.0,0.0,0.0,0.0,0.0,0.0,0.0,0.0,0.0,0.0,0.0,0.0,0.0,0.0,2.485,2.6021,2.7888,3.0557,3.0698,2.9962,2.8429,2.6157,2.4559,0.0,0.0,0.0,0.0,0.0,0.0,0.0,0.0,0.0,0.0,0.0,0.0,0.0,0.0,0.0,0.0,0.0,0.0,0.0,0.0,0.0,0.0,0.0,0.0,0.0,0.0,0.0,0.0,0.0,0.0,0.0,0.0,0.0,0.0,0.0,0.0,0.0,0.0,0.0,0.0,0.0,1.3385,1.3208,1.3365,0.0,0.0,0.0,0.0,1.3274,1.3473,0.0,0.0,0.0,0.0,0.0,0.0,0.0,0.0,0.0,0.0,0.0,0.0,0.0,0.0,0.0,0.0,0.0,0.0,0.0,0.0,0.0,0.0,0.0,0.0,0.0,0.0,0.0,0.0,0.0,0.0,0.0,0.0,0.0,0.0,0.0,0.0,0.0,0.0,0.0,0.0,0.0,0.0,0.0,0.0,0.0,0.0,0.0,0.0,0.0,0.0,0.0,0.0,0.0,0.0,0.0,0.0,2.5658,2.6874,2.851,3.0575,3.0698,2.9962,2.8429,2.6521,2.5044,0.0,0.0,0.0,0.0,0.0,0.0,0.0,0.0,0.0,0.0,0.0,0.0,0.0,0.0,0.0,0.0,0.0,0.0,0.0,0.0,0.0,0.0,0.0,0.0,0.0,0.0,0.0,0.0,0.0,0.0,0.0,0.0,0.0,0.0,0.0,0.0,0.0,0.0,0.0,0.0,0.0,1.5346,1.452,1.4707,1.4677,0.0,0.0,1.4017,1.4446,1.5239,0.0,0.0,0.0,0.0,0.0,0.0,0.0,0.0,0.0,0.0,0.0,0.0,0.0,0.0,0.0,0.0,0.0,0.0,0.0,0.0,0.0,0.0,0.0,0.0,0.0,0.0,0.0,0.0,0.0,0.0,0.0,0.0,0.0,0.0,0.0,0.0,0.0,0.0,0.0,0.0,0.0,0.0,0.0,0.0,0.0,0.0,0.0,0.0,0.0,0.0,0.0,0.0,0.0,0.0,0.0,2.3071,2.599,2.7276,2.891,3.0764,3.0537,2.9733,2.8429,2.5949,2.4632,0.0,0.0,0.0,0.0,0.0,0.0,0.0,0.0,0.0,0.0,0.0,0.0,0.0,0.0,0.0,0.0,0.0,0.0,0.0,0.0,0.0,0.0,0.0,0.0,0.0,0.0,0.0,0.0,0.0,0.0,0.0,0.0,0.0,0.0,0.0,0.0,0.0,0.0,0.0,0.0,0.0,0.0,1.5004,1.5435,0.0,0.0,0.0,1.5542,1.6348,0.0,0.0,0.0,0.0,0.0,0.0,0.0,0.0,0.0,0.0,0.0,0.0,0.0,0.0,0.0,0.0,0.0,0.0,0.0,0.0,0.0,0.0,0.0,0.0,0.0,0.0,0.0,0.0,0.0,0.0,0.0,0.0,0.0,0.0,0.0,0.0,0.0,0.0,0.0,0.0,0.0,0.0,0.0,0.0,0.0,0.0,0.0,0.0,0.0,0.0,0.0,0.0,0.0,0.0,0.0,0.0,0.0,2.6385,2.7859,2.9392,3.094,3.0563,2.9622,2.8194,2.5647,0.0,0.0,0.0,0.0,0.0,0.0,0.0,0.0,0.0,0.0,0.0,0.0,0.0,0.0,0.0,0.0,0.0,0.0,0.0,0.0,0.0,0.0,0.0,0.0,0.0,0.0,0.0,1.2278,0.0,0.0,0.0,0.0,0.0,0.0,0.0,0.0,0.0,0.0,0.0,0.0,0.0,0.0,1.6663,1.5956,1.6669,1.6792,0.0,0.0,1.7351,1.846,1.8254,1.7756,0.0,0.0,0.0,0.0,0.0,0.0,0.0,0.0,0.0,0.0,0.0,0.0,0.0,0.0,0.0,0.0,0.0,0.0,0.0,0.0,0.0,0.0,0.0,0.0,0.0,0.0,0.0,0.0,0.0,0.0,0.0,0.0,0.0,0.0,0.0,0.0,0.0,0.0,0.0,0.0,0.0,0.0,0.0,0.0,0.0,0.0,0.0,0.0,0.0,0.0,0.0,0.0,0.0,0.0,0.0,2.7002,2.8789,3.011,3.0947,3.0966,2.9849,2.762,2.6219,2.4895,0.0,0.0,0.0,0.0,0.0,0.0,0.0,0.0,0.0,0.0,0.0,0.0,0.0,0.0,0.0,0.0,0.0,0.0,0.0,0.0,0.0,0.0,0.0,0.0,0.0,0.0,0.0,0.0,0.0,0.0,0.0,0.0,0.0,0.0,0.0,0.0,0.0,0.0,0.0,0.0,0.0,1.8263,1.8006,1.891,1.9199,0.0,0.0,1.9653,2.072,2.0998,2.0334,1.818,0.0,0.0,0.0,0.0,0.0,0.0,0.0,0.0,0.0,0.0,0.0,0.0,0.0,0.0,0.0,0.0,0.0,0.0,0.0,0.0,0.0,0.0,0.0,0.0,0.0,0.0,0.0,0.0,0.0,0.0,0.0,0.0,0.0,0.0,0.0,0.0,0.0,0.0,0.0,0.0,0.0,0.0,0.0,0.0,0.0,0.0,0.0,0.0,0.0,0.0,0.0,0.0,0.0,2.5411,2.7096,2.9017,3.0306,3.0947,3.0641,2.9675,2.8098,2.6211,2.4804,0.0,0.0,0.0,0.0,0.0,0.0,0.0,0.0,0.0,0.0,0.0,0.0,0.0,0.0,0.0,0.0,0.0,0.0,0.0,0.0,0.0,0.0,0.0,0.0,0.0,0.0,0.0,0.0,1.3053,1.3271,1.3737,0.0,0.0,0.0,0.0,0.0,0.0,0.0,0.0,0.0,0.0,1.9275,1.9305,2.0016,0.0,0.0,2.0469,2.131,2.2736,2.1554,2.0202,1.9447,1.8059,0.0,0.0,0.0,0.0,0.0,0.0,0.0,0.0,0.0,0.0,0.0,0.0,0.0,0.0,0.0,0.0,0.0,0.0,0.0,0.0,0.0,0.0,0.0,0.0,0.0,0.0,0.0,0.0,0.0,0.0,0.0,0.0,0.0,0.0,0.0,0.0,0.0,0.0,0.0,0.0,0.0,0.0,0.0,0.0,0.0,0.0,0.0,0.0,0.0,0.0,0.0,0.0,2.5956,2.7163,2.9288,3.0581,3.0992,3.0607,2.9745,2.8403,2.651,2.5036,0.0,0.0,0.0,0.0,0.0,0.0,0.0,0.0,0.0,0.0,0.0,0.0,0.0,0.0,0.0,0.0,0.0,0.0,0.0,0.0,0.0,0.0,0.0,0.0,0.0,0.0,0.0,0.0,1.3818,1.4043,1.4544,0.0,0.0,0.0,0.0,0.0,0.0,0.0,0.0,0.0,0.0,2.0213,2.0541,2.1308,2.1909,2.1928,2.215,2.2737,2.3926,2.238,2.0908,2.0612,0.0,0.0,0.0,0.0,0.0,0.0,0.0,0.0,0.0,0.0,0.0,0.0,0.0,0.0,0.0,0.0,0.0,0.0,0.0,0.0,0.0,0.0,0.0,0.0,0.0,0.0,0.0,0.0,0.0,0.0,2.1778,0.0,0.0,0.0,0.0,0.0,0.0,0.0,0.0,0.0,0.0,0.0,0.0,0.0,0.0,0.0,0.0,0.0,0.0,0.0,0.0,0.0,0.0,2.6554,2.7324,2.9707,3.0992,3.0992,3.0992,3.0155,2.8481,2.7278,2.5709,2.3654,0.0,0.0,0.0,0.0,0.0,0.0,0.0,0.0,0.0,0.0,0.0,0.0,0.0,0.0,0.0,0.0,0.0,0.0,0.0,0.0,0.0,0.0,0.0,0.0,0.0,0.0,1.5074,1.4917,1.4843,0.0,0.0,0.0,0.0,0.0,0.0,0.0,0.0,0.0,0.0,1.9849,2.121,2.1768,2.2982,2.3784,2.3805,2.3826,2.393,2.4178,2.38,2.3048,0.0,0.0,0.0,0.0,0.0,0.0,0.0,0.0,0.0,0.0,0.0,0.0,0.0,0.0,0.0,0.0,0.0,0.0,0.0,0.0,0.0,0.0,0.0,0.0,0.0,0.0,0.0,2.2577,2.2631,0.0,0.0,0.0,0.0,0.0,0.0,0.0,0.0,0.0,0.0,0.0,2.3415,2.3692,0.0,0.0,0.0,0.0,0.0,0.0,0.0,0.0,0.0,0.0,0.0,0.0,2.7439,2.779,2.9879,3.0992,3.0992,3.0992,3.0529,2.9544,2.8029,2.5943,2.3156,0.0,0.0,0.0,0.0,0.0,0.0,0.0,0.0,0.0,0.0,0.0,0.0,0.0,0.0,0.0,0.0,0.0,0.0,0.0,0.0,0.0,0.0,0.0,0.0,0.0,1.5038,0.0,0.0,0.0,0.0,0.0,0.0,0.0,0.0,0.0,0.0,0.0,1.7994,1.9036,2.0752,2.2116,2.2633,2.3676,2.4512,0.0,0.0,0.0,0.0,0.0,0.0,0.0,0.0,0.0,0.0,0.0,0.0,0.0,0.0,1.8082,1.6518,1.6134,1.6127,1.6433,0.0,0.0,0.0,0.0,0.0,0.0,0.0,0.0,0.0,0.0,0.0,0.0,0.0,0.0,2.4104,0.0,2.3476,0.0,0.0,0.0,0.0,0.0,0.0,0.0,0.0,2.5316,2.5728,2.563,2.589,2.5768,0.0,2.5144,2.4096,0.0,0.0,0.0,0.0,0.0,0.0,0.0,0.0,2.8082,2.8463,3.0288,3.1268,3.1268,3.1287,3.0902,3.01,2.8289,2.6116,2.3654,2.2765,2.229,0.0,0.0,0.0,0.0,0.0,0.0,0.0,0.0,0.0,0.0,0.0,0.0,0.0,0.0,0.0,0.0,0.0,0.0,0.0,0.0,0.0,0.0,0.0,1.5881,0.0,0.0,0.0,0.0,0.0,0.0,0.0,0.0,0.0,1.7605,1.8297,1.9214,2.053,2.2053,2.3178,2.355,0.0,0.0,0.0,0.0,0.0,0.0,0.0,2.4082,2.3857,2.2934,2.2121,2.1773,2.1477,2.1244,2.1211,0.0,0.0,1.8446,1.7925,1.7886,1.8364,1.8503,1.865,1.9046,1.9229,1.938,0.0,0.0,0.0,0.0,0.0,0.0,0.0,0.0,2.6534,2.6982,0.0,2.5777,0.0,0.0,0.0,0.0,0.0,2.6224,0.0,0.0,2.7075,2.7102,2.6338,2.6928,2.672,2.5979,2.7584,2.7308,2.5226,2.1957,0.0,0.0,0.0,0.0,0.0,0.0,2.8419,2.9397,3.1007,3.1823,3.1843,3.1817,3.1249,3.0119,2.8076,2.6375,2.5112,2.4268,2.3551,2.2885,2.2715,0.0,0.0,0.0,0.0,0.0,0.0,0.0,0.0,0.0,0.0,0.0,0.0,0.0,0.0,0.0,0.0,0.0,0.0,0.0,0.0,1.6651,0.0,0.0,0.0,0.0,0.0,0.0,0.0,0.0,0.0,0.0,1.8689,1.9497,2.0709,2.2493,0.0,0.0,0.0,0.0,2.5563,2.4716,2.555,2.6195,2.5949,2.5863,2.5638,2.5091,0.0,0.0,2.3106,2.2688,2.2543,2.2732,2.2206,2.1546,2.1319,2.07,2.0545,2.1142,2.1043,2.0878,2.0487,2.0457,2.0362,3.1213,0.0,0.0,0.0,0.0,2.8983,2.8927,2.8908,2.845,2.8087,2.7705,2.6513,0.0,0.0,0.0,0.0,0.0,0.0,2.8196,2.8689,2.9568,3.0069,3.0228,3.0656,3.0306,2.9284,2.9105,2.8131,2.6448,2.4805,2.4163,2.4427,0.0,0.0,0.0,0.0,2.9665,3.0787,3.1899,3.2574,3.2867,3.2181,3.1325,3.0319,2.8777,2.7482,2.6448,2.4695,2.382,2.3931,2.278,0.0,0.0,0.0,0.0,0.0,0.0,0.0,0.0,0.0,0.0,0.0,0.0,0.0,0.0,0.0,0.0,0.0,0.0,0.0,1.6776,1.717,1.7478,0.0,0.0,0.0,0.0,0.0,0.0,0.0,0.0,0.0,2.1629,2.1438,2.1799,0.0,0.0,2.4556,2.5118,2.5438,2.5602,2.563,2.5978,0.0,2.6305,2.6367,2.6182,2.5659,2.5426,2.5293,2.525,2.506,2.4874,2.4943,2.4524,2.4252,2.4518,2.2588,2.1244,2.1523,2.1768,2.1938,2.1968,2.225,2.2615,3.4703,3.3248,3.1822,3.1294,3.1468,3.1278,3.1342,3.1552,3.0878,3.0406,3.006,2.8707,2.7841,2.736,2.7195,0.0,0.0,0.0,3.0256,3.079,3.1411,3.199,3.2544,3.2699,3.2352,3.1588,3.0963,3.0059,2.8966,2.8453,2.812,2.8015,0.0,0.0,2.8416,2.9977,3.1303,3.2393,3.3194,3.3614,3.3647,3.2449,3.1411,3.0643,2.9705,2.8681,2.7574,2.6122,2.5159,2.475,2.3678,2.304,0.0,0.0,0.0,0.0,0.0,0.0,0.0,0.0,0.0,0.0,0.0,1.7152,0.0,0.0,0.0,0.0,1.6821,1.7188,1.7751,1.7898,0.0,0.0,0.0,0.0,0.0,0.0,0.0,1.9579,2.0468,2.1661,2.3246,2.3235,2.3489,2.4661,2.499,2.5328,2.5874,0.0,2.6108,2.6289,2.6619,2.6809,2.6578,2.6796,2.6807,2.6334,2.6246,2.6364,2.6571,2.6488,2.6405,2.6364,2.6177,2.6135,2.653,2.4818,2.3438,2.3622,2.3821,2.3982,2.3929,2.443,2.4891,3.793,3.7663,3.526,3.4269,3.4226,3.4209,3.4312,3.4439,3.3709,3.3648,3.3893,3.1901,3.0866,3.0665,3.065,0.0,3.005,3.205,3.2749,3.24,3.2778,3.3285,3.3809,3.3686,3.3495,3.3298,3.3106,3.2796,3.2386,3.2398,3.2437,3.2478,2.9873,2.9272,3.074,3.2041,3.3181,3.4279,3.4784,3.4772,3.418,3.2705,3.1646,3.1127,3.06,2.975,2.8576,2.8012,2.7023,2.5486,2.5007,2.4363,2.3517,0.0,0.0,0.0,0.0,0.0,0.0,0.0,0.0,0.0,0.0,0.0,0.0,0.0,0.0,0.0,1.7507,0.0,1.8746,1.8763,0.0,0.0,0.0,1.8632,1.8851,1.9132,1.9617,2.0469,0.0,0.0,2.3928,2.4756,2.5342,2.561,2.5948,2.6292,2.6605,2.6738,2.6792,2.6664,2.7306,2.7546,2.6905,2.7177,2.7355,2.7058,2.6946,2.6967,2.7197,2.717,2.719,2.719,2.721,2.717,2.721,2.6914,2.6928,2.661,2.6593,2.6458,2.6088,2.6411,2.6585,4.004,3.9319,3.9644,3.8716,3.7037,3.7037,3.7055,3.7092,3.6882,3.6292,3.5339,3.4056,3.2971,3.2089,3.2999,3.333,3.3243,3.4629,3.5066,3.4654,3.5223,3.569,3.6033,3.6039,3.5945,3.5804,3.562,3.529,3.4935,3.4915,3.5115,3.5445,3.5021,3.4217,3.3103,3.373,3.4896,3.6498,3.632,3.5534,3.4233,3.3232,3.2513,3.2084,3.058,2.9724,2.9528,2.7888,2.6798,2.6365,2.5364,2.4531,2.391,2.4449,0.0,0.0,0.0,0.0,0.0,0.0,0.0,0.0,0.0,1.896,1.8496,0.0,1.8825,0.0,1.8719,1.9153,1.9657,1.9374,0.0,0.0,1.9598,1.986,2.0396,2.0787,2.1526,2.2815,2.349,2.4151,2.5018,2.5491,2.5775,2.5822,2.5906,2.6228,2.6966,2.6655,2.6533,2.6999,2.727,2.7428,2.754,2.7402,2.7399,2.7674,2.7277,2.7119,2.7715,2.7483,2.7251,2.7391,2.729,2.7292,2.7415,2.7589,2.7719,2.7636,2.7386,2.7182,2.7217,2.713,2.7039,4.2519,4.2012,4.242,4.1791,4.0499,4.0021,3.9835,3.9806,3.9419,3.8484,3.7185,3.6277,3.5352,3.4596,3.5647,3.5971,3.5729,3.6591,3.6784,3.6406,3.6751,3.7082,3.7267,3.723,3.7217,3.7227,3.7018,3.6912,3.6873,3.6764,3.711,3.7785,3.7727,3.737,3.677,3.6478,3.7014,3.8372,3.7414,3.6117,3.4552,3.3672,3.3024,3.2506,3.0868,2.9962,2.998,2.8365,2.7369,2.7185,2.6129,2.5335,2.492,2.4927,2.4544,0.0,0.0,0.0,0.0,0.0,0.0,0.0,0.0,0.0,0.0,0.0,2.0375,2.0345,2.0374,2.0608,2.1191,2.0703,2.0444,2.0773,2.074,2.0893,2.1362,2.2123,2.298,2.3881,2.4489,2.5057,2.5594,2.5794,2.5948,2.6032,2.6053,2.6379,2.7188,2.6853,2.6707,2.7573,2.7587,2.7635,2.8002,2.7736,2.7566,2.7694,2.7433,2.7323,2.7699,2.7538,2.7371,2.7473,2.7597,2.7699,2.7761,2.8071,2.8377,2.8564,2.8461,2.8248,2.8165,2.8121,2.8166,4.4879,4.4761,4.4317,4.4069,4.3867,4.3032,4.2445,4.2042,4.1365,4.0438,3.9255,3.8428,3.7823,3.7455,3.8204,3.8171,3.7638,3.8235,3.8282,3.7848,3.7909,3.8021,3.8175,3.7979,3.8027,3.8217,3.8048,3.819,3.8582,3.8352,3.8797,3.975,3.914,3.9408,4.0534,3.9408,3.9096,3.976,3.8249,3.6735,3.5313,3.422,3.3407,3.2903,3.1224,3.0206,3.0053,2.89,2.8127,2.7773,2.6898,2.6277,2.606,2.5255,2.4701,0.0,2.4388,0.0,0.0,0.0,0.0,0.0,0.0,0.0,0.0,2.1633,2.2104,2.2622,2.2212,2.2235,2.2919,2.2268,2.1897,2.2021,2.1915,2.1934,2.2223,2.3308,2.4179,2.4511,2.5269,2.5843,2.6134,2.6135,2.6218,2.6343,2.6364,2.6719,2.7476,2.7133,2.7137,2.8348,2.8298,2.814,2.8126,2.8022,2.7864,2.7667,2.758,2.7577,2.7694,2.7621,2.7574,2.7618,2.7973,2.8171,2.8022,2.842,2.8907,2.9206,2.9367,2.9349,2.9037,2.9127,2.9353,4.5699,4.5332,4.6245,4.6091,4.5274,4.5608,4.4344,4.2121,4.2457,4.2196,4.143,4.04,3.9805,3.9524,3.9674,3.9519,3.9155,3.9887,3.9815,3.906,3.9615,3.9778,3.9599,3.9578,3.9686,3.9908,3.9886,4.0208,4.0773,4.0372,4.0639,4.1484,4.0703,4.0852,4.1846,0.0,0.0,0.0,3.8757,3.7903,3.7304,3.5022,3.3947,3.4066,3.1299,0.0,2.9874,2.8478,2.763,2.7529,2.679,0.0,0.0,0.0,0.0,0.0,0.0,0.0,0.0,0.0,0.0,0.0,2.523,2.4604,2.2176,2.2476,2.3191,2.3983,2.3867,2.3752,2.3925,2.3304,2.29,2.2961,2.3104,2.3349,2.3722,2.4451,2.5314,2.6292,2.6547,2.686,2.7284,2.7447,2.7305,2.7042,2.7001,2.7252,2.7866,2.7453,2.7702,2.915,2.9112,2.8736,2.8073,2.8082,2.812,2.8143,2.7976,2.7964,2.8245,2.8031,2.7901,2.8022,2.8178,2.8249,2.8,2.868,2.9251,2.8952,2.9504,3.0033,2.992,2.9693,2.9533,4.6942,0.0,4.6757,4.6463,0.0,4.5153,4.4157,4.3079,4.3581,4.3185,4.2155,4.1579,4.1089,4.0781,4.1186,4.0962,4.0288,4.1022,4.1033,4.0516,4.0851,4.0926,4.0767,4.0767,4.0715,4.0572,4.0544,4.0716,4.1036,4.0823,4.105,4.1681,4.1029,4.1233,4.2245,4.1523,4.0688,3.9809,3.9318,3.86,3.7593,3.5981,3.4941,3.4452,3.1953,0.0,0.0,0.0,0.0,0.0,0.0,0.0,0.0,2.742,0.0,2.6171,2.6418,2.6302,2.5666,2.576,2.5726,2.5477,2.5923,2.5578,2.4123,2.415,2.4464,2.5028,2.5032,2.4994,2.4954,2.44,2.4075,2.4178,2.4221,2.4367,2.4724,2.5481,2.626,2.68,2.7144,2.749,2.777,2.781,2.777,2.7693,2.7571,2.7778,2.8386,2.7818,2.7705,2.8813,2.9138,2.894,2.8342,2.8183,2.821,2.8224,2.8147,2.816,2.8349,2.8208,2.8039,2.811,2.8474,2.868,2.8184,2.8989,2.9711,2.9297,2.9688,3.0193,3.0193,3.0011,2.9875,4.8234,4.8009,4.7021,4.6526,4.6339,4.4443,4.3833,4.4153,0.0,0.0,0.0,4.2187,4.1885,4.155,4.2236,4.2009,4.1121,4.1767,4.192,4.1681,4.1793,4.1771,4.1659,4.1637,4.1284,4.0716,4.0716,4.0759,4.0795,4.0759,4.0951,4.1311,4.0923,4.1141,4.1945,4.1733,4.1053,3.9985,3.9873,3.918,3.7868,3.6897,3.5909,3.4948,3.2841,3.1601,3.1339,3.0125,2.9614,2.9918,2.924,2.8849,2.8812,2.8175,2.7527,2.6946,2.6818,2.679,2.6733,2.6504,2.6398,2.6511,2.6434,2.631,2.612,2.5811,2.574,2.5949,2.5961,2.5925,2.5925,2.5415,2.5168,2.5295,2.5274,2.5337,2.5548,2.6426,2.7085,2.7249,2.7713,2.8031,2.8191,2.8211,2.8215,2.8315,2.8175,2.8194,2.88,2.8345,2.7976,2.8285,2.8695,2.8855,2.8486,2.8279,2.8199,2.8203,2.8243,2.8259,2.8259,2.8239,2.8159,2.8022,2.8701,2.8727,2.8226,2.9019,2.9848,2.9458,2.9825,3.0216,3.0216,3.0216,3.0193,4.9074,4.848,4.7969,4.7546,4.7116,4.6387,4.5574,4.4698,4.3696,4.3103,4.2849,4.2333,4.2071,4.1989,4.1901,4.1663,4.1382,4.1974,4.213,4.1971,4.2487,4.243,4.1949,4.1702,4.1306,4.0744,4.0716,4.093,4.1227,4.0908,4.0951,4.129,4.0951,4.0787,4.0942,4.1384,4.1228,4.0575,4.0161,3.9976,3.9917,3.759,3.6422,3.6532,3.3717,3.1951,3.1551,3.0548,2.9805,2.9431,2.8967,2.8569,2.8266,2.8249,2.7808,2.7007,2.7311,2.7473,2.7295,2.7415,2.7684,2.8096,2.7849,2.7322,2.6523,2.6536,2.6701,2.6935,2.666,2.6502,2.6461,2.6029,2.5738,2.5864,2.6302,2.6612,2.6633,2.7246,2.7874,2.8375,2.8593,2.8914,2.9307,2.9429,2.9326,2.9204,2.885,2.8602,2.8626,2.9155,2.9186,2.8549,2.8648,2.8661,2.8221,2.8119,2.8179,2.8199,2.8339,2.8443,2.8419,2.8467,2.8411,2.8203,2.8548,2.8438,2.7818,2.8668,2.925,2.9067,2.9573,3.0193,3.0238,3.0261,3.0238,4.9339,4.8727,4.7967,4.7344,4.6866,4.6432,4.5332,4.3913,4.3631,4.334,4.2934,4.2353,4.2092,4.215,4.2684,4.263,4.213,4.2947,4.3028,4.2553,4.2992,4.2699,4.1853,4.2046,4.1615,4.0744,4.0716,4.0816,4.0993,4.0795,4.0823,4.1015,4.1111,4.1003,4.0772,4.1284,4.1306,4.0716,4.0494,4.029,4.004,3.8613,3.7619,3.7174,3.5022,3.3613,3.3008,3.2136,3.1355,3.0686,3.0286,2.9719,2.902,2.8826,2.8451,2.782,2.7998,2.8079,2.8024,2.8059,2.8258,2.8478,2.8606,2.8451,2.7911,2.7572,2.7382,2.7368,2.7106,2.688,2.6779,2.6322,2.6157,2.6428,2.6738,2.7024,2.7389,2.7931,2.8474,2.8771,2.9131,2.9468,2.9765,2.9779,2.9818,2.9715,2.938,2.9027,2.8775,2.8933,2.8892,2.8382,2.8648,2.8678,2.8197,2.8119,2.8239,2.8339,2.8439,2.8502,2.8526,2.859,2.8624,2.8488,2.8618,2.8526,2.79,2.8717,2.9156,2.9127,2.9593,3.0192,3.0533,3.0646,3.0646,4.9585,4.8936,4.7965,4.7199,4.6637,4.6256,4.4995,4.334,4.3797,4.3544,4.2789,4.2295,4.2092,4.2208,4.3137,4.3263,4.2854,4.3702,4.3732,4.3073,4.3438,4.2958,4.1821,4.2193,4.1783,4.08,4.0716,4.073,4.0865,4.1,4.1169,4.131,4.1652,4.1502,4.094,4.1531,4.1446,4.0772,4.0716,4.0491,4.0013,3.9465,3.8705,3.7717,3.6504,3.5479,3.4653,3.382,3.3021,3.2261,3.1785,3.109,3.017,2.9791,2.9351,2.8775,2.8691,2.8619,2.8502,2.8718,2.8791,2.8691,2.9294,2.9501,2.9168,2.8715,2.8251,2.7962,2.751,2.7215,2.7258,2.6705,2.6491,2.7016,2.7174,2.7452,2.7995,2.8633,2.9032,2.9091,2.9488,2.976,2.9798,2.9862,2.9856,2.9831,2.9599,2.9303,2.908,2.8558,2.8247,2.8245,2.8502,2.8546,2.821,2.8179,2.8279,2.8483,2.8643,2.8715,2.8747,2.8848,2.8813,2.8675,2.8682,2.8541,2.819,2.8814,2.9316,2.9352,2.9842,3.0419,3.0872,3.1005,3.105,5.0073,4.904,4.8499,4.7766,4.6776,4.6708,4.5634,4.403,4.3979,4.3333,4.2287,4.2121,4.2092,4.2092,4.2287,4.2481,4.2753,4.3596,4.3733,4.331,4.3865,4.3383,4.1949,4.1809,4.1362,4.0793,4.0787,4.1107,4.1433,4.1931,4.2467,4.2936,4.2703,4.2149,4.1671,4.2149,4.1918,4.0744,4.0716,4.0688,4.0575,3.9858,3.9262,3.8946,3.7869,3.683,3.5868,3.508,3.4252,3.3477,3.2868,3.2131,3.1357,3.1195,3.0584,2.935,2.922,2.9027,2.8639,2.9358,2.9687,2.9325,3.0114,3.0389,2.9806,2.9843,2.9711,2.9169,2.8027,2.7683,2.8379,2.7404,2.6956,2.7669,2.795,2.8239,2.8721,2.9287,2.9682,2.9702,2.9821,2.9804,2.9924,3.0015,2.9945,2.977,2.9475,2.9209,2.8964,2.8586,2.8319,2.8175,2.8128,2.8086,2.8056,2.8102,2.8422,2.8603,2.8931,2.9172,2.9227,2.9108,2.8946,2.9004,2.8612,2.843,2.8441,2.8791,2.9545,2.9764,3.0157,3.0668,3.0962,3.1139,3.1251,5.0079,4.8945,4.8125,4.7206,4.6318,4.6272,4.5605,4.4552,4.4175,4.3456,4.2656,4.2506,4.2331,4.2121,4.2469,4.2718,4.2923,4.3495,4.338,4.2789,4.3228,4.2638,4.1416,4.2241,4.2278,4.1831,4.2353,4.2611,4.2538,4.2555,4.2458,4.2351,4.2485,4.2452,4.2205,4.2452,4.2143,4.1278,4.125,4.1053,4.0694,4.027,3.9901,3.9581,3.873,3.7892,3.7058,3.6354,3.5537,3.4675,3.4031,3.3168,3.1996,3.1607,3.0898,2.9897,3.0039,3.0208,3.0256,3.0656,3.0674,3.0224,3.0838,3.103,3.0524,3.0524,3.0599,3.0546,2.9248,2.8339,2.8265,2.7664,2.7583,2.8157,2.8458,2.8897,2.9777,3.0099,3.0382,3.0658,3.0482,3.0407,3.0628,3.0511,3.0458,3.0343,2.9988,2.9593,2.9784,2.9362,2.9011,2.9046,2.891,2.8733,2.8639,2.9041,2.9289,2.944,2.9625,2.9773,2.9755,2.977,2.968,2.9571,2.9225,2.8988,2.8975,2.9243,2.9746,3.0081,3.0738,3.125,3.1184,3.1362,3.1614,5.0175,4.9157,4.8014,4.7207,4.6616,4.6418,4.5884,4.5133,4.4523,4.3776,4.3034,4.2851,4.2518,4.2241,4.2682,4.3007,4.3169,4.3357,4.32,4.2819,4.2965,4.2549,4.1853,4.273,4.3177,4.3056,4.3452,4.3711,4.3475,4.3,4.2687,4.2608,4.275,4.2846,4.2846,4.2874,4.2514,4.1952,4.1868,4.1671,4.1256,4.0901,4.0578,4.0211,3.9534,3.8831,3.8216,3.7457,3.6654,3.5804,3.5053,3.4079,3.2823,3.2185,3.1479,3.0639,3.0806,3.1083,3.1288,3.1562,3.1477,3.0957,3.1424,3.1635,3.1247,3.1117,3.1214,3.124,3.0148,2.9124,2.9106,2.8668,2.8712,2.9326,2.9451,2.9845,3.0658,3.0814,3.0959,3.1286,3.1035,3.0884,3.106,3.0894,3.0726,3.0449,3.0183,2.9975,3.0341,2.9862,2.9579,2.983,2.9747,2.9539,2.9218,2.9368,2.9827,2.9917,2.9914,3.0131,3.0254,3.0321,3.0228,2.9946,2.9786,2.968,2.9519,2.9744,3.0175,3.0553,3.1099,3.1606,3.1451,3.1606,3.1795,5.0537,4.9794,4.8645,4.8157,4.8303,4.7603,4.6819,4.5788,4.5133,4.4175,4.3179,4.3047,4.2706,4.2233,4.2711,4.306,4.3457,4.3198,4.3377,4.3748,4.3465,4.3567,4.4091,4.3596,4.3668,4.4128,4.3871,4.3779,4.4075,4.3507,4.3786,4.4738,4.3873,4.3441,4.3441,4.3469,4.316,4.2621,4.2565,4.2508,4.2396,4.1846,4.1345,4.0919,4.0272,3.9699,3.9295,3.8256,3.7422,3.6955,3.5937,3.4885,3.3913,3.335,3.257,3.1702,3.1535,3.1364,3.1191,3.1843,3.1924,3.1226,3.1788,3.213,3.1663,3.1597,3.1452,3.0997,3.0494,3.0465,3.1304,3.0398,3.0302,3.1285,3.1183,3.1102,3.1315,3.1381,3.1361,3.1461,3.1507,3.1311,3.0834,3.0923,3.0575,2.9984,2.9824,3.0055,2.9866,2.9801,2.9944,3.0209,3.0326,3.0198,2.9314,2.9675,2.968,2.9773,3.0299,3.0347,3.0551,3.0706,3.049,3.0317,3.0257,3.015,3.0038,3.0267,3.0792,3.1155,3.1352,3.1629,3.1752,3.1699,3.1984,4.9979,4.8684,4.827,4.7962,4.7681,4.7155,4.6727,4.6262,4.5302,4.4588,4.4158,4.4343,4.4113,4.3542,4.4121,4.3933,4.3244,4.3055,4.3425,4.4107,4.4007,4.4157,4.4557,4.4825,4.5124,4.5355,4.5383,4.4971,4.4224,4.4021,4.398,4.4065,4.4096,4.4088,4.4088,4.4088,4.3778,4.3245,4.316,4.2992,4.2649,4.2345,4.2245,4.2235,4.078,3.983,3.9451,3.9028,3.8588,3.8106,3.708,3.6032,3.502,3.3848,3.317,3.3102,3.3007,3.3057,3.3211,3.3233,3.286,3.2,3.219,3.2203,3.1827,3.1693,3.1621,3.1406,3.1238,3.162,3.204,3.1198,3.0683,3.1582,3.168,3.1726,3.2024,3.2021,3.2039,3.2386,3.2592,3.2303,3.1473,3.1418,3.1371,3.0882,3.0697,3.0636,3.0786,3.0826,3.0902,3.1329,3.127,3.097,3.0806,3.0791,3.0853,3.078,3.0925,3.0973,3.1146,3.0826,3.0585,3.0804,3.0763,3.0696,3.0609,3.0744,3.1273,3.1473,3.1673,3.1793,3.2152,3.2056,3.2418,4.9512,4.8309,4.8197,4.7958,4.7527,4.7072,4.6771,4.6593,4.58,4.5266,4.506,4.5415,4.5302,4.4798,4.5007,4.4756,4.3949,4.3714,4.4001,4.4678,4.4771,4.5145,4.5752,4.619,4.6398,4.6359,4.638,4.5772,4.4755,4.4847,4.479,4.4504,4.465,4.4682,4.4654,4.4514,4.4172,4.3863,4.3778,4.3582,4.3211,4.2986,4.2934,4.2823,4.1546,4.0452,3.9972,3.9673,3.9114,3.8353,3.7454,3.6481,3.5365,3.4291,3.3903,3.4322,3.4344,3.4369,3.4524,3.4148,3.3506,3.2763,3.2501,3.2295,3.198,3.1813,3.1717,3.1693,3.1524,3.1826,3.2468,3.1743,3.1381,3.2286,3.2475,3.252,3.2772,3.2702,3.2836,3.3148,3.3416,3.298,3.201,3.2077,3.1846,3.1368,3.1093,3.1332,3.136,3.1643,3.1691,3.2064,3.1843,3.1629,3.1439,3.1363,3.1163,3.1115,3.1021,3.1214,3.1384,3.1017,3.0908,3.1175,3.1273,3.1252,3.1275,3.134,3.1496,3.1673,3.1695,3.1767,3.208,3.2346,3.2683,4.9312,4.8686,4.8614,4.8487,4.8055,4.7625,4.7178,4.6849,4.6622,4.6153,4.5701,4.61,4.599,4.5529,4.5124,4.5184,4.5528,4.5147,4.5207,4.5723,4.586,4.6638,4.7837,4.7417,4.7143,4.7034,4.6436,4.5869,4.5367,4.5802,4.6083,4.6055,4.5525,4.53,4.53,4.4851,4.4486,4.4401,4.4401,4.4345,4.4317,4.3778,4.3406,4.3171,4.2511,4.1814,4.1129,4.0291,3.9236,3.7831,3.7119,3.613,3.5066,3.4682,3.4928,3.5331,3.5398,3.5153,3.4748,3.4224,3.3721,3.3252,3.2802,3.2558,3.2465,3.2056,3.1789,3.1743,3.1402,3.1534,3.2632,3.2495,3.2638,3.3808,3.3667,3.3483,3.3416,3.3382,3.3471,3.3641,3.381,3.3432,3.252,3.2411,3.2176,3.1089,3.1093,3.1522,3.1392,3.1828,3.2081,3.2054,3.2059,3.2079,3.1879,3.168,3.1351,3.1115,3.0997,3.1069,3.1406,3.1297,3.1183,3.1378,3.1518,3.1473,3.1473,3.1562,3.1704,3.1815,3.1767,3.1887,3.2273,3.2587,3.2683,4.9989,4.9435,4.9866,4.9271,4.8205,4.8429,4.8127,4.732,4.7242,4.6823,4.6388,4.6764,4.6504,4.5849,4.5843,4.6196,4.6567,4.6948,4.7277,4.7382,4.717,4.785,4.8895,4.841,4.7665,4.7126,4.6837,4.6452,4.6099,4.6223,4.6307,4.6223,4.6111,4.5998,4.5998,4.5774,4.5521,4.5047,4.5019,4.4823,4.4429,4.4228,4.4069,4.3971,4.364,4.3059,4.2296,4.1305,4.01,3.8716,3.7852,3.6621,3.5242,3.5102,3.5484,3.5938,3.5666,3.5438,3.5255,3.4468,3.3809,3.338,3.3163,3.3044,3.3019,3.2585,3.225,3.2202,3.1789,3.1899,3.271,3.2871,3.3255,3.4183,3.4105,3.3915,3.3831,3.3704,3.3662,3.3683,3.3641,3.3246,3.2675,3.2652,3.2203,3.1412,3.15,3.1663,3.1942,3.2141,3.2655,3.2857,3.2738,3.2413,3.2095,3.1855,3.1634,3.1354,3.119,3.1141,3.1454,3.1551,3.146,3.1462,3.1625,3.1695,3.1717,3.1813,3.1936,3.2008,3.2032,3.2297,3.2706,3.2923,3.3068,5.0451,5.0143,5.0318,4.9504,4.8192,4.8492,4.794,4.7026,4.7102,4.7,4.6903,4.7157,4.7046,4.6614,4.6609,4.6902,4.743,4.7918,4.8506,4.9125,4.8878,4.9221,4.9686,4.8673,4.7817,4.7248,4.7088,4.691,4.6645,4.6869,4.6982,4.6982,4.6757,4.6616,4.6588,4.6392,4.6055,4.5689,4.5412,4.5216,4.5043,4.465,4.4486,4.4631,4.4373,4.3854,4.3207,4.2256,4.0843,3.9218,3.7913,3.6676,3.5733,3.5981,3.6342,3.6642,3.6273,3.5855,3.5784,3.4914,3.4198,3.3909,3.3669,3.3549,3.3477,3.3092,3.2803,3.2731,3.2513,3.2581,3.3158,3.3549,3.3962,3.4632,3.4339,3.411,3.4063,3.3958,3.3915,3.3894,3.3747,3.3322,3.2914,3.2528,3.2223,3.1827,3.1717,3.1871,3.2291,3.2528,3.2954,3.3246,3.3164,3.2746,3.2299,3.207,3.1913,3.166,3.143,3.1454,3.1599,3.1551,3.148,3.1577,3.1695,3.1695,3.1717,3.1984,3.2176,3.2224,3.2393,3.273,3.3116,3.3404,3.3573,5.079,5.0694,5.0235,4.9452,4.8401,4.8089,4.7385,4.6373,4.6644,4.7111,4.7368,4.7312,4.7543,4.7762,4.7155,4.7436,4.8292,4.8333,4.9187,5.05,5.072,5.0528,4.9757,4.8541,4.7793,4.7439,4.7306,4.7284,4.7291,4.7687,4.808,4.7912,4.7463,4.7238,4.7154,4.6701,4.6476,4.6279,4.5777,4.5777,4.6135,4.5147,4.4757,4.5235,4.4734,4.428,4.3796,4.2786,4.1212,3.9027,3.7491,3.6923,3.7062,3.7159,3.7348,3.7696,3.6926,3.6378,3.6143,3.5282,3.4703,3.4607,3.427,3.403,3.3982,3.3645,3.3332,3.3332,3.3235,3.3361,3.3809,3.4229,3.4771,3.5176,3.4824,3.4432,3.4208,3.4208,3.4281,3.4297,3.3988,3.3522,3.3061,3.2673,3.2233,3.1849,3.1717,3.1937,3.2422,3.2791,3.304,3.3394,3.3832,3.3348,3.2981,3.2564,3.2357,3.1735,3.1575,3.1623,3.1671,3.1599,3.1695,3.1767,3.1837,3.1789,3.1982,3.2369,3.2635,3.2827,3.302,3.3236,3.3477,3.3717,3.3862,5.1898,5.1432,5.1424,5.0487,4.9172,4.9419,4.8958,4.8021,4.7913,4.7953,4.8158,4.7599,4.7501,4.7688,4.7844,4.8291,4.9044,4.9727,5.0578,5.1622,5.2074,5.1174,4.9864,4.8782,4.8144,4.7928,4.7897,4.7856,4.7884,4.808,4.8137,4.8108,4.794,4.7828,4.7825,4.7631,4.735,4.7038,4.6841,4.6504,4.6247,4.574,4.5444,4.5501,4.502,4.45,4.3926,4.2628,4.1082,3.9317,3.8238,3.7862,3.8177,3.7959,3.7842,3.7717,3.6986,3.6217,3.5788,3.5187,3.4823,3.4799,3.4655,3.4583,3.4558,3.4126,3.3862,3.3766,3.3549,3.3676,3.4304,3.465,3.5095,3.5721,3.5692,3.5388,3.5049,3.4966,3.4881,3.4513,3.4081,3.3646,3.3231,3.2788,3.2355,3.1976,3.1854,3.212,3.2903,3.333,3.3709,3.4602,3.4956,3.4259,3.3702,3.3256,3.2685,3.1922,3.1717,3.1719,3.1743,3.1671,3.1936,3.22,3.2176,3.2152,3.2609,3.3067,3.326,3.3357,3.3452,3.3573,3.3742,3.3958,3.4006,5.2793,5.2656,5.2193,5.116,4.9877,4.994,4.9368,4.8423,4.7922,4.812,4.8319,4.7776,4.7726,4.8216,4.8589,4.9194,5.0005,5.0667,5.147,5.2238,5.2521,5.162,5.0193,4.9305,4.8855,4.8555,4.878,4.8893,4.8836,4.8614,4.8502,4.8445,4.8221,4.8108,4.808,4.808,4.794,4.7575,4.7375,4.7094,4.701,4.6434,4.6332,4.6238,4.5747,4.4964,4.4029,4.3015,4.1658,4.0178,3.9317,3.8985,3.8762,3.8644,3.8258,3.7717,3.6836,3.618,3.5621,3.5114,3.4823,3.4799,3.4799,3.4799,3.4751,3.4511,3.4318,3.4294,3.4078,3.4331,3.4919,3.537,3.6016,3.6717,3.6854,3.6515,3.5757,3.5626,3.5388,3.4952,3.4467,3.4,3.3553,3.3124,3.2864,3.2687,3.2558,3.3143,3.3859,3.4135,3.4576,3.5478,3.5852,3.5241,3.4654,3.4229,3.3523,3.2704,3.22,3.2176,3.208,3.2054,3.2361,3.2626,3.2583,3.2706,3.3232,3.3618,3.3669,3.3742,3.3813,3.3982,3.4198,3.4198,3.4246,5.3658,5.4024,5.2658,5.1584,5.066,4.9914,4.9133,4.8056,4.7515,4.7829,4.8492,4.8092,4.8477,4.9352,4.9636,5.0117,5.1021,5.1271,5.1931,5.2512,5.2671,5.1911,5.0841,5.0212,4.9654,4.9279,4.9762,4.9846,4.9677,4.9314,4.9063,4.8867,4.8445,4.8165,4.8137,4.8108,4.8108,4.7968,4.7603,4.7625,4.7756,4.7295,4.7096,4.7311,4.6619,4.5534,4.4517,4.3752,4.2803,4.092,4.0651,4.0046,3.9246,3.9282,3.8625,3.7586,3.6972,3.6455,3.5795,3.5332,3.5039,3.5087,3.5087,3.4967,3.5063,3.4991,3.4895,3.4895,3.4823,3.499,3.559,3.6411,3.7046,3.7541,3.7769,3.7325,3.6593,3.6227,3.5981,3.5475,3.5004,3.4574,3.4095,3.3749,3.3586,3.3695,3.359,3.3945,3.4584,3.4958,3.5517,3.631,3.641,3.6229,3.5711,3.519,3.4406,3.3616,3.3108,3.2875,3.2731,3.2751,3.298,3.3147,3.3321,3.3563,3.3924,3.4121,3.4196,3.4174,3.427,3.4511,3.4727,3.4607,3.4583,5.4745,5.425,5.3208,5.2274,5.1329,5.0378,4.9722,4.9228,4.8566,4.8827,4.9675,4.9182,4.9494,5.0517,5.0883,5.1369,5.1698,5.2127,5.2784,5.3354,5.3061,5.26,5.1822,5.1298,5.054,5.0029,4.9902,5.0041,4.9987,4.993,4.9539,4.912,4.8897,4.8586,4.8193,4.8137,4.8108,4.808,4.794,4.8066,4.8267,4.7978,4.7795,4.8027,4.7291,4.6248,4.524,4.4597,4.3918,4.2976,4.2008,4.1213,4.0459,4.0145,3.9264,3.8066,3.7618,3.7196,3.6425,3.6078,3.605,3.5954,3.593,3.6049,3.6026,3.5616,3.5448,3.5352,3.5088,3.5308,3.6188,3.6745,3.7407,3.7886,3.8031,3.7874,3.7508,3.709,3.647,3.5788,3.5445,3.5146,3.4704,3.4611,3.4556,3.4622,3.472,3.485,3.5271,3.5788,3.6308,3.6966,3.7082,3.6903,3.6432,3.5859,3.5071,3.4394,3.3926,3.3621,3.3477,3.3543,3.3801,3.3992,3.4187,3.4477,3.4786,3.4961,3.5159,3.4944,3.4751,3.4848,3.4945,3.4896,3.4919,5.5117,5.4911,5.3699,5.2777,5.2108,5.1154,5.0501,5.0032,4.9117,4.9352,5.0171,4.9862,5.0336,5.1425,5.1929,5.2306,5.2737,5.3322,5.3814,5.4168,5.4157,5.3803,5.3149,5.2762,5.2133,5.0786,5.0879,5.105,5.1137,5.0824,5.0569,5.0213,4.9513,4.8869,4.8502,4.8249,4.8277,4.8417,4.8249,4.8345,4.8764,4.856,4.8362,4.8427,4.8004,4.7305,4.64,4.5933,4.526,4.4434,4.3521,4.2332,4.1021,4.046,3.9399,3.8006,3.7733,3.7364,3.6661,3.6512,3.6539,3.6435,3.6411,3.6411,3.6386,3.6122,3.6026,3.593,3.5836,3.5989,3.7014,3.7595,3.8067,3.8564,3.8661,3.8579,3.8243,3.7746,3.7131,3.6465,3.6278,3.6024,3.5742,3.5503,3.5737,3.5879,3.5567,3.572,3.639,3.6819,3.6916,3.7351,3.7639,3.7576,3.712,3.6488,3.5645,3.5055,3.4533,3.4318,3.4222,3.4388,3.4624,3.4815,3.5005,3.5385,3.5698,3.5879,3.5931,3.5763,3.5523,3.5307,3.5308,3.5576,3.5526,5.5615,5.5879,5.4306,5.342,5.29,5.188,5.1155,5.0676,4.9533,4.9778,5.0502,5.0515,5.1121,5.201,5.2465,5.3076,5.366,5.4276,5.4583,5.4891,5.5237,5.4843,5.4291,5.4221,5.3649,5.1714,5.1884,5.231,5.2343,5.203,5.1608,5.1476,5.0354,4.9428,4.9007,4.8532,4.8417,4.8614,4.8474,4.8706,4.9354,4.9266,4.9243,4.9146,4.9074,4.8514,4.7674,4.7181,4.6637,4.5684,4.5052,4.3549,4.1856,4.0541,3.9573,3.7816,3.8024,3.7748,3.7198,3.7002,3.7003,3.6677,3.6675,3.6699,3.6723,3.6627,3.6531,3.6509,3.654,3.6821,3.789,3.8316,3.8841,3.9366,3.9573,3.9364,3.8893,3.8347,3.7753,3.715,3.6841,3.658,3.649,3.6348,3.6754,3.701,3.6693,3.6625,3.7277,3.7616,3.7541,3.7541,3.7772,3.7644,3.7212,3.6973,3.6179,3.5707,3.5209,3.5113,3.5041,3.5256,3.5465,3.561,3.5873,3.618,3.6344,3.6425,3.643,3.6408,3.6369,3.6182,3.6234,3.6357,3.6211,5.7407,5.6883,5.5759,5.4708,5.3577,5.2113,5.1473,5.1333,5.0462,5.0821,5.1709,5.1776,5.1934,5.2526,5.2639,5.3076,5.3876,5.4614,5.5106,5.5499,5.579,5.5536,5.5457,5.5422,5.4879,5.4008,5.3312,5.3005,5.3156,5.2959,5.2594,5.1953,5.1393,5.0607,4.9485,4.8867,4.8642,4.867,4.8698,4.9126,4.9708,5.0138,5.0331,5.0229,5.0162,4.9615,4.8659,4.8086,4.7558,4.7014,4.5961,4.479,4.3456,4.2185,4.0693,3.9471,3.9034,3.8677,3.8009,3.8004,3.7948,3.7788,3.7613,3.7663,3.7565,3.7324,3.7108,3.7094,3.7134,3.7393,3.7941,3.8625,3.9086,3.9481,3.9778,3.9723,3.9461,3.9092,3.8475,3.7862,3.7498,3.7178,3.7155,3.7132,3.7294,3.7505,3.7393,3.726,3.7576,3.7795,3.7795,3.7821,3.7874,3.7575,3.7199,3.708,3.673,3.6377,3.5998,3.5952,3.5929,3.6096,3.6285,3.6259,3.64,3.6658,3.6803,3.6949,3.7057,3.7164,3.7153,3.7089,3.7168,3.7245,3.7122,5.701,5.6604,5.5558,5.4646,5.3717,5.2529,5.1824,5.1482,5.0793,5.0911,5.1552,5.1892,5.2246,5.2678,5.3106,5.3775,5.4699,5.5492,5.5961,5.6293,5.659,5.6592,5.6402,5.6384,5.6031,5.54,5.4562,5.4156,5.4313,5.4002,5.3693,5.3274,5.2487,5.1309,5.0355,4.9457,4.9176,4.9033,4.9089,4.9411,5.013,5.0735,5.103,5.1081,5.0884,5.0336,4.9827,4.9009,4.8362,4.7701,4.6999,4.6094,4.49,4.3463,4.1761,4.0262,3.9672,3.9206,3.8605,3.85,3.8398,3.8029,3.8,3.8,3.7952,3.776,3.7589,3.7678,3.798,3.8266,3.8868,3.9315,4.0003,4.0702,4.0874,4.0812,4.0765,4.0517,3.9826,3.8915,3.8266,3.7988,3.792,3.7897,3.7851,3.792,3.8015,3.7992,3.7969,3.79,3.79,3.79,3.79,3.7814,3.7513,3.74,3.7458,3.7128,3.689,3.6819,3.6745,3.6892,3.6765,3.6664,3.6851,3.729,3.7472,3.7692,3.7835,3.7978,3.8042,3.8103,3.8112,3.8091,3.7991,5.6577,5.6465,5.5519,5.4738,5.4014,5.294,5.2314,5.182,5.0998,5.1006,5.1582,5.2008,5.2459,5.3038,5.3783,5.4699,5.5745,5.6385,5.6693,5.681,5.7155,5.7291,5.7259,5.7084,5.6875,5.6677,5.6045,5.5721,5.5334,5.4993,5.4939,5.4487,5.3104,5.2121,5.1586,5.0436,5.0071,4.9651,4.9565,4.9695,5.0538,5.1316,5.1674,5.1791,5.1349,5.0975,5.0411,4.9837,4.8993,4.8313,4.779,4.7267,4.6135,4.474,4.2919,4.1028,3.9954,3.9206,3.8815,3.8657,3.8579,3.8159,3.8027,3.8,3.8,3.7952,3.8005,3.8218,3.8652,3.9196,3.9728,4.0381,4.1074,4.1703,4.2057,4.2199,4.201,4.1778,4.1406,4.0455,3.9362,3.8921,3.8979,3.8557,3.8534,3.8398,3.8466,3.8266,3.8197,3.7946,3.79,3.79,3.7926,3.8031,3.7898,3.7839,3.7976,3.8114,3.7948,3.783,3.7702,3.7623,3.7546,3.7621,3.7767,3.8183,3.8335,3.8527,3.8759,3.8955,3.9039,3.9129,3.9167,3.9045,3.8893,5.7906,5.762,5.7026,5.6236,5.5063,5.3451,5.2965,5.2988,5.1698,5.1828,5.263,5.268,5.2946,5.3722,5.4853,5.5468,5.5923,5.6416,5.6785,5.6871,5.7032,5.7383,5.7628,5.7299,5.7523,5.749,5.7175,5.6584,5.6074,5.5789,5.5619,5.5309,5.4743,5.3922,5.2619,5.1641,5.0999,5.0238,4.9985,5.0475,5.1487,5.2526,5.2758,5.2572,5.2223,5.1711,5.0753,5.0256,4.9599,4.8606,4.8446,4.7935,4.7082,4.6238,4.4815,4.2999,4.1308,3.9775,3.9283,3.9019,3.8708,3.8366,3.8133,3.8027,3.8106,3.8185,3.8368,3.871,3.9263,3.9828,4.0465,4.1293,4.184,4.2259,4.2579,4.2774,4.2801,4.281,4.2461,4.2117,4.1055,4.0525,4.03,3.969,3.9163,3.9029,3.8872,3.8655,3.8489,3.8323,3.824,3.8344,3.8397,3.8475,3.853,3.8418,3.8527,3.8889,3.8819,3.8724,3.862,3.8543,3.8919,3.9019,3.9042,3.8941,3.9005,3.9233,3.9653,3.9842,3.9878,4.0046,4.0286,4.0109,3.9804,5.7281,5.7468,5.6817,5.6002,5.506,5.3848,5.3217,5.2873,5.2151,5.2043,5.2534,5.2704,5.326,5.4337,5.5315,5.5899,5.6293,5.6631,5.681,5.6939,5.7161,5.7542,5.7779,5.7779,5.794,5.7932,5.764,5.713,5.6702,5.6504,5.6392,5.6164,5.5453,5.4799,5.3803,5.285,5.2288,5.1806,5.1549,5.1596,5.2252,5.2852,5.3227,5.3094,5.2801,5.2098,5.143,5.074,5.0106,4.9186,4.8892,4.8486,4.7668,4.6745,4.5504,4.4014,4.2806,4.1312,3.9823,3.945,3.9083,3.8546,3.8262,3.8133,3.8394,3.8788,3.9024,3.9258,4.0109,4.0668,4.1097,4.1918,4.2531,4.2919,4.3088,4.3403,4.3566,4.3575,4.3439,4.3119,4.28,4.2238,4.1636,4.1051,4.0418,3.9906,3.959,3.9207,3.9048,3.8935,3.8945,3.8998,3.905,3.9076,3.9155,3.9162,3.9164,3.9372,3.9372,3.9327,3.9399,3.9499,3.9782,3.9886,3.9736,3.9657,3.9627,3.986,4.015,4.0411,4.0672,4.0661,4.0643,4.082,4.0591,5.6785,5.7384,5.6559,5.5712,5.4915,5.4197,5.3487,5.2782,5.2342,5.2258,5.2507,5.2994,5.3906,5.4891,5.5684,5.6324,5.6755,5.6785,5.6785,5.7001,5.742,5.7762,5.7901,5.802,5.8089,5.8167,5.7584,5.7274,5.719,5.7077,5.6935,5.6936,5.6108,5.5566,5.5167,5.4316,5.344,5.3038,5.2778,5.26,5.264,5.2965,5.3174,5.3132,5.29,5.2483,5.1966,5.1439,5.058,4.9681,4.9265,4.888,4.8254,4.7443,4.6351,4.5222,4.4399,4.3384,4.1698,4.0659,3.9897,3.9384,3.8987,3.9197,3.9259,3.9724,4.0185,4.0364,4.092,4.1446,4.1843,4.2555,4.3039,4.3423,4.3662,4.4021,4.4256,4.4102,4.4022,4.3836,4.3617,4.365,4.3055,4.2458,4.1778,4.0982,4.0381,3.983,3.9717,3.9675,3.9654,3.9704,3.9466,3.9544,3.9756,3.9784,3.9836,3.9888,3.9914,3.9993,4.0148,4.0176,4.0306,4.0359,4.0332,4.0437,4.0437,4.0541,4.062,4.0829,4.0936,4.0816,4.0846,4.1073,4.1228,5.7342,5.8125,5.6933,5.5934,5.507,5.4426,5.3838,5.3112,5.2489,5.2472,5.298,5.3997,5.486,5.5592,5.6231,5.6662,5.6785,5.6785,5.6785,5.7001,5.7445,5.7692,5.7828,5.7918,5.8035,5.7936,5.7438,5.7215,5.7274,5.7102,5.7132,5.719,5.6679,5.6362,5.6019,5.5421,5.454,5.4136,5.3845,5.3292,5.2992,5.3032,5.3303,5.29,5.2861,5.2656,5.1819,5.1733,5.1235,5.0166,4.9877,4.9398,4.8908,4.8305,4.7336,4.6275,4.5983,4.501,4.3698,4.2187,4.1446,4.1372,4.1228,4.0797,4.0543,4.0845,4.1271,4.167,4.1965,4.2235,4.2701,4.3208,4.359,4.3757,4.3997,4.4162,4.4354,4.4326,4.4298,4.4373,4.4312,4.4172,4.4092,4.344,4.2713,4.1906,4.1374,4.0815,4.0686,4.0642,4.0473,4.033,3.9922,3.9935,4.0278,4.0385,4.0437,4.0567,4.0672,4.0803,4.0985,4.0985,4.0776,4.0881,4.0907,4.109,4.1168,4.1038,4.0985,4.1168,4.1224,4.11,4.1051,4.1205,4.1362,5.6307,5.7652,5.6379,5.5738,5.5535,5.4926,5.4132,5.3325,5.2828,5.292,5.3507,5.4698,5.5438,5.5892,5.6447,5.6785,5.6785,5.6785,5.6816,5.6855,5.7094,5.7289,5.7415,5.7517,5.7399,5.7196,5.6864,5.6752,5.6723,5.6868,5.7071,5.7103,5.705,5.6963,5.6676,5.6391,5.5733,5.519,5.4927,5.452,5.3708,5.3719,5.382,5.3242,5.3245,5.3126,5.2684,5.2574,5.1935,5.1323,5.0898,5.0337,4.964,4.9169,4.8244,4.701,4.6833,4.6226,4.535,4.373,4.2569,4.221,4.245,4.2652,4.21,4.2472,4.2556,4.2717,4.2873,4.3194,4.3304,4.376,4.4115,4.4162,4.4289,4.449,4.4486,4.4514,4.4401,4.4425,4.4425,4.4317,4.4345,4.4294,4.358,4.2819,4.2315,4.1906,4.1801,4.1622,4.151,4.1298,4.0914,4.0702,4.0997,4.1056,4.1061,4.1242,4.1398,4.1473,4.1547,4.1298,4.1167,4.1273,4.1324,4.1299,4.1299,4.1299,4.1299,4.1299,4.1377,4.1405,4.1383,4.1438,4.1776,5.6073,5.7512,5.6262,5.5719,5.564,5.5056,5.4212,5.3424,5.3248,5.3626,5.4337,5.5315,5.5862,5.6139,5.6508,5.6785,5.6878,5.7001,5.7093,5.7267,5.7475,5.7437,5.746,5.7433,5.7445,5.6804,5.6665,5.6752,5.681,5.6694,5.6955,5.716,5.7134,5.7162,5.7191,5.7077,5.6649,5.6247,5.59,5.5579,5.4566,5.4585,5.4229,5.368,5.3572,5.341,5.3136,5.2912,5.2662,5.2131,5.1761,5.1278,5.0549,4.9768,4.9003,4.8122,4.7355,4.6997,4.6709,4.539,4.4071,4.3546,4.409,4.4177,4.4026,4.405,4.3986,4.3791,4.3966,4.4105,4.4105,4.4665,4.5032,4.52,4.5172,4.5268,4.4907,4.4823,4.4598,4.4458,4.4429,4.4401,4.4401,4.4401,4.4135,4.3603,4.3436,4.31,4.301,4.2814,4.2569,4.2331,4.207,4.1883,4.1794,4.184,4.191,4.1985,4.2092,4.1993,4.1944,4.1724,4.1575,4.1648,4.1625,4.1504,4.1559,4.1716,4.1534,4.1351,4.1508,4.1742,4.19,4.2033,4.258,5.7103,5.8079,5.6933,5.6022,5.5387,5.4746,5.4074,5.3483,5.3803,5.4528,5.5383,5.5769,5.6139,5.657,5.6755,5.6785,5.6939,5.7371,5.7678,5.7746,5.8054,5.8286,5.8121,5.7912,5.7459,5.7328,5.7071,5.6955,5.71,5.6984,5.7129,5.7274,5.7247,5.7247,5.7303,5.7303,5.7275,5.7159,5.6638,5.6058,5.5507,5.536,5.4751,5.4144,5.3895,5.3732,5.3475,5.3218,5.2967,5.2718,5.2423,5.1974,5.1345,5.0538,5.007,5.0011,4.8949,4.9085,5.0058,4.7707,4.6212,4.5226,4.5685,4.5818,4.5517,4.5365,4.5224,4.4972,4.5133,4.5204,4.5421,4.5721,4.589,4.597,4.5914,4.583,4.5464,4.5272,4.5127,4.4795,4.4542,4.4429,4.4401,4.4401,4.4401,4.4294,4.4345,4.4252,4.398,4.3626,4.3204,4.2991,4.2701,4.2533,4.2362,4.2658,4.2752,4.2801,4.2706,4.2589,4.2545,4.2505,4.2355,4.22,4.2217,4.236,4.2287,4.2213,4.2082,4.1952,4.1951,4.2134,4.2343,4.2657,4.318,5.695,5.7925,5.6863,5.6373,5.6101,5.4931,5.4136,5.3945,5.466,5.5357,5.5752,5.617,5.6532,5.6779,5.6785,5.6816,5.6964,5.7463,5.7802,5.7894,5.833,5.8226,5.808,5.7784,5.7353,5.6866,5.6723,5.681,5.6665,5.6839,5.7042,5.7187,5.7303,5.7303,5.7303,5.7303,5.7303,5.7274,5.7042,5.6695,5.6142,5.6026,5.5649,5.4778,5.4527,5.4213,5.3895,5.3579,5.3266,5.3186,5.2969,5.2693,5.2196,5.1468,5.1227,5.0938,4.9987,4.9585,5.0003,4.8898,4.8267,4.7422,4.7005,4.7164,4.6731,4.6606,4.6367,4.6083,4.597,4.597,4.6083,4.6111,4.6223,4.6195,4.6167,4.6167,4.5998,4.5942,4.5802,4.5328,4.5019,4.4766,4.4678,4.4818,4.4818,4.471,4.4738,4.4486,4.4228,4.3847,4.3444,4.3328,4.3139,4.2946,4.2949,4.3166,4.3272,4.3279,4.316,4.2993,4.3025,4.3342,4.3487,4.3548,4.3416,4.3275,4.3124,4.297,4.2735,4.2631,4.2682,4.2656,4.2788,4.3206,4.3781,5.6514,5.7201,5.6486,5.6275,5.625,5.5283,5.4707,5.4691,5.5357,5.5807,5.6139,5.6601,5.6785,5.6785,5.6785,5.7001,5.7155,5.7832,5.8448,5.8397,5.8433,5.8518,5.8273,5.7709,5.724,5.6781,5.6723,5.6781,5.6839,5.6752,5.6955,5.7245,5.7303,5.7303,5.7303,5.7303,5.7303,5.7303,5.7187,5.71,5.6781,5.6607,5.6374,5.5736,5.5215,5.4722,5.4374,5.3965,5.35,5.353,5.3416,5.3274,5.2822,5.2477,5.2177,5.1713,5.1554,5.0776,5.0255,5.0529,4.9703,4.8534,4.8458,4.8223,4.7743,4.7378,4.6985,4.6701,4.6645,4.6616,4.6616,4.6645,4.6869,4.6897,4.6954,4.6954,4.6673,4.6645,4.6392,4.5918,4.5553,4.5296,4.5099,4.5183,4.5324,4.5212,4.5127,4.4823,4.4542,4.4231,4.397,4.3903,4.3776,4.3704,4.3629,4.3622,4.3708,4.3729,4.3767,4.3831,4.4261,4.4688,4.4815,4.4784,4.4417,4.4065,4.3913,4.373,4.3415,4.331,4.3414,4.3389,4.331,4.3755,4.4332,5.5997,5.6176,5.5974,5.5893,5.5843,5.5783,5.5686,5.566,5.5715,5.617,5.6779,5.6755,5.6785,5.6785,5.6785,5.7063,5.7648,5.8325,5.891,5.9308,5.9138,5.9125,5.8709,5.7998,5.7524,5.7358,5.7244,5.71,5.7245,5.7158,5.7216,5.7303,5.7303,5.7303,5.7303,5.7303,5.7303,5.7303,5.7303,5.7245,5.71,5.7158,5.6868,5.6345,5.5823,5.5213,5.4664,5.411,5.3704,5.3559,5.35,5.3316,5.309,5.2819,5.2888,5.298,5.3145,5.2038,5.113,5.1437,5.1086,4.9964,4.943,4.9176,4.8783,4.8218,4.7853,4.7547,4.7434,4.7322,4.7238,4.7631,4.7996,4.8052,4.8134,4.7909,4.7463,4.721,4.6954,4.6616,4.6251,4.5998,4.5942,4.597,4.5914,4.5774,4.5661,4.5436,4.5183,4.4987,4.4745,4.4741,4.4633,4.4588,4.4513,4.4518,4.4634,4.4823,4.5,4.5139,4.563,4.5894,4.5943,4.5736,4.5214,4.4938,4.4889,4.4467,4.3914,4.3966,4.444,4.3966,4.3888,4.436,4.4834,5.6666,5.687,5.6621,5.6621,5.6766,5.6557,5.621,5.5793,5.6231,5.6656,5.6785,5.6785,5.6785,5.6785,5.6785,5.6964,5.7463,5.814,5.8726,5.9134,5.9492,5.9615,5.9258,5.8525,5.8057,5.7751,5.7556,5.7303,5.7303,5.7303,5.7303,5.7303,5.7303,5.7303,5.7303,5.7303,5.7303,5.7303,5.7303,5.7303,5.7303,5.7303,5.7129,5.6868,5.6345,5.5736,5.5155,5.4575,5.411,5.3646,5.3559,5.3424,5.3393,5.3274,5.3335,5.334,5.3234,5.2771,5.2197,5.204,5.1769,5.1219,5.0635,5.0129,4.9735,4.9286,4.8836,4.8527,4.8333,4.8249,4.819,4.8417,4.8698,4.8783,4.8893,4.878,4.8361,4.808,4.7743,4.7178,4.6813,4.6729,4.6645,4.6616,4.656,4.6392,4.6251,4.6111,4.583,4.5633,4.5436,4.5408,4.5436,4.5352,4.5577,4.5629,4.5813,4.595,4.6026,4.6171,4.655,4.6811,4.6954,4.6825,4.6409,4.6131,4.5977,4.5526,4.5076,4.5449,4.5822,4.505,4.4573,4.5075,4.5497,5.5812,5.5986,5.6104,5.6334,5.6608,5.6472,5.6208,5.6107,5.6638,5.6906,5.6785,5.6785,5.6785,5.6847,5.7063,5.7303,5.7395,5.8633,5.9311,5.9435,5.9636,5.9796,5.9496,5.8852,5.8278,5.7974,5.7668,5.7303,5.7303,5.7303,5.7303,5.7303,5.7303,5.7303,5.7303,5.7303,5.7303,5.7303,5.7303,5.7303,5.7303,5.7303,5.7303,5.7187,5.6723,5.62,5.5765,5.5184,5.4575,5.4023,5.3907,5.3735,5.3619,5.35,5.35,5.3451,5.3239,5.3001,5.2566,5.2299,5.2086,5.1811,5.1477,5.1167,5.0633,5.0183,4.9762,4.937,4.9342,4.9286,4.9202,4.9145,4.9286,4.9426,4.9511,4.9595,4.9342,4.9007,4.8445,4.7769,4.7488,4.735,4.7266,4.7291,4.7263,4.7263,4.7235,4.7154,4.6785,4.6335,4.6083,4.5942,4.6026,4.6083,4.6335,4.6504,4.6504,4.6532,4.6645,4.6873,4.735,4.7581,4.7623,4.7699,4.7723,4.7387,4.6967,4.6809,4.6596,4.692,4.719,4.692,4.6303,4.5955,4.6327,5.4261,5.4451,5.484,5.5402,5.5718,5.5759,5.6031,5.6528,5.6854,5.6957,5.6827,5.681,5.6785,5.6909,5.7364,5.7648,5.7956,5.8849,5.9495,5.9778,5.9791,5.9923,5.9762,5.8904,5.8525,5.8112,5.7696,5.7303,5.7303,5.7303,5.7303,5.7303,5.7303,5.7303,5.7303,5.7303,5.7303,5.7303,5.7303,5.7303,5.7303,5.7303,5.7303,5.7216,5.6868,5.6432,5.6229,5.5794,5.5213,5.4807,5.44,5.4113,5.3706,5.35,5.35,5.3398,5.3186,5.2947,5.2653,5.2331,5.2059,5.1868,5.1759,5.1645,5.1252,5.0886,5.0466,5.0127,5.0016,4.9846,4.9705,4.9846,5.0015,5.0129,5.0241,5.0157,4.9904,4.9567,4.9117,4.8612,4.8583,4.8471,4.8415,4.8415,4.8274,4.8218,4.808,4.8052,4.7743,4.7154,4.6982,4.6729,4.6813,4.6897,4.6841,4.6982,4.6982,4.7066,4.7238,4.7575,4.8052,4.8201,4.8266,4.8391,4.8514,4.8199,4.7884,4.7857,4.794,4.8026,4.8353,4.8733,4.8354,4.7595,4.7378,5.5187,5.5642,5.5282,5.5175,5.5257,5.5257,5.5826,5.6697,5.6653,5.6769,5.695,5.6851,5.6785,5.6909,5.758,5.7863,5.8048,5.8916,5.9341,5.9711,5.988,6.0175,6.0233,5.9339,5.8909,5.8527,5.8001,5.7331,5.7472,5.7416,5.7303,5.7331,5.7303,5.7303,5.7303,5.7303,5.7303,5.7303,5.7303,5.7303,5.7303,5.7303,5.7303,5.7274,5.7042,5.6781,5.6578,5.6287,5.5765,5.53,5.4749,5.4197,5.3559,5.353,5.353,5.3422,5.3109,5.2898,5.26,5.2277,5.1923,5.1841,5.1787,5.1787,5.1673,5.1477,5.1224,5.0858,5.0605,5.038,5.0296,5.0521,5.0689,5.0858,5.0971,5.0718,5.041,5.0043,4.9677,4.9649,4.9677,4.9621,4.9511,4.9426,4.9314,4.9117,4.8867,4.8726,4.8502,4.8108,4.8159,4.7962,4.7797,4.7771,4.7631,4.7547,4.7631,4.7856,4.808,4.8417,4.8754,4.9066,4.9294,4.9244,4.9198,4.9045,4.9046,4.9285,4.9345,4.9247,4.9441,4.9825,4.9993,4.9419,4.9063,5.4893,5.5177,5.483,5.465,5.465,5.4541,5.5197,5.6139,5.6006,5.6357,5.6998,5.6899,5.6785,5.7001,5.7771,5.7956,5.811,5.9218,5.9624,5.9839,5.9993,6.046,6.0202,5.9629,5.9234,5.88,5.7918,5.7444,5.7807,5.75,5.736,5.7556,5.7528,5.7303,5.7303,5.7303,5.7303,5.7303,5.7303,5.7303,5.7303,5.7303,5.7303,5.7303,5.7245,5.7042,5.6984,5.6752,5.6403,5.5852,5.5271,5.44,5.3994,5.4139,5.3996,5.3632,5.3282,5.2966,5.2633,5.2222,5.1814,5.1787,5.1787,5.1787,5.1787,5.1617,5.1617,5.1308,5.1308,5.1139,5.1111,5.1252,5.128,5.1392,5.1392,5.1252,5.0746,5.0212,4.9958,4.9846,4.9958,5.0127,5.0099,5.0183,5.0015,4.9677,4.9454,4.9426,4.9202,4.9035,4.9115,4.9143,4.8949,4.8705,4.857,4.8481,4.8417,4.8644,4.8867,4.912,4.9426,4.9987,5.0326,5.019,5.0135,5.0137,5.0246,5.0326,5.0355,5.0175,5.048,5.0922,5.0956,5.096,5.0629,5.4134,5.4103,5.4134,5.4103,5.406,5.3898,5.4574,5.5615,5.5339,5.5875,5.6967,5.6906,5.681,5.7247,5.7986,5.7986,5.8294,5.9003,5.9532,5.9778,5.9932,5.9963,5.9817,5.9524,5.9135,5.8741,5.8112,5.8223,5.8609,5.8029,5.7723,5.8001,5.7723,5.7303,5.7303,5.7303,5.7303,5.7303,5.7303,5.7303,5.7303,5.7303,5.7303,5.7303,5.7303,5.7303,5.7303,5.7187,5.6926,5.652,5.5881,5.5039,5.4575,5.4691,5.4465,5.4128,5.3606,5.3279,5.2832,5.2171,5.1924,5.1787,5.1787,5.1787,5.1787,5.1787,5.1787,5.1787,5.1787,5.1759,5.1731,5.1702,5.1731,5.1731,5.1674,5.1673,5.1083,5.0577,5.0436,5.0268,5.0436,5.0661,5.0718,5.083,5.0605,5.0268,5.0125,5.0069,4.9987,4.9904,4.9876,5.0016,5.0018,4.98,4.955,4.927,4.912,4.926,4.9483,4.9762,5.0099,5.0661,5.0999,5.0999,5.0972,5.0944,5.0972,5.0972,5.1001,5.0974,5.117,5.1366,5.1424,5.1456,5.1706,5.4103,5.4103,5.4103,5.4103,5.406,5.3876,5.4543,5.5583,5.5308,5.5845,5.682,5.693,5.6785,5.6871,5.7586,5.7832,5.7986,5.8664,5.8849,5.9003,5.9003,5.9003,5.9175,5.9375,5.8811,5.8562,5.8552,5.8691,5.8991,5.8443,5.8057,5.8195,5.764,5.7331,5.7303,5.7303,5.7303,5.7303,5.7303,5.7303,5.7303,5.7303,5.7303,5.7303,5.7303,5.7303,5.7303,5.7303,5.7245,5.6984,5.652,5.5765,5.5331,5.5217,5.505,5.46,5.4102,5.3542,5.2984,5.2343,5.2039,5.1787,5.1787,5.1787,5.1815,5.1899,5.1871,5.1899,5.1899,5.1843,5.1815,5.1759,5.1759,5.1759,5.1731,5.1731,5.1477,5.1364,5.1308,5.1252,5.1308,5.1392,5.142,5.1392,5.1224,5.0942,5.0746,5.0661,5.038,5.0466,5.058,5.0748,5.0917,5.0798,5.0511,4.999,4.9792,4.9932,5.0183,5.0549,5.0942,5.1392,5.1617,5.1617,5.1561,5.1506,5.1561,5.1449,5.1478,5.1478,5.159,5.1731,5.1787,5.1983,5.2236]}]]